[[{"header":{"parameterUnit":"m.s-1","parameterCategory":1,"la1":30.6,"la2":29.2853,"lo1":-89.7004,"lo2":-87.6739,"dy":0.0162,"dx":0.0183,"nx":112,"ny":82,"refTime":"2024-06-03T06:00:00:Z","depth":0,"parameterNumber":2,"parameterNumberName":"U-component_of_WINDS"},"data":[0.0,0.0,0.0,0.0,0.0,0.0,0.0,0.0,0.0,0.0,0.0,0.0,0.0,0.0,0.0,0.0,0.0,0.0,0.0,0.0,0.0,0.0,0.0,0.0,0.0,0.0,0.0,0.0,0.0,0.0,0.0,0.0,0.0,0.0,0.0,0.0,0.0,0.0,0.0,0.0,0.0,0.0,0.0,0.0,0.0,0.0,0.0,0.0,0.0,0.0,0.0,0.0,0.0,0.0,0.0,0.0,0.0,0.0,0.0,0.0,0.0,0.0,0.0,0.0,0.0,0.0,0.0,0.0,0.0,0.0,0.0,0.0,0.0,0.0,0.0,0.0,0.0,0.0,0.0,0.0,0.0,0.0,0.0,0.0,0.0,0.0,0.0,0.0,0.0,0.0,0.0,2.5356,2.8728,3.0364,2.9572,2.9377,2.7901,2.4608,0.0,0.0,0.0,0.0,0.0,0.0,0.0,0.0,0.0,0.0,0.0,0.0,0.0,0.0,0.0,0.0,0.0,0.0,0.0,0.0,0.0,0.0,0.0,0.0,0.0,0.0,0.0,0.0,0.0,0.0,0.0,0.0,0.0,0.0,0.0,0.0,0.0,0.0,0.0,0.0,0.0,0.0,0.0,0.0,0.0,0.0,0.0,0.0,0.0,0.0,0.0,0.0,0.0,0.0,0.0,0.0,0.0,0.0,0.0,0.0,0.0,0.0,0.0,0.0,0.0,0.0,0.0,0.0,0.0,0.0,0.0,0.0,0.0,0.0,0.0,0.0,0.0,0.0,0.0,0.0,0.0,0.0,0.0,0.0,0.0,0.0,0.0,0.0,0.0,0.0,0.0,0.0,0.0,0.0,0.0,0.0,0.0,0.0,0.0,0.0,0.0,0.0,0.0,0.0,2.124,2.6919,2.9433,3.0364,2.9572,2.8812,2.7258,2.4569,0.0,0.0,0.0,0.0,0.0,0.0,0.0,0.0,0.0,0.0,0.0,0.0,0.0,0.0,0.0,0.0,0.0,0.0,0.0,0.0,0.0,0.0,0.0,0.0,0.0,0.0,0.0,0.0,0.0,0.0,0.0,0.0,0.0,0.0,0.0,0.0,0.0,0.0,0.0,0.0,0.0,0.0,0.0,0.0,0.0,0.0,0.0,0.0,0.0,0.0,0.0,0.0,0.0,0.0,0.0,0.0,0.0,0.0,0.0,0.0,0.0,0.0,0.0,0.0,0.0,0.0,0.0,0.0,0.0,0.0,0.0,0.0,0.0,0.0,0.0,0.0,0.0,0.0,0.0,0.0,0.0,0.0,0.0,0.0,0.0,0.0,0.0,0.0,0.0,0.0,0.0,0.0,0.0,0.0,0.0,0.0,0.0,0.0,0.0,0.0,0.0,0.0,0.0,2.1352,2.3883,2.7507,2.9622,3.0419,2.9572,2.8695,2.7102,2.4569,2.1883,0.0,0.0,0.0,0.0,0.0,0.0,0.0,0.0,0.0,0.0,0.0,0.0,0.0,0.0,0.0,0.0,0.0,0.0,0.0,0.0,0.0,0.0,0.0,0.0,0.0,0.0,0.0,0.0,0.0,0.0,0.0,0.0,0.0,0.0,0.0,0.0,0.0,0.0,0.0,0.0,0.0,0.0,0.0,0.0,0.0,0.0,0.0,0.0,0.0,0.0,0.0,0.0,0.0,0.0,0.0,0.0,0.0,0.0,0.0,0.0,0.0,0.0,0.0,0.0,0.0,0.0,0.0,0.0,0.0,0.0,0.0,0.0,0.0,0.0,0.0,0.0,0.0,0.0,0.0,0.0,0.0,0.0,0.0,0.0,0.0,0.0,0.0,0.0,0.0,0.0,0.0,0.0,0.0,0.0,0.0,0.0,0.0,0.0,0.0,0.0,0.0,0.0,2.4347,2.6536,2.7758,2.9635,3.0351,2.9279,2.8212,2.6595,2.4238,2.0458,0.0,0.0,0.0,0.0,0.0,0.0,0.0,0.0,0.0,0.0,0.0,0.0,0.0,0.0,0.0,0.0,0.0,0.0,0.0,0.0,0.0,0.0,0.0,0.0,0.0,0.0,0.0,0.0,0.0,0.0,0.0,0.0,0.0,0.0,0.0,0.0,0.0,0.0,0.0,0.0,0.0,0.0,0.0,0.0,0.0,0.0,0.0,0.0,0.0,0.0,0.0,0.0,0.0,0.0,0.0,0.0,0.0,0.0,0.0,0.0,0.0,0.0,0.0,0.0,0.0,0.0,0.0,0.0,0.0,0.0,0.0,0.0,0.0,0.0,0.0,0.0,0.0,0.0,0.0,0.0,0.0,0.0,0.0,0.0,0.0,0.0,0.0,0.0,0.0,0.0,0.0,0.0,0.0,0.0,0.0,0.0,0.0,0.0,0.0,0.0,0.0,0.0,2.4649,2.7758,2.7893,2.9635,3.0117,2.8427,2.6809,2.5114,2.3302,1.8451,0.0,0.0,0.0,0.0,0.0,0.0,0.0,0.0,0.0,0.0,0.0,0.0,0.0,0.0,0.0,0.0,0.0,0.0,0.0,0.0,0.0,0.0,0.0,0.0,0.0,0.0,0.0,0.0,0.0,0.0,0.0,0.0,0.0,0.0,0.0,0.0,0.0,0.0,0.0,0.0,0.0,0.0,0.0,0.0,0.0,0.0,0.0,0.0,0.0,0.0,0.0,0.0,0.0,0.0,0.0,0.0,0.0,0.0,0.0,0.0,0.0,0.0,0.0,0.0,0.0,0.0,0.0,0.0,0.0,0.0,0.0,0.0,0.0,0.0,0.0,0.0,0.0,0.0,0.0,0.0,0.0,0.0,0.0,0.0,0.0,0.0,0.0,0.0,0.0,0.0,0.0,0.0,0.0,0.0,0.0,0.0,0.0,0.0,0.0,0.0,0.0,0.0,2.4043,2.6872,0.0,2.9834,2.9991,2.8273,2.761,2.5835,2.2504,0.0,0.0,0.0,0.0,0.0,0.0,0.0,0.0,0.0,0.0,0.0,0.0,0.0,0.0,0.0,0.0,0.0,0.0,0.0,0.0,0.0,0.0,0.0,0.0,0.0,0.0,0.0,0.0,0.0,0.0,0.0,0.0,0.0,0.0,0.0,0.0,0.0,0.0,0.0,0.0,0.0,0.0,0.0,0.0,0.0,0.0,0.0,0.0,0.0,0.0,0.0,0.0,0.0,0.0,0.0,0.0,0.0,0.0,0.0,0.0,0.0,0.0,0.0,0.0,0.0,0.0,0.0,0.0,0.0,0.0,0.0,0.0,0.0,0.0,0.0,0.0,0.0,0.0,0.0,0.0,0.0,0.0,0.0,0.0,0.0,0.0,0.0,0.0,0.0,0.0,0.0,0.0,0.0,0.0,0.0,0.0,0.0,0.0,0.0,0.0,0.0,0.0,2.1302,2.4322,2.6843,0.0,2.9931,2.9897,2.8209,2.7608,2.5736,2.1994,0.0,0.0,0.0,0.0,0.0,0.0,0.0,0.0,0.0,0.0,0.0,0.0,0.0,0.0,0.0,0.0,0.0,0.0,0.0,0.0,0.0,0.0,0.0,0.0,0.0,0.0,0.0,0.0,0.0,0.0,0.0,0.0,0.0,0.0,0.0,0.0,0.0,0.0,0.0,0.0,0.0,0.0,0.0,0.0,0.0,0.0,0.0,0.0,0.0,0.0,0.0,0.0,0.0,0.0,0.0,0.0,0.0,0.0,0.0,0.0,0.0,0.0,0.0,0.0,0.0,0.0,0.0,0.0,0.0,0.0,0.0,0.0,0.0,0.0,0.0,0.0,0.0,0.0,0.0,0.0,0.0,0.0,0.0,0.0,0.0,0.0,0.0,0.0,0.0,0.0,0.0,0.0,0.0,0.0,0.0,0.0,0.0,0.0,0.0,0.0,0.0,0.0,2.2268,2.5686,2.8118,2.8933,2.9901,2.9824,2.8141,2.6431,2.4365,0.0,0.0,0.0,0.0,0.0,0.0,0.0,0.0,0.0,0.0,0.0,0.0,0.0,0.0,0.0,0.0,0.0,0.0,0.0,0.0,0.0,0.0,0.0,0.0,0.0,0.0,0.0,0.0,0.0,0.0,0.0,0.0,0.0,0.0,0.0,0.0,0.0,0.0,0.0,0.0,0.0,0.0,0.0,0.0,0.0,0.0,0.0,0.0,0.0,0.0,0.0,0.0,0.0,0.0,0.0,0.0,0.0,0.0,0.0,0.0,0.0,0.0,0.0,0.0,0.0,0.0,0.0,0.0,0.0,0.0,0.0,0.0,0.0,0.0,0.0,0.0,0.0,0.0,0.0,0.0,0.0,0.0,0.0,0.0,0.0,0.0,0.0,0.0,0.0,0.0,0.0,0.0,0.0,0.0,0.0,0.0,0.0,0.0,0.0,0.0,0.0,0.0,0.0,0.0,2.5975,2.8224,2.9685,3.0155,2.9935,2.8865,2.7826,2.5902,2.2738,0.0,0.0,0.0,0.0,0.0,0.0,0.0,0.0,0.0,0.0,0.0,0.0,0.0,0.0,0.0,0.0,0.0,0.0,0.0,0.0,0.0,0.0,0.0,0.0,0.0,0.0,0.0,0.0,0.0,0.0,0.0,0.0,0.0,0.0,0.0,0.0,0.0,0.0,0.0,0.0,0.0,0.0,0.0,0.0,0.0,0.0,0.0,0.0,0.0,0.0,0.0,0.0,0.0,0.0,0.0,0.0,0.0,0.0,0.0,0.0,0.0,0.0,0.0,0.0,0.0,0.0,0.0,0.0,0.0,0.0,0.0,0.0,0.0,0.0,0.0,0.0,0.0,0.0,0.0,0.0,0.0,0.0,0.0,0.0,0.0,0.0,0.0,0.0,0.0,0.0,0.0,0.0,0.0,0.0,0.0,0.0,0.0,0.0,0.0,0.0,0.0,0.0,2.3967,2.6355,2.8286,3.0013,3.0247,2.9921,2.9084,2.8321,2.6429,2.3033,0.0,0.0,0.0,0.0,0.0,0.0,0.0,0.0,0.0,0.0,0.0,0.0,0.0,0.0,0.0,0.0,0.0,0.0,0.0,0.0,0.0,0.0,0.0,0.0,0.0,0.0,0.0,0.0,0.0,0.0,0.0,0.0,0.0,0.0,0.0,0.0,0.0,0.0,0.0,0.0,0.0,0.0,0.0,0.0,0.0,0.0,0.0,0.0,0.0,0.0,0.0,0.0,0.0,0.0,0.0,0.0,0.0,0.0,0.0,0.0,0.0,0.0,0.0,0.0,0.0,0.0,0.0,0.0,0.0,0.0,0.0,0.0,0.0,0.0,0.0,0.0,0.0,0.0,0.0,0.0,0.0,0.0,0.0,0.0,0.0,0.0,0.0,0.0,0.0,0.0,0.0,0.0,0.0,0.0,0.0,0.0,0.0,0.0,0.0,0.0,0.0,0.0,2.4764,2.6768,2.8427,3.0032,3.0204,2.9879,2.9082,2.8294,2.6446,2.3256,0.0,0.0,0.0,0.0,0.0,0.0,0.0,0.0,0.0,0.0,0.0,0.0,0.0,0.0,0.0,0.0,0.0,0.0,0.0,0.0,0.0,0.0,0.0,0.0,0.0,0.0,0.0,0.0,0.0,0.0,0.0,0.0,0.0,0.0,0.0,0.0,0.0,0.0,0.0,0.0,0.0,0.0,0.0,0.0,0.0,0.0,0.0,0.0,0.0,0.0,0.0,0.0,0.0,0.0,0.0,0.0,0.0,0.0,0.0,0.0,2.2282,0.0,0.0,0.0,0.0,0.0,0.0,0.0,0.0,0.0,0.0,0.0,0.0,0.0,0.0,0.0,0.0,0.0,0.0,0.0,0.0,0.0,0.0,0.0,0.0,0.0,0.0,0.0,0.0,0.0,0.0,0.0,0.0,0.0,0.0,0.0,0.0,0.0,0.0,0.0,0.0,0.0,2.4841,2.7266,2.9039,3.0089,3.0204,3.0109,2.9937,2.9153,2.7797,2.58,0.0,0.0,0.0,0.0,0.0,0.0,0.0,0.0,0.0,0.0,0.0,0.0,0.0,0.0,0.0,0.0,0.0,0.0,0.0,0.0,0.0,0.0,0.0,0.0,0.0,0.0,0.0,0.0,0.0,0.0,0.0,0.0,0.0,0.0,0.0,0.0,0.0,0.0,0.0,0.0,0.0,0.0,0.0,0.0,0.0,0.0,0.0,0.0,0.0,0.0,0.0,0.0,0.0,0.0,0.0,0.0,0.0,0.0,0.0,0.0,0.0,2.4611,0.0,0.0,0.0,0.0,0.0,0.0,0.0,0.0,0.0,0.0,0.0,0.0,0.0,0.0,0.0,0.0,0.0,0.0,0.0,0.0,0.0,0.0,0.0,0.0,0.0,0.0,0.0,0.0,0.0,0.0,0.0,0.0,0.0,0.0,0.0,0.0,0.0,0.0,0.0,0.0,2.6014,2.8243,3.0013,3.1274,3.1064,3.0815,3.0815,2.965,2.8192,2.655,2.403,0.0,0.0,0.0,0.0,0.0,0.0,0.0,0.0,0.0,0.0,0.0,0.0,0.0,0.0,0.0,0.0,0.0,0.0,0.0,0.0,0.0,0.0,0.0,0.0,0.0,0.0,0.0,0.0,0.0,0.0,0.0,0.0,0.0,0.0,0.0,0.0,0.0,0.0,0.0,0.0,0.0,0.0,0.0,0.0,0.0,0.0,0.0,0.0,0.0,0.0,0.0,0.0,0.0,0.0,3.3576,3.4257,3.4282,3.4218,3.3978,3.1917,3.0069,2.8379,0.0,0.0,0.0,0.0,0.0,0.0,0.0,0.0,0.0,0.0,0.0,0.0,0.0,0.0,0.0,0.0,0.0,0.0,0.0,0.0,0.0,0.0,0.0,0.0,0.0,2.9701,2.8676,0.0,0.0,0.0,0.0,0.0,0.0,0.0,0.0,0.0,0.0,0.0,0.0,2.73,2.9306,3.1006,3.2539,3.2114,3.1656,3.1503,3.0185,2.8624,2.6937,2.5256,2.3324,0.0,0.0,0.0,0.0,0.0,0.0,0.0,0.0,0.0,0.0,0.0,0.0,0.0,0.0,0.0,0.0,0.0,0.0,0.0,0.0,0.0,0.0,0.0,0.0,0.0,0.0,0.0,0.0,0.0,0.0,0.0,0.0,2.0874,2.1236,0.0,0.0,0.0,0.0,0.0,0.0,0.0,0.0,0.0,0.0,0.0,0.0,0.0,0.0,3.2138,3.4449,3.5662,3.5816,3.8131,3.9295,3.9352,3.9391,3.9358,3.9223,3.8879,0.0,3.1936,3.0929,0.0,0.0,0.0,0.0,0.0,0.0,0.0,0.0,0.0,0.0,0.0,0.0,0.0,0.0,0.0,0.0,0.0,0.0,0.0,0.0,0.0,0.0,3.1284,3.1701,3.2346,3.2602,0.0,2.8274,2.5258,2.4068,0.0,0.0,0.0,0.0,0.0,0.0,0.0,0.0,2.7453,2.9822,3.1675,3.2596,3.2596,3.2267,3.156,3.1293,3.0433,2.8681,2.6995,2.5588,2.4503,2.1537,0.0,0.0,0.0,0.0,0.0,0.0,0.0,0.0,0.0,0.0,0.0,0.0,0.0,0.0,0.0,0.0,0.0,0.0,0.0,0.0,0.0,0.0,0.0,0.0,0.0,0.0,0.0,0.0,0.0,2.0369,2.2983,2.2951,2.4146,2.4326,0.0,0.0,0.0,0.0,0.0,0.0,0.0,0.0,0.0,3.3077,3.3622,3.4691,3.6362,3.835,3.935,3.9369,4.0976,4.1742,4.1705,4.1742,4.1724,4.1647,4.1627,4.0368,3.8098,3.5314,3.35,3.2301,0.0,0.0,0.0,0.0,0.0,3.0007,3.1618,0.0,0.0,0.0,0.0,0.0,0.0,0.0,0.0,0.0,0.0,0.0,0.0,0.0,0.0,3.4062,3.4582,3.4805,3.4623,3.2887,3.064,0.0,2.718,2.6002,2.3277,0.0,0.0,0.0,0.0,0.0,3.0242,3.1904,3.3203,3.4025,3.37,3.3089,3.2248,3.1732,3.072,2.9006,2.8204,2.7198,2.5818,2.3926,2.2277,0.0,0.0,0.0,0.0,0.0,0.0,0.0,0.0,0.0,0.0,0.0,0.0,0.0,0.0,0.0,0.0,0.0,0.0,0.0,0.0,0.0,0.0,0.0,0.0,0.0,0.0,0.0,0.0,2.2834,2.4918,2.4649,2.6486,2.6949,0.0,0.0,0.0,0.0,0.0,0.0,3.19,3.301,3.4597,3.6811,3.752,3.8544,3.9966,4.1418,4.2144,4.2144,4.3023,4.3443,4.3443,4.3443,4.3443,4.3443,4.3384,4.3363,4.3016,3.9223,3.7166,3.6252,3.475,3.4063,3.3982,3.4698,3.4585,3.4282,3.6098,3.6123,3.5254,3.48,0.0,3.2099,3.0233,0.0,0.0,0.0,0.0,3.3397,3.4814,3.5177,3.5513,3.6825,3.7025,3.6942,3.7016,3.6564,3.5179,0.0,3.1558,3.063,2.6817,0.0,0.0,0.0,0.0,3.0319,3.2424,3.3452,3.4312,3.5114,3.4655,3.3968,3.3108,3.2229,3.1121,2.9655,2.914,2.8311,2.6985,2.5952,2.4702,0.0,0.0,0.0,0.0,0.0,0.0,0.0,0.0,0.0,0.0,0.0,0.0,0.0,0.0,0.0,0.0,0.0,0.0,0.0,0.0,0.0,0.0,0.0,0.0,0.0,0.0,0.0,0.0,0.0,0.0,2.6376,2.905,0.0,0.0,0.0,0.0,2.9915,3.3121,3.5457,3.6257,3.7832,3.9473,4.1132,4.1227,4.1686,4.2603,4.3463,4.3883,4.3883,4.4762,4.5163,4.5163,4.5163,4.5163,4.5163,4.5163,4.5099,4.4779,4.2148,4.063,3.9834,3.88,3.8004,3.7536,3.8193,3.8458,3.8555,3.9053,3.9018,3.8823,3.9228,3.7772,3.57,3.4814,3.4173,0.0,0.0,3.5747,3.7357,3.8828,3.9213,3.9446,4.0352,4.0072,3.9626,3.9626,3.8612,3.724,0.0,3.4548,3.3494,3.2443,0.0,3.0892,3.007,3.0758,3.1694,3.2577,3.3452,3.4312,3.5114,3.5171,3.4808,3.3987,3.3146,3.2286,3.1427,2.9808,2.8826,2.8674,2.71,2.5811,2.4898,2.1616,0.0,0.0,0.0,0.0,0.0,0.0,0.0,0.0,0.0,0.0,0.0,0.0,0.0,0.0,0.0,0.0,0.0,0.0,0.0,0.0,0.0,0.0,0.0,0.0,0.0,0.0,0.0,0.0,2.9207,3.2052,0.0,0.0,3.2749,3.4183,3.4391,3.6137,3.7768,3.9104,3.9939,4.1144,4.2791,4.3018,4.3539,4.4399,4.4685,4.4838,4.4838,4.5144,4.5297,4.5297,4.5297,4.5297,4.5297,4.5297,4.5275,4.5137,4.4217,4.3254,4.2351,4.143,4.0943,4.076,4.0975,4.0957,4.082,4.0973,4.0672,4.0197,3.9659,3.8907,3.8071,3.7271,3.7244,3.7525,3.7758,3.8543,3.9506,4.0106,4.0251,4.0393,4.0821,4.076,4.0592,4.0624,4.0394,3.9881,3.8856,3.731,3.574,3.4508,3.4522,3.4388,3.3547,3.4159,3.4827,3.5098,3.542,3.5496,3.5229,3.5209,3.4866,3.4063,3.3203,3.2363,3.156,2.9851,2.864,2.8046,2.6915,2.5885,2.5023,2.3284,2.127,0.0,0.0,0.0,0.0,0.0,0.0,0.0,0.0,0.0,0.0,0.0,0.0,0.0,0.0,0.0,0.0,0.0,0.0,0.0,0.0,0.0,0.0,0.0,0.0,0.0,0.0,3.1984,3.1942,3.4792,3.6087,3.4418,3.6025,3.741,3.794,3.9107,4.0314,4.1556,4.2087,4.2909,4.4121,4.4353,4.4723,4.5277,4.5297,4.5297,4.5297,4.5297,4.5297,4.5297,4.5297,4.5297,4.5297,4.5297,4.5297,4.5256,4.5213,4.4779,4.4066,4.3497,4.327,4.3246,4.3246,4.3088,4.2874,4.2641,4.2236,4.1669,4.0869,4.0401,4.0075,3.9532,3.9749,4.0184,4.0184,4.0727,4.1361,4.1523,4.1558,4.1593,4.1784,4.165,4.1449,4.1482,4.1438,4.1267,4.0905,3.9539,3.7967,3.6483,3.6768,3.6918,3.6042,3.6476,3.691,3.691,3.691,3.6585,3.5744,3.5649,3.5305,3.4483,3.3356,3.2462,3.1943,3.0257,2.8912,2.8046,2.72,2.6322,2.5427,2.3893,2.2166,2.0195,0.0,0.0,0.0,0.0,0.0,0.0,0.0,0.0,0.0,0.0,0.0,0.0,0.0,0.0,0.0,0.0,0.0,0.0,0.0,0.0,0.0,0.0,0.0,2.9112,3.2262,3.4506,3.4558,3.7233,3.8479,3.685,3.8952,4.0391,4.0391,4.2062,4.3262,4.3596,4.4359,4.4934,4.5256,4.5277,4.5297,4.5335,4.5316,4.5354,4.5373,4.5373,4.5373,4.5373,4.5373,4.5373,4.5373,4.5373,4.5333,4.523,4.523,4.5144,4.501,4.4991,4.4943,4.4895,4.4895,4.4895,4.4777,4.4125,4.3656,4.3336,4.3032,4.2375,4.1759,4.1759,4.1759,4.1759,4.1759,4.2303,4.2957,4.316,4.3196,4.3251,4.3444,4.2892,4.2341,4.2341,4.1735,4.1322,4.1827,4.1271,4.0221,3.8582,3.8527,3.8414,3.7503,3.7604,0.0,3.7731,3.7731,3.7426,3.6623,3.6547,3.6203,3.5305,3.37,3.273,3.2691,3.102,2.9656,2.8827,2.798,2.7134,2.6233,2.3499,2.1662,2.0707,0.0,0.0,0.0,0.0,0.0,0.0,0.0,0.0,0.0,0.0,0.0,0.0,0.0,0.0,0.0,0.0,0.0,0.0,0.0,0.0,0.0,0.0,3.132,3.2046,3.4415,3.6632,3.8195,4.0185,4.1209,4.0767,4.1885,4.2603,4.2603,4.3107,4.354,4.3874,4.4271,4.4624,4.4934,4.4934,4.5238,4.5884,4.5889,4.6174,4.6757,4.7003,4.7111,4.7111,4.7111,4.7111,4.7111,4.7111,4.6727,4.6135,4.6135,4.5748,4.5148,4.5057,4.4943,4.4895,4.4895,4.4584,4.4125,4.3689,4.3301,4.3014,4.292,4.2737,4.2574,4.2574,4.2574,4.2574,4.2574,4.2793,4.3086,4.3178,4.3251,4.3376,4.3463,4.3314,4.3167,4.3167,4.3002,4.272,4.2258,4.1994,4.1593,4.0751,4.0652,4.0425,3.9585,3.9547,0.0,3.8725,3.8648,3.8323,3.7464,3.7368,3.7043,3.6222,3.4617,3.3341,0.0,2.9904,2.8446,2.8802,2.7233,2.6453,2.6635,2.5244,2.4116,0.0,0.0,0.0,0.0,0.0,0.0,0.0,0.0,0.0,0.0,0.0,0.0,0.0,0.0,0.0,0.0,0.0,0.0,0.0,0.0,0.0,0.0,3.1165,3.3835,3.5439,3.7094,3.8757,4.0425,4.191,4.28,4.28,4.3222,4.3497,4.3497,4.3497,4.3649,4.3974,4.4468,4.4852,4.5127,4.5447,4.5881,4.6391,4.6399,4.6698,4.7295,4.7509,4.7647,4.7799,4.7799,4.7713,0.0,4.7754,4.7426,4.6839,4.6969,4.6702,0.0,0.0,0.0,0.0,0.0,4.443,4.4035,4.3557,4.3266,4.3087,4.2957,4.2882,4.2882,4.2882,4.2882,4.2882,4.2882,4.2994,4.3104,4.3178,4.3305,4.3429,4.3497,4.3497,4.3497,4.3497,4.3497,4.3419,4.3074,0.0,0.0,4.2286,4.1798,4.1283,4.0577,4.0549,4.0366,3.9642,3.9546,3.9221,3.8343,3.8136,3.7738,3.69,3.521,0.0,0.0,0.0,2.9261,2.902,2.7248,0.0,0.0,0.0,0.0,0.0,0.0,0.0,0.0,2.4461,2.4647,0.0,0.0,0.0,0.0,0.0,0.0,0.0,0.0,0.0,0.0,0.0,0.0,0.0,0.0,0.0,0.0,3.3564,3.5888,3.8564,3.9704,4.0632,4.1613,4.274,4.3444,4.3497,4.3497,4.3497,4.3497,4.3571,4.3778,4.4103,0.0,0.0,0.0,0.0,4.681,4.6904,4.6904,4.7089,4.7454,4.7526,4.7675,4.7976,4.7976,4.7819,4.7553,4.7843,4.7737,4.7375,4.7661,4.7691,4.7395,4.5936,4.5242,4.5028,4.4689,4.4449,4.4194,4.3623,0.0,0.0,4.2995,4.2882,4.2882,4.2882,4.2882,4.2882,4.2882,4.2994,4.3123,4.3178,4.3305,4.3411,4.3497,4.3497,4.3497,4.3497,4.3497,4.3582,4.3878,4.3942,4.3776,4.3259,4.2313,4.1501,4.0907,4.1047,4.0991,4.0404,4.0348,4.0005,3.9147,0.0,0.0,3.748,3.5778,3.4664,3.439,3.2735,3.1067,2.9455,2.8042,2.7569,2.8154,2.8109,2.8718,3.0087,3.0087,3.0514,3.1338,2.7848,2.7695,0.0,0.0,0.0,0.0,0.0,0.0,0.0,0.0,0.0,0.0,0.0,0.0,0.0,0.0,0.0,3.2164,3.4772,3.7166,3.8904,4.0078,4.1173,4.2364,4.2811,4.3142,4.3463,4.3497,4.3497,4.3497,4.4103,4.4626,4.4939,4.5718,0.0,4.6559,4.6501,4.6801,4.7452,4.7467,4.7798,4.8516,0.0,0.0,4.9012,4.9012,4.8964,4.8923,4.8964,4.8528,4.7819,4.8182,4.7859,4.7108,4.6992,4.6384,4.5546,4.5491,4.4673,4.359,4.3422,4.3213,4.2995,4.292,4.2882,4.2882,4.2882,4.2882,0.0,4.2882,4.305,4.3178,4.3214,4.3358,4.3497,4.3497,4.3497,4.3497,4.3497,4.3497,4.3513,4.3582,4.3582,4.356,4.3443,4.3081,4.2529,4.1777,4.1717,4.1468,4.0734,4.0621,4.0301,3.9477,3.9354,3.8973,3.8085,3.7038,3.5843,3.44,3.2683,3.1187,2.9995,3.027,3.0412,3.0384,3.0376,3.0821,3.1727,3.1727,3.2488,3.3864,3.1847,3.1211,0.0,0.0,0.0,0.0,0.0,0.0,0.0,0.0,0.0,0.0,0.0,2.7286,0.0,0.0,3.266,3.4121,3.6157,3.7934,3.9059,3.9999,4.0955,4.1871,4.2262,4.2559,4.2808,4.2846,4.3102,4.3761,4.4163,4.4748,4.5506,4.6299,4.6794,4.6962,4.7217,4.7535,4.7941,4.7959,4.8251,4.8816,4.8934,4.9099,4.924,4.919,4.9062,4.8897,4.9094,4.8786,4.8234,4.8578,4.8384,4.7916,4.8059,4.7229,4.5973,4.5815,4.526,4.46,4.4437,4.4231,4.4023,4.3625,4.3498,4.3425,4.3009,4.2882,4.2882,4.2882,4.3013,4.316,4.316,4.3251,4.3358,4.3428,4.3446,4.3463,4.3497,4.3497,4.3497,4.3497,4.3497,4.3497,4.3497,4.3412,4.3069,4.2416,4.2286,4.2044,4.1402,4.129,4.0997,4.0171,3.9975,3.956,3.8738,3.7689,3.65,3.5192,3.3862,3.2903,3.2365,3.2329,3.2502,3.2795,3.2795,3.3194,3.4009,3.4009,3.4407,3.5204,3.4787,3.4588,0.0,0.0,0.0,0.0,0.0,0.0,0.0,0.0,2.4733,2.5846,2.8075,3.013,3.0958,3.2774,3.4569,3.5921,3.729,3.8405,3.9123,3.9799,4.0451,4.1047,4.1552,4.1955,4.2139,4.2198,4.2741,4.3984,4.424,4.4813,4.6049,4.6874,4.7314,4.7314,4.7937,4.8267,4.8229,4.8229,4.8383,4.864,4.8586,4.873,4.8967,4.8863,4.8655,4.8403,4.8655,4.8674,4.8513,4.8603,4.8692,4.8694,4.8604,4.7755,4.6537,4.6158,4.5902,4.5662,4.5391,4.5291,4.5182,4.453,4.4331,4.4168,4.3371,4.3118,4.3081,4.2936,4.2994,4.3104,4.3104,4.316,4.3214,4.334,4.334,4.3376,4.3428,4.3444,4.3463,4.3463,4.3463,4.3463,4.3463,4.3463,4.3327,4.2939,4.286,4.2656,4.2053,4.1969,4.1651,4.083,4.056,4.01,3.9256,3.7961,3.688,3.6181,3.5307,3.4842,3.4842,3.4208,3.4172,3.4824,3.4842,3.524,3.6037,3.6037,3.62,3.6526,3.716,3.7359,1.8915,1.9537,2.0914,2.224,2.32,2.4599,0.0,0.0,2.9089,3.0387,3.1836,3.2971,3.3033,3.4311,3.5525,3.6232,3.7432,3.8476,3.9135,3.9747,4.0171,4.037,4.0972,4.1569,4.1997,4.2139,4.2741,4.3984,4.4632,4.5591,4.6892,4.7679,4.8098,4.8098,4.8172,4.813,4.8032,4.8032,4.8072,4.8093,4.8093,4.8093,4.8132,4.8132,4.8093,4.8053,4.801,4.819,4.8384,4.8014,4.8032,4.8326,4.7951,4.7697,4.7502,4.711,4.6282,4.537,4.5291,4.5291,4.5291,4.52,4.5164,4.5019,4.4204,4.3969,4.3806,4.3081,4.2994,4.3104,4.3104,4.316,4.3196,4.3214,4.3214,4.3214,4.3232,4.3232,4.3286,4.3376,4.3429,4.3429,4.3429,4.3429,4.341,4.3403,4.3419,4.3125,4.2349,4.2257,4.1893,4.0983,4.0859,4.0482,3.963,3.8041,3.7053,3.6962,3.6141,3.5675,3.5675,3.5584,3.5584,3.5675,3.5675,3.6055,3.6852,3.6852,3.7594,3.8989,3.9079,3.8735,2.2347,2.3203,0.0,0.0,2.6488,2.8134,2.9181,3.032,3.1428,3.2367,3.3644,3.4614,3.4614,3.5414,3.6183,0.0,3.7488,3.839,3.8629,3.9523,4.0138,4.0188,4.05,4.0849,4.1111,4.1157,4.189,4.3616,4.4005,4.492,4.6575,4.7307,4.7632,4.7632,4.7933,4.805,4.7992,4.7992,4.7992,4.7992,4.7947,4.7947,4.7966,4.7866,4.7824,4.7806,4.7801,4.7866,4.7992,4.7783,4.7783,4.7929,4.7783,4.7717,4.7663,4.7506,4.7139,4.6703,4.6703,4.6703,4.6631,4.616,4.5997,4.5852,4.5037,4.4802,4.4621,4.3824,4.3645,4.3574,4.3121,4.3013,4.305,4.3123,4.316,4.316,4.3214,4.3214,4.3214,4.3251,4.3286,4.3286,4.3286,4.3286,4.3286,4.3304,4.3322,4.3194,4.2865,4.281,4.25,4.1626,4.1115,4.0662,4.0266,3.9176,3.8474,3.844,3.7664,3.7196,3.7196,3.7196,3.7196,3.7196,3.7196,3.7576,3.8391,3.8391,3.8952,4.0039,4.0039,4.0111,2.4456,0.0,0.0,2.7119,2.9104,3.0889,3.0582,3.1936,3.3336,3.3629,3.4645,3.5414,3.5245,3.5753,0.0,3.6215,3.7275,3.8067,3.8067,3.9082,3.985,3.985,4.007,4.0288,4.037,4.0485,4.1329,4.3367,4.3471,4.4292,4.6295,4.6774,4.6972,4.6972,4.7317,4.7567,4.7728,4.7728,4.777,4.7929,4.7884,4.7861,4.7861,4.7759,4.7826,4.8025,4.7808,4.7844,4.8025,4.7808,4.7717,4.7717,4.7717,4.7717,4.7717,4.7717,4.7717,4.7717,4.7717,4.7717,4.7609,4.7029,4.683,4.6685,4.587,4.5635,4.5454,4.4657,4.4421,4.424,4.3425,4.3226,4.321,4.3048,4.3049,4.3049,4.3105,4.3123,4.3123,4.3178,4.3178,4.3178,4.3178,4.3178,4.3142,4.3123,4.3123,4.3123,4.3196,4.3178,4.296,4.2359,4.1558,4.1032,4.0979,4.0253,3.9765,3.9713,3.9152,3.8826,3.8826,3.8826,3.8826,3.8826,3.8826,3.9115,3.9695,3.9695,4.0093,4.0854,4.0854,4.127,0.0,0.0,2.7515,2.8947,3.0843,3.2505,3.3136,3.4368,3.5214,3.4568,3.4999,3.5276,3.4629,3.506,3.5507,3.5507,3.6576,3.7417,3.7417,3.8479,3.9206,3.9206,3.9747,4.0138,0.0,4.0337,4.1329,4.3367,4.3374,4.4195,4.6295,4.6371,4.631,4.631,4.6341,4.6548,4.6954,4.6954,4.7196,4.7699,4.7717,4.7717,4.7717,4.7717,4.8134,4.884,4.8043,4.8152,4.8822,4.8025,4.7717,4.7717,4.7717,4.7717,4.7717,4.7717,4.7717,4.7717,4.7717,4.7717,4.7717,4.7681,4.7663,4.7518,4.6721,4.6468,4.6305,4.549,4.5254,4.5073,4.4258,4.4059,4.386,4.3081,4.29,4.29,4.292,4.292,4.2938,4.3067,4.3104,4.3104,4.3104,4.3104,4.3049,4.2938,4.292,4.2975,4.316,4.316,4.3086,4.3068,4.2213,4.1687,4.1687,4.0944,4.0474,4.0474,4.0456,4.0437,4.0437,4.0437,4.0437,4.0437,4.0437,4.0456,4.0474,4.0474,4.089,4.1669,4.1669,4.2103,0.0,0.0,3.0225,3.1666,3.326,3.4506,3.4722,3.5153,3.5414,3.5183,3.486,3.4416,3.3856,3.4224,3.4649,3.4796,3.5888,3.688,3.7354,3.8423,3.9206,3.9206,3.9747,0.0,0.0,0.0,0.0,4.2569,4.2637,4.339,4.5093,4.5459,4.5665,4.5665,4.595,4.6213,4.6358,4.6358,4.6719,4.7358,4.7926,4.8143,4.8143,4.8143,4.8285,4.8533,4.8267,4.8241,4.8299,4.803,4.7813,4.7717,4.7717,4.7717,4.7717,4.7717,4.7717,4.7717,4.7717,4.7717,4.7717,4.7717,4.7717,4.7663,4.7391,4.7301,4.7138,4.6323,4.6106,4.5906,4.511,4.4892,4.4693,4.3878,4.3697,4.3534,4.3009,4.2882,4.292,4.2938,4.2956,4.2956,4.2956,4.2956,4.2938,4.29,4.2882,4.292,4.2995,4.2975,4.2956,4.2956,4.2702,4.2502,4.2502,4.1778,4.1307,4.1307,4.0818,4.051,4.051,4.051,4.051,4.051,4.051,4.0782,4.1307,4.1307,4.1723,4.2502,4.2502,4.2629,2.9002,3.0693,3.2026,3.3752,3.4814,3.5476,3.5476,3.5476,3.5336,3.4756,3.3839,3.3022,3.2625,3.2485,3.285,3.4229,3.5106,3.6042,3.7243,3.8423,3.9152,3.892,3.9809,0.0,0.0,0.0,0.0,4.2219,4.254,4.325,4.4502,4.4906,4.5035,4.5035,4.5372,4.577,4.6253,4.6253,4.6722,4.7627,4.8171,4.8416,4.8416,4.8416,4.8557,4.8802,4.8539,4.843,4.8498,4.7931,4.7654,4.7501,4.7214,4.7107,4.7151,4.7345,4.7407,4.745,4.7615,4.7717,4.7717,4.7717,4.7717,4.7717,4.7717,4.7717,4.7609,4.7083,4.6939,4.6739,4.5943,4.5725,4.5526,4.4711,4.453,4.4385,4.386,4.3516,4.3317,4.3317,4.3081,4.2882,4.2882,4.2882,4.2882,4.2882,4.2882,4.2882,4.2882,4.2882,4.2882,4.2882,4.2882,4.2882,4.2882,4.2429,4.214,4.214,4.1651,4.1361,4.1361,4.1361,4.1361,4.1361,4.1361,4.1615,4.214,4.214,4.2393,4.2882,4.2882,4.2882,3.0693,3.1873,3.3029,3.5029,3.5507,3.5476,3.5476,3.5428,3.4868,3.3278,3.2033,3.1114,0.0,0.0,3.0401,3.3603,3.4209,3.5031,3.7058,3.8399,3.8969,0.0,0.0,0.0,0.0,0.0,0.0,4.2354,0.0,4.3758,4.4536,4.4587,4.4587,4.4587,4.4621,4.5239,4.6473,4.6559,4.7155,4.8382,4.8417,4.8435,4.8435,4.8435,4.8802,4.9432,4.8732,4.8802,4.9345,4.7856,4.7259,4.7101,4.6449,4.6133,4.6165,4.666,4.6863,4.6908,4.745,4.7657,4.7717,4.7717,4.7717,4.7717,4.7717,4.7717,4.7699,4.7675,4.7657,4.7536,4.6716,4.6517,4.6359,4.5544,4.5363,4.5345,4.5309,4.4693,4.415,4.415,4.3498,4.2936,4.29,4.2882,4.2882,4.2882,4.2882,4.2882,4.2882,4.2882,4.2882,4.2882,4.2882,4.2882,4.2882,4.2882,4.2882,4.2882,4.2882,4.2882,4.2882,4.2882,4.2882,4.2882,4.2882,4.2882,4.2882,4.2882,4.2882,4.2844,4.2882,4.2882,3.1588,3.3356,3.4937,3.5984,3.5861,3.5476,3.5476,3.412,3.2569,3.1331,2.9784,2.8259,0.0,0.0,0.0,3.1151,3.3082,0.0,3.6507,3.7799,0.0,0.0,0.0,4.1481,4.1963,4.2692,0.0,0.0,4.3301,4.3758,4.4536,4.4587,4.4587,4.4587,4.5128,4.5557,4.5915,4.702,4.7724,4.8012,4.8558,4.8813,4.8813,4.8813,4.8975,4.9146,4.8958,4.8884,4.8851,4.847,4.7891,4.7154,4.6961,4.659,4.6116,4.6244,4.631,4.631,4.6454,4.7017,4.7717,4.7717,4.7717,4.7717,4.7717,4.7717,4.7615,4.7214,4.7407,4.756,4.6962,4.7101,4.7192,4.6395,4.6196,4.6033,4.5436,4.5146,4.4983,4.4983,4.4331,4.3588,4.2991,4.2882,4.2882,4.2882,4.2882,4.2882,4.2882,4.2882,4.2882,4.2882,4.2882,4.2882,4.2882,4.2882,4.2882,4.2882,4.2882,4.2882,4.2882,4.2882,4.2882,4.2882,4.2882,4.2882,4.2882,4.2882,4.2711,4.2378,4.2729,4.2537,3.3207,3.4829,3.6014,3.6399,3.5984,3.5168,3.3967,3.2423,3.0736,2.8839,2.724,0.0,0.0,0.0,0.0,0.0,0.0,0.0,3.658,3.8002,3.885,0.0,4.0606,0.0,4.2306,4.3288,4.3927,0.0,4.3927,4.4113,4.4553,4.4587,4.4722,4.506,4.5483,4.6024,4.6667,4.7817,4.8392,4.8409,4.8798,4.9001,4.9001,4.9001,4.9001,4.9001,0.0,4.8931,4.8787,4.8463,4.8026,4.7427,4.6771,4.6306,4.5891,4.5787,4.5749,4.58,4.6,4.6501,4.6999,4.6999,4.6999,4.6999,4.6999,4.6999,4.6954,4.666,4.6771,4.6908,4.6613,4.6753,4.6892,4.6445,4.6338,4.6212,4.5765,4.5556,4.5444,4.5323,4.4639,4.3951,4.3498,4.3118,4.2882,4.2882,4.2882,4.2882,4.2882,4.2882,4.2882,4.2882,4.2882,4.2882,4.2882,4.2882,4.2882,4.2882,4.2882,4.2882,4.2882,4.2882,4.2806,4.2595,4.2595,4.2498,4.2279,4.2279,4.2139,4.1888,4.2139,4.2015,3.4908,3.5968,3.6476,3.6384,3.5784,3.4506,3.1859,3.0535,2.9098,2.6204,0.0,0.0,2.4304,0.0,2.5737,3.0179,0.0,3.3461,3.6825,3.8348,3.9022,3.8586,4.0815,4.2468,4.2526,4.3809,4.4587,4.4587,4.4587,4.4587,4.4587,4.4587,4.4976,4.5821,4.594,4.6667,4.8054,4.8697,4.9001,4.9001,4.9001,4.9001,4.9001,4.9001,4.9001,4.9001,0.0,0.0,4.8951,4.8325,4.8003,4.7784,4.6498,4.5872,4.5676,4.5429,4.53,4.5267,4.5716,4.5918,4.5918,4.6067,4.6098,4.6098,4.6098,4.6098,4.6116,4.6,4.6067,4.6098,4.6,4.6067,4.6098,4.6098,4.6098,4.6098,4.6098,4.5923,4.5641,4.5317,4.4696,4.4155,4.3956,4.3325,4.2838,4.2729,4.2768,4.2806,4.2806,4.2844,4.2882,4.2882,4.2882,4.2882,4.2882,4.2882,4.2882,4.2882,4.2882,4.2882,4.2882,4.2844,4.2634,4.2198,4.2157,4.1888,4.1481,4.1481,4.1481,4.141,4.1481,4.1437,3.4957,3.5753,3.6136,3.5784,3.4706,3.3198,3.1021,2.8881,0.0,0.0,0.0,2.1848,2.1075,2.2716,0.0,2.8401,0.0,0.0,0.0,0.0,3.8809,0.0,0.0,0.0,0.0,0.0,0.0,0.0,0.0,0.0,4.4587,4.4587,4.5196,4.6566,4.7208,4.7953,4.8798,4.8951,4.9001,4.9001,4.9001,4.9001,4.9001,4.9001,4.9001,4.9001,0.0,0.0,4.8984,4.8866,4.846,4.7885,4.7631,4.6786,4.5686,4.5648,4.5247,4.472,4.4814,4.4869,4.5015,4.5817,4.6098,4.6098,4.6098,4.6098,4.6,4.5545,4.5749,4.6,4.5545,4.5749,4.6098,4.6098,4.6098,4.6098,4.6098,4.6042,4.5822,4.5094,4.4876,4.4382,4.3094,4.2758,4.2458,4.1849,4.2056,4.2338,4.2338,4.2673,4.2882,4.2882,4.2882,4.2882,4.2882,4.2882,4.2882,4.2882,4.2882,4.2882,4.2882,4.2555,4.2279,4.2198,4.1803,4.1569,4.1481,4.1481,4.1321,4.0926,4.1321,4.1094,3.5276,3.5904,3.6043,3.5508,3.4355,3.2542,2.9134,0.0,0.0,0.0,0.0,2.0025,1.9792,0.0,0.0,0.0,0.0,0.0,0.0,0.0,0.0,0.0,0.0,0.0,0.0,0.0,0.0,0.0,0.0,0.0,4.457,4.5314,4.6058,4.6769,4.7902,4.8646,4.9001,4.9001,4.9001,4.9001,4.9001,4.9001,4.9001,4.9001,4.9001,4.9001,4.9001,0.0,4.9001,4.9001,4.8798,4.8443,4.8071,4.7242,4.6227,4.5838,4.5229,4.4587,4.4587,4.4587,4.4682,4.5159,4.5302,4.5302,4.5302,4.5302,4.5249,4.4998,4.5142,4.5249,4.4998,4.5142,4.5302,4.5302,4.5302,4.539,4.5614,4.5699,4.5645,4.5576,4.5172,4.4664,4.391,4.3454,4.2928,4.2156,4.2273,4.2263,4.1813,4.1931,4.2279,4.2844,4.2882,4.2882,4.2882,4.2882,4.2882,4.2882,4.2882,4.275,4.244,4.2221,4.1828,4.1258,4.103,4.0814,4.0577,4.0577,4.0449,4.0237,4.0449,4.0319,3.5334,3.5915,3.5934,3.5187,3.4081,3.1956,2.7379,2.5315,0.0,0.0,0.0,1.8779,1.9281,0.0,0.0,0.0,0.0,0.0,0.0,0.0,0.0,0.0,0.0,0.0,0.0,0.0,0.0,0.0,0.0,0.0,0.0,4.5991,4.6786,4.6786,4.824,4.9001,4.9001,4.9001,4.9001,4.9001,4.9001,4.9001,4.9001,4.9001,4.9001,4.9001,4.9001,0.0,0.0,4.9001,4.9001,4.8951,4.8376,4.7682,4.6955,4.621,4.5466,4.479,4.4621,4.4587,4.4587,4.4587,4.4587,4.4587,4.4587,4.4587,4.4587,4.4587,4.4587,4.4587,4.4587,4.4587,4.4587,4.4587,4.457,4.4665,4.5072,4.5108,4.5161,4.5614,4.5161,4.4692,4.4535,4.3947,4.3287,4.2541,4.2532,4.23,4.147,4.1411,4.1745,4.2458,4.2519,4.2519,4.2519,4.2519,4.2519,4.2519,4.2519,4.2302,4.1853,4.1725,4.1286,4.04,4.0319,4.0087,3.9677,3.9677,3.9677,3.9677,3.9677,3.9677,3.4437,3.5299,3.5513,3.4546,3.3307,3.1134,2.6557,0.0,0.0,0.0,1.85,1.8655,1.9132,1.9815,0.0,0.0,0.0,0.0,0.0,0.0,0.0,0.0,0.0,0.0,0.0,0.0,0.0,0.0,0.0,0.0,0.0,4.5991,4.6786,4.6786,4.824,4.9001,4.9001,4.9001,4.9001,4.9001,4.9001,4.9001,4.9001,4.9001,4.9001,4.9001,0.0,0.0,0.0,4.9001,4.9001,4.9001,4.8934,4.846,4.7733,4.6972,4.6227,4.55,4.4823,4.4587,4.4587,4.4587,4.4587,4.4587,4.4587,4.4587,4.4587,4.4587,4.4587,4.4587,4.4587,4.4587,4.4587,4.4587,4.444,4.4367,4.4626,4.444,4.4253,4.4463,4.4299,4.399,4.33,4.3132,4.2829,4.2068,4.2326,4.2347,4.1577,4.1864,4.1917,4.1338,4.1268,4.1268,4.1268,4.1268,4.1268,4.1268,4.1268,4.1223,4.1178,4.0797,4.048,4.04,4.0003,3.9713,3.9677,3.9677,3.9677,3.9677,3.9677,3.9677,3.2856,3.3928,3.4401,3.4,3.246,2.9939,2.576,0.0,2.1064,1.8207,1.7679,1.7868,1.8291,1.8814,1.9951,2.2337,2.3393,2.5227,0.0,0.0,0.0,0.0,0.0,0.0,0.0,0.0,0.0,0.0,0.0,0.0,0.0,4.5119,4.6196,4.6196,4.7617,4.8576,4.9001,4.9001,4.8798,4.837,4.8798,4.8798,4.837,4.8798,4.9001,4.9001,0.0,0.0,0.0,4.7836,4.7704,4.7704,4.7704,4.7471,4.7154,4.6402,4.5941,4.5527,4.4373,4.3914,4.3839,4.3469,4.335,4.3469,4.4327,4.4587,4.4587,4.4587,4.4587,4.457,4.444,4.4384,4.4286,4.4286,4.4212,4.4212,4.427,4.4212,4.4097,4.4155,4.4155,4.4013,4.3712,4.3662,4.3411,4.2674,4.269,4.253,4.1752,4.1794,4.1577,4.0764,4.0913,4.1087,4.1087,4.1087,4.1087,4.1087,4.1087,4.0949,4.059,4.0383,4.0103,3.9747,3.9556,3.9484,3.9484,3.9484,3.9484,3.9484,3.9484,3.9718,3.0863,3.2115,3.2771,3.2579,3.1014,2.8502,0.0,0.0,2.0075,1.7509,1.7073,1.7282,1.772,1.8068,1.8838,2.0589,2.1465,2.317,2.6743,0.0,0.0,0.0,0.0,0.0,0.0,0.0,0.0,0.0,0.0,0.0,0.0,4.3686,4.4964,4.5794,4.7411,4.845,4.9001,4.8781,4.8433,4.7885,4.8177,4.8177,4.7885,4.8242,4.845,4.8656,0.0,0.0,0.0,4.7017,4.6811,4.6811,4.6811,4.6662,4.6437,4.5911,4.5467,4.4983,4.3922,4.3394,4.3136,4.2629,4.2458,4.2645,4.3621,4.3931,4.3931,4.3931,4.3873,4.3798,4.3663,4.3545,4.3502,4.3502,4.3443,4.3443,4.3443,4.3383,4.3383,4.3654,4.3654,4.373,4.3923,4.3923,4.3797,4.328,4.3196,4.2889,4.2059,4.192,4.1621,4.0763,4.1002,4.1023,4.0577,4.059,4.059,4.059,4.059,4.0366,3.9952,3.9902,3.9731,3.9325,3.9272,3.9272,3.9272,3.9272,3.9272,3.9342,3.9487,3.9984,2.829,2.9704,3.0496,3.0059,2.8876,2.6891,0.0,2.1534,1.9849,1.7466,1.7002,1.7157,1.772,1.7787,1.8314,1.9864,2.1295,2.3511,2.7263,0.0,0.0,0.0,0.0,0.0,0.0,0.0,0.0,0.0,0.0,0.0,0.0,4.1663,4.3206,4.5715,4.7883,4.9001,4.9001,4.8306,4.7885,4.7885,4.7153,4.7221,4.7885,4.7153,4.7221,0.0,0.0,0.0,0.0,4.6811,4.6811,4.6811,4.6811,4.6374,4.5826,4.5726,4.4836,4.3686,4.3638,4.3136,4.252,4.252,4.2395,4.2332,4.2332,4.2332,4.2332,4.2332,4.2189,4.2062,4.1997,4.1997,4.1997,4.1997,4.1853,4.1788,4.1997,4.1755,4.1771,4.2661,4.2694,4.2851,4.3492,4.3628,4.3628,4.3611,4.3611,4.3346,4.2601,4.2502,4.222,4.1475,4.1392,4.0812,3.9441,3.9325,3.9325,3.9325,3.9325,3.9325,3.9325,3.9325,3.9325,3.9272,3.9272,3.9272,3.9272,3.9272,3.9272,3.9342,4.0034,4.0746,2.4532,2.5782,2.6641,2.6553,2.5308,2.3499,2.1485,1.9509,1.7849,1.6982,1.6595,1.657,1.7144,1.7516,1.859,2.1225,2.2279,0.0,0.0,0.0,0.0,0.0,0.0,0.0,0.0,0.0,0.0,0.0,0.0,0.0,0.0,0.0,4.2853,4.4642,4.5346,4.6329,4.7852,4.7088,4.6486,4.6008,4.6276,4.6276,4.6008,4.6276,0.0,0.0,0.0,0.0,0.0,4.5421,4.529,4.529,4.529,4.5498,4.5658,4.5126,4.4994,4.4867,4.3221,4.2544,4.2208,4.1164,4.0752,4.0768,4.0768,4.1377,4.2062,4.2062,4.1933,4.1788,4.1788,4.1755,4.1641,4.1641,4.1641,4.1575,4.1641,4.1575,4.1591,4.1836,4.1852,4.1917,4.211,4.2569,4.2912,4.2912,4.3295,4.3545,4.3297,4.328,4.2999,4.2253,4.217,4.1591,4.015,4.0034,4.0034,4.0034,4.0034,4.0249,4.0713,4.0746,4.0746,4.0746,4.0746,4.0746,4.0746,4.0746,4.0746,4.0746,4.1491,4.1955,0.0,2.22,2.291,2.2964,2.1957,2.0654,1.9573,1.8046,1.6757,1.6473,1.638,1.6398,1.6625,1.7047,1.815,2.0398,2.1639,0.0,0.0,0.0,0.0,0.0,0.0,0.0,0.0,0.0,0.0,0.0,0.0,0.0,0.0,0.0,4.1736,4.3184,4.3848,4.4862,4.6462,4.5789,4.5309,4.511,4.53,4.53,4.511,4.53,0.0,0.0,0.0,0.0,0.0,4.4496,4.4358,4.4328,4.4083,4.4262,4.4616,4.4138,4.4141,4.4062,4.2949,4.2209,4.1573,4.0308,3.9501,3.8914,3.8826,3.9929,4.1095,4.1028,4.0743,4.0454,4.0758,4.0554,4.0347,4.0668,4.0737,4.0737,4.0737,4.0737,4.0805,4.106,4.1127,4.1194,4.1459,4.1852,4.219,4.219,4.2506,4.2912,4.3174,4.3235,4.3131,4.2923,4.2932,4.2469,4.1293,4.0928,4.0763,4.0763,4.0763,4.0961,4.1392,4.1409,4.1409,4.1409,4.1409,4.1409,4.1409,4.1409,4.1558,4.1839,4.2303,4.2667,0.0,1.8952,0.0,0.0,1.8923,1.8287,1.7642,1.6977,0.0,1.6009,1.6262,1.6504,1.6268,1.6627,1.7274,1.8303,0.0,0.0,0.0,0.0,0.0,0.0,0.0,0.0,0.0,0.0,0.0,0.0,0.0,0.0,0.0,0.0,4.0039,4.1417,4.3005,4.4234,4.4984,4.4315,4.4226,4.4822,4.4113,4.422,4.4884,4.419,0.0,0.0,0.0,0.0,0.0,4.3988,4.3988,4.3927,4.3305,4.3062,4.3062,4.3062,4.2531,4.1941,4.2622,4.1911,4.0676,3.9802,3.8442,3.7127,3.6958,3.813,3.9451,3.925,3.8649,3.8277,3.9031,3.8649,3.8277,3.9031,3.9192,3.9192,3.9192,3.9265,3.9538,4.02,4.0409,4.0615,4.126,4.1393,4.1459,4.1459,4.1459,4.1722,4.2443,4.2522,4.2772,4.3355,4.3432,4.3152,4.2475,4.1848,4.1491,4.1491,4.1491,4.1508,4.1574,4.1574,4.1574,4.1574,4.1574,4.1574,4.1574,4.1574,4.1922,4.2601,4.2601,4.2965,1.3952,0.0,1.6674,1.6301,1.6079,1.5892,0.0,1.5314,1.5005,1.5267,0.0,0.0,1.7046,1.7322,0.0,0.0,0.0,0.0,0.0,0.0,0.0,0.0,0.0,0.0,0.0,0.0,0.0,0.0,0.0,0.0,0.0,0.0,3.9556,3.9922,4.033,4.1367,4.308,4.2432,4.2108,4.2274,4.2062,4.2394,4.303,4.2814,0.0,0.0,0.0,0.0,4.3754,4.391,4.3988,4.3972,4.3821,4.3745,4.3745,4.3745,4.2889,4.1674,4.1163,4.0051,3.8678,3.7882,3.7317,3.6958,3.688,3.719,3.7587,3.751,3.7357,3.7281,3.7448,3.7357,3.7281,3.7434,3.751,3.751,3.751,3.8008,3.8501,3.8708,3.9235,3.9681,3.9879,4.0339,4.0737,4.0737,4.1194,4.1591,4.1722,4.1787,4.1852,4.1981,4.1981,4.1917,4.1741,4.2043,4.2253,4.2253,4.2253,4.2518,4.3081,4.3098,4.3098,4.3098,4.3098,4.3098,4.3098,4.3098,4.3197,4.3363,4.3363,4.3446,1.2514,1.3779,1.4909,1.4707,1.4642,1.469,1.4974,0.0,0.0,0.0,0.0,0.0,0.0,0.0,0.0,0.0,0.0,0.0,0.0,0.0,0.0,0.0,0.0,0.0,0.0,0.0,0.0,0.0,0.0,0.0,0.0,0.0,3.9424,3.9424,3.9424,4.0106,4.1511,4.1129,4.1085,4.1384,4.1384,4.1564,4.1908,4.1908,0.0,0.0,0.0,0.0,4.2709,4.3087,4.3104,4.2833,4.2833,4.3029,4.3178,4.2428,4.1858,4.1266,4.0423,3.8984,3.7418,3.6633,3.6042,3.5642,3.5642,3.5548,3.5615,3.6646,3.666,3.6425,3.6802,3.666,3.6425,3.6802,3.688,3.688,3.688,3.7295,3.7615,3.7615,3.7933,3.8397,3.8811,3.9147,3.9565,3.995,4.027,4.0668,4.1008,4.106,4.1127,4.1459,4.1525,4.1525,4.1525,4.182,4.2187,4.2507,4.2838,4.3214,4.3611,4.3628,4.3628,4.3628,4.3628,4.3628,4.3628,4.3628,4.3628,4.3628,4.3628,4.3628,1.2142,1.3036,1.3779,1.3932,1.4002,1.4173,1.4633,0.0,0.0,0.0,0.0,0.0,0.0,0.0,0.0,0.0,0.0,0.0,0.0,0.0,0.0,0.0,0.0,0.0,0.0,0.0,0.0,0.0,0.0,0.0,0.0,0.0,0.0,3.9424,3.9424,3.9679,4.0173,4.0247,4.0531,4.1085,4.1085,4.113,4.1235,4.1235,4.128,0.0,0.0,0.0,4.1429,4.1983,4.1801,4.1217,4.1322,4.1617,4.1784,4.0394,4.0133,4.0316,3.9145,3.7675,3.6114,3.5412,3.4607,3.381,3.3628,3.3445,3.3661,3.548,3.5682,3.5575,3.6253,3.5883,3.5575,3.6267,3.6489,3.6489,3.6489,3.6646,3.6738,3.6738,3.6802,3.7127,3.7872,3.8052,3.8352,3.9031,3.9265,3.961,4.0285,4.0355,4.0547,4.1127,4.1194,4.1194,4.1194,4.126,4.1591,4.2253,4.2912,4.3295,4.3295,4.3295,4.3295,4.3295,4.3295,4.3295,4.3295,4.3295,4.3295,4.3295,4.3295,4.3355,1.0853,1.1983,1.3171,1.3313,1.363,1.3862,1.3555,0.0,0.0,0.0,0.0,0.0,0.0,0.0,0.0,0.0,0.0,0.0,0.0,0.0,0.0,0.0,0.0,0.0,0.0,0.0,0.0,0.0,0.0,0.0,0.0,0.0,0.0,3.9424,3.9424,3.9382,3.9326,3.9486,3.9619,3.9723,3.9723,4.0008,4.0546,4.0546,4.0846,0.0,0.0,4.1384,4.1384,4.1489,4.1047,4.0354,4.0844,4.0608,3.9829,3.9564,3.8657,3.7209,3.5247,3.4393,3.3985,3.3104,3.2735,3.2389,3.1541,3.1264,3.134,3.1656,3.2845,3.4037,3.4191,3.4121,3.4134,3.4468,3.4551,3.4551,3.4786,3.5345,3.5896,3.5896,3.6425,3.688,3.688,3.7462,3.7947,3.8069,3.8708,3.925,3.9553,3.9553,3.961,3.9681,3.9753,3.9753,3.9753,4.027,4.0668,4.0805,4.1459,4.1852,4.1852,4.1852,4.1852,4.1852,4.1852,4.1852,4.1852,4.1852,4.1852,4.1852,4.1852,4.219,1.0217,1.1063,1.1953,1.2504,1.3314,1.4007,1.408,0.0,0.0,0.0,0.0,0.0,0.0,0.0,0.0,0.0,0.0,0.0,0.0,0.0,0.0,0.0,0.0,0.0,0.0,0.0,0.0,0.0,0.0,0.0,0.0,0.0,0.0,0.0,3.9104,3.9017,3.8943,3.9017,3.9104,3.9104,3.9177,3.9341,3.955,3.955,3.9713,3.9995,0.0,3.9995,4.0025,3.9883,3.9412,3.8687,3.8908,3.8664,3.8172,3.7687,3.6766,3.5422,3.4165,3.336,3.2834,3.2488,3.1853,3.1211,3.0754,3.0574,3.0496,3.0496,3.1288,3.2166,3.2166,3.2166,3.2166,3.2265,3.2352,3.2525,3.3177,3.3577,3.3985,3.4524,3.491,3.5305,3.5695,3.6108,3.6503,3.6852,3.742,3.7904,3.8308,3.8486,3.8723,3.9031,3.9104,3.9104,3.9104,3.9364,3.9975,4.0992,4.1327,4.1525,4.1525,4.1525,4.1525,4.1525,4.1525,4.1525,4.1525,4.1525,4.1444,4.1362,4.1444,4.1781,0.9752,1.0323,1.088,1.1609,0.0,1.3838,1.4501,1.4762,0.0,0.0,0.0,0.0,0.0,0.0,0.0,0.0,0.0,0.0,0.0,0.0,0.0,0.0,0.0,0.0,0.0,0.0,0.0,0.0,0.0,0.0,0.0,0.0,0.0,0.0,3.8782,3.8797,3.8723,3.8797,3.8782,3.8782,3.8943,3.8943,3.8782,3.8782,3.8782,3.8782,3.8546,3.8472,3.8501,3.8102,3.7537,3.6936,3.693,3.6757,3.6441,3.5801,3.48,3.3795,3.3354,3.2575,3.1765,3.15,3.0866,3.0056,2.9772,2.9612,2.9555,2.9667,2.9851,3.0159,3.0586,3.0652,3.0652,3.073,3.073,3.092,3.1753,3.2115,3.2476,3.3189,3.3543,3.3869,3.4511,3.4746,3.5142,3.5748,3.6146,3.6724,3.7434,3.7706,3.8023,3.8708,3.8782,3.8782,3.8782,3.8782,3.9406,4.0774,4.0909,4.0925,4.0842,4.0992,4.0992,4.0842,4.0909,4.0909,4.0842,4.0842,4.0851,4.0854,4.1007,4.1364,0.9292,0.9872,1.0418,1.0636,1.1784,0.0,1.3638,1.4596,0.0,1.6179,0.0,0.0,0.0,0.0,0.0,0.0,0.0,0.0,0.0,0.0,0.0,0.0,0.0,0.0,0.0,0.0,0.0,0.0,0.0,0.0,0.0,0.0,0.0,0.0,0.0,3.8723,3.8516,3.8723,3.8782,3.8782,3.8782,3.8782,3.8782,3.8782,3.8782,3.8782,3.7919,3.7601,3.751,3.6738,3.5869,3.5196,3.5742,3.5417,3.451,3.4148,3.3107,3.1849,3.1813,3.1169,3.017,2.9257,2.8899,2.8631,2.7809,2.7536,2.762,2.7942,2.8056,2.8423,2.992,3.0249,3.0249,3.0496,3.0485,3.0574,3.0819,3.1653,3.2302,3.2389,3.3104,3.3628,3.3556,3.4217,3.4703,3.4828,3.5453,3.6332,3.7357,3.7525,3.7843,3.8708,3.8782,3.8782,3.8782,3.8782,3.8855,3.9002,3.9147,3.922,3.8987,3.9379,3.9394,3.8987,3.9147,3.9147,3.8987,3.8987,3.9313,3.9936,3.9936,4.0621,0.8912,0.9365,0.9826,1.0675,1.1985,0.0,0.0,1.5411,1.703,1.8182,0.0,0.0,0.0,0.0,0.0,0.0,0.0,0.0,0.0,0.0,0.0,0.0,0.0,0.0,0.0,0.0,0.0,0.0,0.0,0.0,0.0,0.0,0.0,0.0,0.0,3.8427,3.8277,3.8352,3.8427,3.8427,3.8575,3.8575,3.8427,3.8427,3.8098,3.763,3.7309,3.683,3.6253,3.5386,3.4924,3.4564,3.4296,3.3789,3.3208,3.2445,3.1858,3.1235,3.0508,2.959,2.8669,2.8308,2.7778,2.7336,2.7071,2.7277,2.7513,2.7775,2.8131,2.8505,2.9085,2.9225,2.9225,2.931,2.931,2.9502,3.0253,3.0631,3.1286,3.2563,3.2772,3.3019,3.3571,3.3712,3.3725,3.3725,3.4037,3.4795,3.5953,3.6185,3.6661,3.7763,3.838,3.871,3.871,3.9271,3.9609,3.9609,3.9164,3.887,3.8782,3.8943,3.8943,3.8782,3.887,3.9077,3.9416,3.9416,3.9679,4.0158,4.0312,4.0728,0.8679,0.8954,0.9387,0.0,0.0,0.0,1.3839,1.6105,1.835,1.9375,0.0,0.0,0.0,0.0,0.0,0.0,0.0,0.0,0.0,0.0,0.0,0.0,0.0,0.0,0.0,0.0,0.0,0.0,0.0,0.0,0.0,0.0,0.0,0.0,0.0,0.0,3.8202,3.8202,3.8202,3.8142,3.8217,3.8292,3.8202,3.8202,3.772,3.6858,3.6531,3.5869,3.5061,3.4121,3.3725,3.3641,3.2785,3.2264,3.1989,3.0956,3.0395,3.0022,2.9212,2.8297,2.7474,2.7474,2.703,2.6592,2.6805,2.7196,2.7662,2.7914,2.8384,2.8866,2.891,2.8724,2.8618,2.8618,2.8618,2.8807,2.949,2.9894,3.0555,3.1864,3.2333,3.275,3.3498,3.3658,3.3596,3.3596,3.3757,3.4219,3.5344,3.5568,3.6069,3.7138,3.7853,3.8269,3.8269,3.8844,3.9344,3.9679,3.9093,3.8847,3.8883,3.9223,3.9238,3.8958,3.9148,3.9486,3.985,3.985,4.011,4.0581,4.0754,4.1025,0.8564,0.8756,0.0,0.0,0.0,0.0,1.3549,1.6632,1.9316,1.9314,0.0,0.0,0.0,0.0,0.0,0.0,0.0,0.0,0.0,0.0,0.0,0.0,0.0,0.0,0.0,0.0,0.0,0.0,0.0,0.0,0.0,0.0,0.0,0.0,0.0,0.0,3.8202,3.8202,3.8066,3.7853,3.7853,3.8005,3.8202,3.8202,3.772,3.6844,3.5709,3.4802,3.3901,3.2871,3.2388,3.23,3.127,3.0902,3.08,2.9784,2.8751,2.7913,2.7913,2.7295,2.6496,2.6496,2.6496,2.6506,2.6805,2.7196,2.7645,2.8005,2.8655,2.9312,2.9546,2.9096,2.8628,2.8628,2.8628,2.8628,2.8628,2.9413,3.0101,3.0101,3.1685,3.3083,3.3083,3.3949,3.4726,3.4726,3.4713,3.497,3.5895,3.5983,3.6332,3.7205,3.7277,3.7277,3.7277,3.7277,3.7699,3.8613,3.8695,3.8847,3.9156,4.0202,4.0231,3.9218,3.9955,4.0261,4.0104,4.0104,4.0452,4.1105,4.1105,4.1468,0.8564,0.0,0.0,0.0,0.0,0.0,0.0,1.6665,0.0,0.0,0.0,0.0,0.0,0.0,0.0,0.0,0.0,0.0,0.0,0.0,0.0,0.0,0.0,0.0,0.0,0.0,0.0,0.0,0.0,0.0,0.0,0.0,0.0,0.0,0.0,0.0,3.8202,3.8202,3.781,3.7028,3.7028,3.7275,3.7763,3.7106,3.6373,3.5548,3.4568,3.3674,3.2871,3.2562,3.1837,3.1092,3.0902,3.0339,2.9418,2.8505,2.7955,2.7579,2.6648,2.6197,2.582,2.5099,2.4786,2.4688,2.4187,2.4565,2.5124,2.5441,2.6731,2.7989,2.8009,2.87,2.9363,2.958,2.9591,2.9591,2.9591,2.9786,3.0289,3.0969,3.1373,3.1716,3.2503,3.3148,3.3557,3.3557,3.4235,3.4942,3.5593,3.5973,3.6399,3.6662,3.7299,3.7646,3.7646,3.8255,3.8768,3.9015,3.9015,3.9257,3.9793,4.008,4.0173,3.9828,4.0095,4.0415,4.08,4.08,4.1149,4.1802,4.1802,4.1903,0.8293,0.0,0.0,0.0,0.0,0.0,0.0,0.0,0.0,0.0,0.0,0.0,0.0,0.0,0.0,0.0,0.0,0.0,0.0,0.0,0.0,0.0,0.0,0.0,0.0,0.0,0.0,0.0,0.0,0.0,0.0,0.0,0.0,0.0,0.0,0.0,3.7601,3.7286,3.6852,3.6373,3.5949,3.5963,3.6294,3.5963,3.5318,3.4415,3.342,3.2686,3.2113,3.1661,3.1092,3.0351,2.9692,2.8947,2.8215,2.721,2.6849,2.6754,2.6014,2.543,2.4913,2.4295,2.3791,2.3384,2.2985,2.3425,2.4018,2.4219,2.5423,2.6707,2.6499,2.7257,2.8339,2.9554,2.9889,2.9994,2.9994,2.9994,3.0193,3.0888,3.1051,3.135,3.195,3.2672,3.3327,3.3707,3.4681,3.5491,3.583,3.6157,3.6358,3.6358,3.6909,3.7268,3.7268,3.7795,3.8225,3.8599,3.8689,3.8972,3.9688,3.9742,3.9808,3.992,4.0216,4.0723,4.1497,4.1497,4.17,4.2092,4.2092,4.2092,0.0,0.0,0.0,0.0,0.0,0.0,0.0,0.0,0.0,0.0,0.0,0.0,0.0,0.0,0.0,0.0,0.0,0.0,0.0,0.0,0.0,0.0,0.0,0.0,0.0,0.0,0.0,0.0,0.0,0.0,0.0,0.0,0.0,0.0,0.0,0.0,3.6507,3.5711,3.5462,0.0,3.4804,3.4323,3.4056,3.4568,3.4319,3.342,3.2438,3.1849,3.1472,3.0543,3.0068,2.9795,2.7934,2.7094,2.6914,2.5907,2.5528,2.5538,2.543,2.4815,2.3989,2.389,2.3194,2.2391,2.2492,2.3117,2.3605,2.3605,2.4459,2.5261,2.5067,2.527,2.6245,2.8774,2.9554,2.9774,2.9889,2.9994,2.9994,2.9994,3.0785,3.1483,3.1483,3.2387,3.3487,3.4581,3.5667,3.6358,3.6358,3.6358,3.6358,3.6358,3.6358,3.6358,3.6358,3.6358,3.6722,3.7625,3.7625,3.8069,3.8944,3.9121,3.9303,3.9648,4.0152,4.0887,4.1829,4.1829,4.1829,4.1829,4.1829,4.1829,0.0,0.9048,0.0,0.0,0.0,0.0,0.0,0.0,0.0,0.0,0.0,0.0,0.0,0.0,0.0,0.0,0.0,0.0,0.0,0.0,0.0,0.0,0.0,0.0,0.0,0.0,0.0,0.0,0.0,0.0,0.0,0.0,0.0,0.0,0.0,3.4367,3.5083,3.4857,3.4275,0.0,3.3065,3.2723,3.2326,3.3066,3.2993,3.2089,3.1837,3.1282,3.0543,3.026,2.9235,2.784,2.7379,2.6733,2.5907,2.4805,2.4402,2.4295,2.3493,2.2994,2.2693,2.1887,2.1387,2.1081,2.0277,2.0551,2.097,2.097,2.2214,2.3528,2.3528,2.4411,2.5608,2.714,2.7707,2.8145,2.9122,2.9448,2.9669,2.9669,3.0078,3.0287,3.0287,3.1187,3.2577,3.4483,3.5667,3.6358,3.6358,3.6358,3.6358,3.6358,3.6358,3.6358,3.6358,3.6358,3.6452,3.6722,3.6722,3.6815,3.6989,3.8405,3.9231,3.9284,3.9407,3.9651,3.9839,3.9839,3.9839,3.9839,3.9839,3.9839,0.0,0.0,0.0,0.0,0.0,0.0,0.0,0.0,0.0,0.0,0.0,0.0,0.0,0.0,0.0,0.0,0.0,0.0,0.0,0.0,0.0,0.0,0.0,0.0,0.0,0.0,0.0,0.0,0.0,0.0,0.0,0.0,0.0,0.0,3.2521,3.2583,3.3279,3.2821,3.2398,3.201,3.1527,3.1332,3.1387,3.2042,3.1889,3.1003,3.1003,3.0441,2.9418,2.8958,2.8121,2.7094,2.6542,2.5684,2.4609,2.3998,2.3375,2.2868,2.2484,2.1988,2.1481,2.1089,2.0585,1.9983,1.948,1.9616,2.004,2.0194,2.1018,2.1887,2.2055,2.2765,2.3528,2.4735,2.6282,2.7707,2.8804,2.9237,2.9448,2.9554,2.9659,2.9889,2.9994,3.1289,3.2789,3.3895,3.5367,3.6358,3.6358,3.6358,3.6358,3.6358,3.6358,3.6358,3.6358,3.6358,3.6358,3.6358,3.6358,3.6358,3.6358,3.7335,3.8056,3.8509,3.8509,3.8765,3.921,3.921,3.921,3.921,3.921,3.921,0.0,0.0,0.0,0.0,0.0,0.0,0.0,0.0,0.0,0.0,0.0,0.0,0.0,0.0,0.0,0.0,0.0,0.0,0.0,0.0,0.0,0.0,0.0,0.0,0.0,0.0,0.0,0.0,0.0,0.0,0.0,0.0,3.1623,3.0895,3.0745,3.0966,3.1434,3.0684,3.0578,3.1048,3.0443,3.0229,3.0575,3.1101,3.092,3.017,2.9977,2.9326,2.8308,2.7463,2.6999,2.6723,2.5401,2.4412,2.3592,2.2976,2.2165,2.1448,2.1473,2.0877,2.0174,2.0372,1.9872,1.9168,1.9175,1.9542,1.9894,2.0164,2.0508,2.0867,2.1137,2.1211,2.1546,2.2757,2.4956,2.7267,2.8368,2.8804,2.9132,2.9353,2.9448,2.9554,2.9784,3.1483,3.2889,3.3089,3.4763,3.6061,3.6358,3.6358,3.6358,3.6358,3.6358,3.6358,3.6358,3.6358,3.6358,3.6358,3.6358,3.6358,3.6358,3.6358,3.6722,3.7533,3.7533,3.7978,3.8765,3.8765,3.8765,3.8765,3.8765,3.8765,0.0,0.0,0.0,0.0,0.0,0.0,0.0,0.0,0.0,0.0,0.0,0.0,0.0,0.0,0.0,0.0,0.0,0.0,0.0,0.0,0.0,0.0,0.0,0.0,0.0,0.0,0.0,0.0,0.0,0.0,0.0,3.0443,3.0291,3.0895,3.0215,2.9883,2.9959,2.9882,2.9712,2.9564,2.994,2.9772,2.9063,2.9473,2.9846,3.017,2.9235,2.8215,2.701,2.6924,2.6157,2.5109,2.3998,2.3493,2.3085,2.1151,2.0333,2.0135,1.9228,1.8833,1.8736,1.8729,1.8632,1.8534,1.8862,1.9377,1.9837,2.0114,2.0676,2.1152,2.1196,2.1211,2.1546,2.2757,2.4078,2.5397,2.6626,2.7843,2.8727,2.8834,2.9036,2.9132,2.9237,3.0235,3.1429,3.2666,3.3552,3.4642,3.6156,3.6358,3.6358,3.6358,3.6358,3.6358,3.6358,3.6358,3.6358,3.6358,3.6358,3.6358,3.6358,3.6358,3.6452,3.6546,3.6546,3.6628,3.6803,3.6803,3.6803,3.6803,3.6803,3.6803,0.0,0.0,0.0,0.0,0.0,0.0,0.0,0.0,0.0,0.0,0.0,0.0,0.0,0.0,0.0,0.0,0.0,0.0,0.0,0.0,0.0,0.0,0.0,0.0,0.0,0.0,0.0,0.0,0.0,0.0,3.0215,2.9922,2.9626,2.9549,2.9184,2.904,2.904,2.904,2.8754,2.8105,2.7808,2.7629,2.757,2.7249,2.7467,2.7942,2.7734,2.6914,2.579,2.579,2.5099,2.3908,2.3294,2.2274,2.1049,1.993,1.922,1.8603,1.8318,1.822,1.822,1.8318,1.8422,1.8422,1.8534,1.883,1.9113,1.9583,2.0,2.0294,2.0751,2.096,2.1074,2.1873,2.3416,2.4948,2.5972,2.7403,2.8514,2.8621,2.893,2.9132,2.9132,3.0016,3.103,3.196,3.2755,3.365,3.4957,3.5367,3.5463,3.5463,3.6061,3.6358,3.6358,3.6358,3.6358,3.6358,3.6358,3.6358,3.6358,3.6358,3.6358,3.6358,3.6358,3.6358,3.6358,3.6358,3.6358,3.6358,3.6358,3.6358,0.0,0.0,0.0,0.0,0.0,0.0,0.0,0.0,0.0,0.0,0.0,0.0,0.0,0.0,0.0,0.0,0.0,0.0,0.0,0.0,0.0,0.0,0.0,0.0,0.0,0.0,0.0,0.0,0.0,0.0,2.9406,2.9406,2.9106,2.851,2.851,2.8419,2.8179,2.7926,2.7499,2.6846,2.608,2.5836,2.5937,2.5362,2.5219,2.5315,2.5974,2.5577,2.4421,2.4421,2.371,2.2685,2.2181,2.0955,1.9428,1.8916,1.8304,1.7582,1.7799,1.7911,1.7911,1.8108,1.8213,1.8213,1.8325,1.8429,1.8652,1.922,1.9465,1.9801,2.048,2.0716,2.0838,2.1089,2.2749,2.4735,2.6191,2.7403,2.8398,2.8514,2.8717,2.892,2.892,2.9513,3.0224,3.065,3.1246,3.2151,3.3552,3.3761,3.4068,3.4581,3.5271,3.587,3.6168,3.6181,3.6181,3.6181,3.6181,3.6181,3.6181,3.6181,3.6275,3.6275,3.6275,3.637,3.6358,3.6358,3.6358,3.6358,3.6358,3.6358,0.0,0.0,0.0,0.0,0.0,0.0,0.0,0.0,0.0,0.0,0.0,0.0,0.0,0.0,0.0,0.0,0.0,0.0,0.0,0.0,0.0,0.0,0.0,0.0,0.0,0.0,0.0,0.0,0.0,0.0,2.8578,2.8578,2.851,2.851,2.851,2.8087,2.7267,2.6412,2.5902,2.5913,2.5652,2.5073,2.4272,2.4361,2.3879,2.2915,2.4401,2.4214,2.2985,2.2985,2.219,2.0877,1.9849,1.9324,1.9124,1.8101,1.7687,1.7582,1.7582,1.7582,1.7582,1.7687,1.7687,1.7687,1.7911,1.8413,1.8988,1.9346,1.9773,2.0343,2.0594,2.0716,2.0838,2.1089,2.2207,2.3975,2.7403,2.8291,2.8291,2.8291,2.8291,2.8291,2.8291,2.8398,2.8398,2.8504,2.8495,2.9513,3.2039,3.1724,3.1938,3.3883,3.4091,3.4495,3.5512,3.562,3.562,3.562,3.562,3.562,3.562,3.562,3.5716,3.6015,3.6015,3.6193,3.6358,3.6358,3.6358,3.6358,3.6358,3.6358,0.0,0.0,0.0,0.0,0.0,0.0,0.0,0.0,0.0,0.0,0.0,0.0,0.0,0.0,0.0,0.0,0.0,0.0,0.0,0.0,0.0,0.0,0.0,0.0,0.0,0.0,0.0,0.0,0.0,0.0,2.7684,2.7684,2.7429,2.6823,2.6753,2.6577,2.6329,2.5411,2.4999,2.4999,2.4155,2.3551,2.3232,2.3297,2.2756,2.1794,2.2473,2.2514,2.2249,2.1787,2.0869,1.9746,1.9332,1.8819,1.8094,1.7793,1.7582,1.7582,1.7582,1.7582,1.7582,1.7582,1.7582,1.7582,1.7694,1.7842,1.8158,1.8469,1.8816,1.9289,1.97,2.0009,2.0493,2.1744,2.2523,2.3743,2.6518,2.7736,2.8291,2.8291,2.8291,2.8291,2.8291,2.8291,2.8291,2.8291,2.8291,2.8708,2.9942,3.0525,3.1122,3.1836,3.2543,3.3055,3.3464,3.3464,3.3464,3.3464,3.3464,3.3464,3.3464,3.3464,3.3563,3.3662,3.3662,3.4557,3.6358,3.6358,3.6358,3.6358,3.6358,3.6061,0.6653,0.0,0.0,0.0,0.0,0.0,0.0,0.0,0.0,0.0,0.0,0.0,0.0,0.0,0.0,0.0,0.0,0.0,0.0,0.0,0.0,0.0,0.0,0.0,0.0,0.0,0.0,0.0,0.0,0.0,2.6753,2.6753,2.6423,2.583,2.5495,2.5326,2.5326,2.4488,2.4069,2.3983,2.3135,2.252,2.2157,2.1988,2.1369,2.0374,2.0272,2.0508,2.0866,2.0405,1.9545,1.861,1.861,1.8199,1.7582,1.7582,1.7582,1.7582,1.7582,1.7582,1.7582,1.7582,1.7582,1.7582,1.7582,1.7655,1.7782,1.7989,1.8263,1.8642,1.9054,1.9553,2.0109,2.1346,2.2212,2.3183,2.4855,2.6518,2.7853,2.8184,2.8291,2.8291,2.8291,2.8291,2.8291,2.8291,2.8291,2.8408,2.8621,2.9418,3.0005,3.0411,3.1019,3.1633,3.205,3.205,3.205,3.205,3.205,3.205,3.205,3.205,3.2151,3.2241,3.2241,3.3143,3.5041,3.5041,3.5041,3.5041,3.515,3.486,0.0,0.0,0.0,0.0,0.0,0.0,0.0,0.0,0.0,0.0,0.0,0.0,0.0,0.0,0.0,0.0,0.0,0.0,0.0,0.0,0.0,0.0,0.0,0.0,0.0,0.0,0.0,0.0,0.0,2.583,2.5746,2.5735,2.5735,2.5735,2.4914,2.4498,2.4498,2.356,2.3047,2.3047,2.2608,2.1882,2.0953,2.043,1.9704,1.8719,1.8035,1.8152,1.873,1.8745,1.8327,1.7569,1.7582,1.7582,1.7582,1.7582,1.7582,1.7582,1.7582,1.7582,1.7582,1.7582,1.7582,1.7582,1.7582,1.7796,1.8029,1.8029,1.825,1.8588,1.8809,1.9354,1.9794,1.9794,2.1144,2.2387,2.25,2.4514,2.6744,2.796,2.8291,2.8291,2.8291,2.8291,2.8291,2.8291,2.8291,2.8291,2.8291,2.8291,2.8708,2.9723,2.9817,3.0338,3.137,3.1472,3.1472,3.1472,3.1472,3.1472,3.1472,3.1472,3.1677,3.1869,3.1869,3.196,3.2129,3.223,3.2331,3.2342,3.2655,3.2878,0.682,0.0,0.0,0.0,0.0,0.0,0.0,0.0,0.0,0.0,0.0,0.0,0.0,0.0,0.0,0.0,0.0,0.0,0.0,0.0,0.0,0.0,0.0,0.0,0.0,0.0,0.0,0.0,2.5819,2.5495,2.4914,2.4231,2.381,2.381,2.3647,2.3474,2.3474,2.3057,2.2511,2.1756,2.132,2.0593,1.9588,1.933,1.8696,1.7699,1.7515,1.7316,1.7035,1.7475,1.7497,1.7288,1.7502,1.7582,1.7582,1.7582,1.7582,1.7582,1.7582,1.7582,1.7582,1.7582,1.7582,1.7582,1.7582,1.7642,1.7709,1.7709,1.7929,1.8217,1.8541,1.8766,1.8938,1.9154,1.971,2.0598,2.1577,2.2664,2.4078,2.6518,2.7736,2.8291,2.8291,2.8291,2.8291,2.8291,2.8291,2.8291,2.8291,2.8291,2.8388,2.8698,2.8698,2.891,2.9217,2.9217,2.9217,2.9217,2.9217,2.9217,2.9217,2.9217,2.9217,2.9313,2.9313,2.9313,2.9408,3.1327,3.2331,3.223,3.1633,3.1327,0.7288,0.7562,0.0,0.0,0.0,0.0,0.0,0.0,0.0,0.0,0.0,0.0,0.0,0.0,0.0,0.0,0.0,0.0,0.0,0.0,0.0,0.0,0.0,0.0,0.0,0.0,0.0,0.0,2.4648,2.4478,2.3897,2.3396,2.296,2.2511,2.2511,2.2236,2.1784,2.1615,2.1239,2.0576,2.0133,1.9505,1.8503,1.8234,1.7598,1.6669,1.6669,1.6497,1.6126,1.6593,1.6927,1.7271,1.7335,1.7475,1.7582,1.7582,1.7582,1.7582,1.7582,1.7582,1.7582,1.7582,1.7582,1.7582,1.7582,1.7582,1.7582,1.7582,1.7716,1.7896,1.807,1.821,1.8303,1.8516,1.885,1.9396,2.025,2.1173,2.2609,2.5773,2.6735,2.7403,2.8184,2.8291,2.8291,2.8291,2.8291,2.8291,2.8291,2.8291,2.8291,2.8291,2.8291,2.8291,2.8291,2.8291,2.8291,2.8291,2.8291,2.8291,2.8291,2.8291,2.8291,2.8291,2.8291,2.8291,2.8291,2.9911,3.0732,3.0732,3.013,2.9922,0.7742,0.7862,0.8141,0.0,0.0,0.0,0.0,1.0534,0.0,0.0,0.0,0.0,0.0,0.0,0.0,0.0,0.0,0.0,0.0,0.0,0.0,0.0,0.0,0.0,0.0,0.0,2.2979,2.2892,2.2843,2.2775,2.2775,2.2775,2.2325,2.1516,2.1516,2.097,1.9886,1.9803,1.9604,1.9314,1.9047,1.8411,1.7505,1.7232,1.6676,1.5832,1.5832,1.5825,1.5757,1.6112,1.6547,1.7054,1.7121,1.7308,1.743,1.7463,1.7477,1.7477,1.7477,1.7477,1.7477,1.7477,1.7477,1.7582,1.7582,1.7582,1.7582,1.7582,1.7582,1.7582,1.7582,1.7789,1.7996,1.7996,1.8435,1.8755,1.8755,1.9954,2.186,2.4889,2.5519,2.6127,2.7843,2.8184,2.8184,2.8184,2.8184,2.8291,2.8291,2.8291,2.8291,2.8291,2.8291,2.8291,2.8291,2.8291,2.8291,2.8291,2.8291,2.8291,2.8291,2.8291,2.8291,2.8291,2.8291,2.8291,2.8291,2.8291,2.8408,2.8621,2.8621,2.8834,0.8858,0.8884,0.0,0.0,0.0,0.0,0.0,0.9571,0.0,0.0,0.0,0.0,0.0,0.0,0.0,0.0,0.0,0.0,0.0,0.0,0.0,0.0,0.0,0.0,0.0,0.0,2.2284,2.1575,2.106,2.0782,2.0782,2.061,2.043,2.0249,2.0051,1.9861,1.9588,1.9322,1.8872,1.8056,1.7777,1.7131,1.6197,1.6109,1.6021,1.5832,1.5832,1.573,1.5547,1.5606,1.5829,1.6183,1.6662,1.6672,1.6529,1.6753,1.6836,1.6836,1.6836,1.6836,1.6836,1.6836,1.7054,1.7279,1.7279,1.7378,1.7582,1.7582,1.7582,1.7582,1.7582,1.7629,1.7669,1.7669,1.7909,1.813,1.813,1.8639,1.9594,2.1418,2.3628,2.5703,2.7131,2.7422,2.7539,2.7539,2.7745,2.796,2.8291,2.8291,2.8291,2.8291,2.8291,2.8291,2.8291,2.8291,2.8291,2.8291,2.8291,2.8291,2.8291,2.8291,2.8291,2.8291,2.8291,2.8291,2.8291,2.8291,2.8291,2.8398,2.8398,2.8398,0.9482,0.9459,0.0,0.9459,0.0,0.0,0.0,0.0,0.0,0.0,0.0,0.0,0.0,0.0,0.0,0.0,0.0,0.0,0.0,0.0,0.0,0.0,0.0,0.0,0.0,0.0,2.1146,2.0101,1.9841,1.9779,1.9762,1.9768,1.9513,1.9155,1.8864,1.8495,1.7863,1.7677,1.7311,1.6763,1.6574,1.6298,1.5832,1.5832,1.5832,1.5825,1.5737,1.5635,1.5445,1.4771,1.4852,1.5318,1.5844,1.6183,1.6336,1.6475,1.6187,1.5867,1.5867,1.5867,1.5867,1.5867,1.6305,1.6955,1.6955,1.7166,1.7378,1.7378,1.7483,1.7582,1.7582,1.7582,1.7582,1.7582,1.7702,1.7816,1.7816,1.7929,1.8293,1.9182,2.1186,2.3261,2.4937,2.5383,2.5854,2.7206,2.7745,2.8067,2.8291,2.8291,2.8291,2.8291,2.8291,2.8291,2.8291,2.8291,2.8291,2.8291,2.8291,2.8291,2.8291,2.8291,2.8291,2.8291,2.8291,2.8291,2.8291,2.8291,2.8291,2.8291,2.8291,2.8291,0.0,0.0,0.0,0.0,0.0,0.9345,0.0,0.0,0.0,0.9554,0.0,0.0,0.0,0.0,0.0,0.0,0.0,0.0,0.0,0.0,0.0,0.0,0.0,0.0,0.0,0.0,1.9283,1.8556,1.8473,1.8472,1.866,1.8749,1.8493,1.7872,1.7647,1.7124,1.6123,1.6123,1.6028,1.5832,1.5832,1.5832,1.5832,1.5832,1.5737,1.5737,1.5343,1.5153,1.4956,1.3703,1.3516,1.413,1.4588,1.515,1.5645,1.5488,1.5036,1.4506,1.4506,1.4426,1.4471,1.4471,1.5328,1.6299,1.6624,1.6842,1.7067,1.7173,1.7384,1.7477,1.7582,1.7582,1.7582,1.7582,1.7582,1.7582,1.7582,1.7582,1.7655,1.7909,1.8944,2.0448,2.2565,2.3156,2.4061,2.5972,2.6744,2.706,2.7168,2.7168,2.7286,2.7736,2.7736,2.7843,2.8184,2.8184,2.8291,2.8291,2.8291,2.8291,2.8291,2.8067,2.796,2.796,2.7736,2.7618,2.7618,2.7618,2.7843,2.8291,2.8291,2.8291,0.0,0.0,0.0,0.0,1.0628,0.0,0.0,0.0,0.9412,0.8991,0.0,0.0,0.0,0.0,0.0,0.0,0.0,0.0,0.0,0.0,0.0,0.0,0.0,0.0,0.0,0.0,0.0,1.7107,1.5854,1.5274,1.6109,1.6189,1.619,1.6104,1.6067,1.6015,1.5832,1.5832,1.5832,1.5832,1.5832,1.5832,1.5832,1.5832,1.573,1.5445,1.4465,1.3788,1.3312,1.2247,1.1755,1.1683,1.2193,1.2809,1.3385,1.269,1.2486,1.2558,1.2558,1.2578,1.2738,1.2738,1.3712,1.5114,1.6299,1.673,1.6842,1.7067,1.7179,1.7279,1.7582,1.7582,1.7582,1.7582,1.7582,1.7582,1.7582,1.7582,1.7595,1.7629,1.799,1.8803,2.0692,2.2185,2.2862,2.2515,2.2507,2.2613,2.2934,2.2927,2.3718,2.5735,2.5954,2.6509,2.7843,2.796,2.8077,2.8291,2.8291,2.8291,2.8291,2.7295,2.6744,2.6744,2.5617,2.5058,2.5058,2.5058,2.6173,2.8291,2.8291,2.8291,0.0,0.0,0.0,0.0,0.0,0.0,0.0,0.0,0.9198,0.0,0.0,0.0,0.0,0.0,0.0,0.0,0.0,0.0,0.0,0.0,0.0,0.0,0.0,0.0,0.0,0.0,0.0,0.0,0.0,1.3996,1.4656,1.4899,1.5237,1.5766,1.5611,1.5658,1.5832,1.5832,1.5832,1.5832,1.5832,1.5445,1.4968,1.4758,1.4274,1.3596,1.2915,1.2431,1.215,1.0974,1.0783,1.1082,1.0082,1.0675,1.2189,1.1885,1.1438,1.1103,1.1221,1.1211,1.1401,1.2163,1.2847,1.3388,1.4035,1.4787,1.5547,1.5654,1.6305,1.6955,1.7272,1.7384,1.7384,1.7582,1.7582,1.7582,1.7582,1.7582,1.7582,1.7582,1.7836,1.8285,1.9251,2.0131,2.0622,2.0472,2.0378,2.0823,2.2153,2.2258,2.2934,2.4386,2.4608,2.4829,2.5498,2.5498,2.5617,2.5945,2.6173,2.6173,2.6173,2.5726,2.5507,2.5507,2.4948,2.4727,2.4727,2.4727,2.5168,2.6173,2.6173,2.6173,1.1114,0.0,0.0,0.0,0.0,0.0,0.0,0.0,0.0,0.0,0.0,0.0,0.0,0.0,0.0,0.0,0.0,0.0,0.0,0.0,0.0,0.0,0.0,0.0,0.0,0.0,0.0,0.0,0.0,0.0,1.3702,1.4085,1.4677,1.5538,1.5449,1.5538,1.5825,1.5832,1.5642,1.535,1.535,1.4771,1.3709,1.3596,1.3011,1.2047,1.1463,1.1072,1.0974,0.9706,0.9608,1.0194,0.8627,0.9091,1.0597,1.0597,1.0217,0.968,0.9809,0.9914,1.0234,1.1485,1.1978,1.1982,1.2304,1.3171,1.4035,1.4465,1.5328,1.6299,1.6849,1.7067,1.706,1.7265,1.7371,1.7483,1.7483,1.7589,1.7582,1.7582,1.7762,1.8043,1.8424,1.8731,1.9025,1.9325,1.9366,1.9924,2.1373,2.1487,2.1934,2.2942,2.3055,2.3271,2.371,2.371,2.383,2.4164,2.4386,2.4497,2.4497,2.4172,2.395,2.395,2.3718,2.3607,2.3607,2.3735,2.3735,2.3735,2.4394,2.4727,0.0,0.0,0.0,1.0731,0.0,0.0,0.0,0.0,0.992,0.0,0.0,0.0,0.0,0.0,0.9566,0.923,0.9183,0.0,0.0,0.0,0.0,0.0,0.0,0.0,0.0,0.0,0.0,0.0,0.0,0.0,1.3133,1.3507,1.4075,1.504,1.5251,1.5538,1.5825,1.5832,1.535,1.4394,1.4394,1.3613,1.2339,1.2339,1.2047,1.156,1.0489,0.9899,0.9608,0.8531,0.8038,0.8137,0.8038,0.8041,0.8144,0.8144,0.8244,0.8381,0.8385,0.8577,0.8949,1.0288,1.0781,1.1,1.2091,1.2413,1.2738,1.425,1.4685,1.5007,1.6405,1.673,1.673,1.673,1.6955,1.7173,1.7173,1.7378,1.7582,1.7582,1.7589,1.7789,1.839,1.8731,1.9025,1.9325,1.9366,1.9366,1.9482,1.9482,1.9931,2.1174,2.1288,2.1836,2.3271,2.3383,2.3495,2.3822,2.3822,2.3822,2.3822,2.2733,2.2191,2.2191,2.1281,2.0831,2.0831,2.1196,2.1318,2.1318,2.3623,2.4727,0.0,0.0,1.2031,1.1333,0.0,0.0,0.0,0.0,0.0,0.0,0.0,0.0,0.0,0.9686,0.9586,0.923,0.9183,0.9072,0.0,0.0,0.0,0.0,0.0,0.0,0.0,0.0,0.0,0.0,0.0,0.0,0.0,1.2979,1.3674,1.4362,1.4206,1.421,1.4478,1.3993,1.3505,1.3022,1.3022,1.2339,1.1072,1.0877,1.0293,0.941,0.892,0.8627,0.8531,0.8137,0.8038,0.8038,0.8038,0.8038,0.8038,0.8038,0.8072,0.8147,0.8343,0.854,0.8841,0.9318,0.9482,0.9588,0.9915,1.0676,1.1324,1.1864,1.2516,1.3496,1.49,1.5328,1.5547,1.6511,1.6842,1.6849,1.6849,1.706,1.7384,1.7384,1.7483,1.7776,1.8384,1.8577,1.8804,1.9292,1.9366,1.9366,1.9366,1.9366,1.9597,1.9931,2.0046,2.0155,2.0709,2.0938,2.1045,2.1152,2.138,2.1494,2.1494,2.1052,2.0952,2.0952,2.0608,2.05,2.05,2.0507,2.0622,2.0622,2.1395,2.1957,1.0476,1.1351,0.0,1.162,1.1319,0.0,1.0076,0.0,0.0,0.0,0.0,0.0,0.0,0.0,0.9748,0.9603,0.9332,0.9017,0.0,0.0,0.0,0.0,0.0,0.0,0.0,0.0,0.9343,0.9935,0.0,0.0,0.0,0.0,1.2603,1.3197,1.3028,1.3049,1.3304,1.28,1.2242,1.1755,1.1658,1.0974,0.9706,0.9509,0.9019,0.8237,0.8038,0.8038,0.8038,0.8038,0.8038,0.8038,0.8038,0.8038,0.8038,0.8038,0.8038,0.8075,0.8319,0.8506,0.8655,0.8808,0.8896,0.894,0.894,0.9482,1.0131,1.0562,1.1219,1.2087,1.3496,1.3819,1.4143,1.5446,1.5873,1.6086,1.6524,1.6849,1.7067,1.7067,1.7272,1.7676,1.8273,1.849,1.8691,1.9279,1.9366,1.9366,1.9366,1.9366,1.9366,1.9366,1.9366,1.9366,1.9366,1.9591,1.9707,1.9707,1.9815,1.9931,1.9931,1.9931,1.9931,1.9931,2.0046,2.0155,2.0155,2.027,2.027,2.027,2.027,2.0507]},{"header":{"parameterUnit":"m.s-1","parameterCategory":1,"la1":30.6,"la2":29.2853,"lo1":-89.7004,"lo2":-87.6739,"dy":0.0162,"dx":0.0183,"nx":112,"ny":82,"refTime":"2024-06-03T06:00:00:Z","depth":0,"parameterNumber":3,"parameterNumberName":"V-component_of_WINDS"},"data":[0.0,0.0,0.0,0.0,0.0,0.0,0.0,0.0,0.0,0.0,0.0,0.0,0.0,0.0,0.0,0.0,0.0,0.0,0.0,0.0,0.0,0.0,0.0,0.0,0.0,0.0,0.0,0.0,0.0,0.0,0.0,0.0,0.0,0.0,0.0,0.0,0.0,0.0,0.0,0.0,0.0,0.0,0.0,0.0,0.0,0.0,0.0,0.0,0.0,0.0,0.0,0.0,0.0,0.0,0.0,0.0,0.0,0.0,0.0,0.0,0.0,0.0,0.0,0.0,0.0,0.0,0.0,0.0,0.0,0.0,0.0,0.0,0.0,0.0,0.0,0.0,0.0,0.0,0.0,0.0,0.0,0.0,0.0,0.0,0.0,0.0,0.0,0.0,0.0,0.0,0.0,-0.3564,-0.3019,-0.2523,-0.2133,-0.2119,-0.1951,-0.1721,0.0,0.0,0.0,0.0,0.0,0.0,0.0,0.0,0.0,0.0,0.0,0.0,0.0,0.0,0.0,0.0,0.0,0.0,0.0,0.0,0.0,0.0,0.0,0.0,0.0,0.0,0.0,0.0,0.0,0.0,0.0,0.0,0.0,0.0,0.0,0.0,0.0,0.0,0.0,0.0,0.0,0.0,0.0,0.0,0.0,0.0,0.0,0.0,0.0,0.0,0.0,0.0,0.0,0.0,0.0,0.0,0.0,0.0,0.0,0.0,0.0,0.0,0.0,0.0,0.0,0.0,0.0,0.0,0.0,0.0,0.0,0.0,0.0,0.0,0.0,0.0,0.0,0.0,0.0,0.0,0.0,0.0,0.0,0.0,0.0,0.0,0.0,0.0,0.0,0.0,0.0,0.0,0.0,0.0,0.0,0.0,0.0,0.0,0.0,0.0,0.0,0.0,0.0,0.0,-0.3937,-0.4083,-0.3223,-0.2523,-0.2133,-0.2078,-0.1906,-0.1718,0.0,0.0,0.0,0.0,0.0,0.0,0.0,0.0,0.0,0.0,0.0,0.0,0.0,0.0,0.0,0.0,0.0,0.0,0.0,0.0,0.0,0.0,0.0,0.0,0.0,0.0,0.0,0.0,0.0,0.0,0.0,0.0,0.0,0.0,0.0,0.0,0.0,0.0,0.0,0.0,0.0,0.0,0.0,0.0,0.0,0.0,0.0,0.0,0.0,0.0,0.0,0.0,0.0,0.0,0.0,0.0,0.0,0.0,0.0,0.0,0.0,0.0,0.0,0.0,0.0,0.0,0.0,0.0,0.0,0.0,0.0,0.0,0.0,0.0,0.0,0.0,0.0,0.0,0.0,0.0,0.0,0.0,0.0,0.0,0.0,0.0,0.0,0.0,0.0,0.0,0.0,0.0,0.0,0.0,0.0,0.0,0.0,0.0,0.0,0.0,0.0,0.0,0.0,-0.3525,-0.3516,-0.4111,-0.3113,-0.2327,-0.2133,-0.2069,-0.1895,-0.1718,-0.1482,0.0,0.0,0.0,0.0,0.0,0.0,0.0,0.0,0.0,0.0,0.0,0.0,0.0,0.0,0.0,0.0,0.0,0.0,0.0,0.0,0.0,0.0,0.0,0.0,0.0,0.0,0.0,0.0,0.0,0.0,0.0,0.0,0.0,0.0,0.0,0.0,0.0,0.0,0.0,0.0,0.0,0.0,0.0,0.0,0.0,0.0,0.0,0.0,0.0,0.0,0.0,0.0,0.0,0.0,0.0,0.0,0.0,0.0,0.0,0.0,0.0,0.0,0.0,0.0,0.0,0.0,0.0,0.0,0.0,0.0,0.0,0.0,0.0,0.0,0.0,0.0,0.0,0.0,0.0,0.0,0.0,0.0,0.0,0.0,0.0,0.0,0.0,0.0,0.0,0.0,0.0,0.0,0.0,0.0,0.0,0.0,0.0,0.0,0.0,0.0,0.0,0.0,-0.3965,-0.3435,-0.4148,-0.2984,-0.2189,-0.2112,-0.1973,-0.186,-0.1695,-0.1431,0.0,0.0,0.0,0.0,0.0,0.0,0.0,0.0,0.0,0.0,0.0,0.0,0.0,0.0,0.0,0.0,0.0,0.0,0.0,0.0,0.0,0.0,0.0,0.0,0.0,0.0,0.0,0.0,0.0,0.0,0.0,0.0,0.0,0.0,0.0,0.0,0.0,0.0,0.0,0.0,0.0,0.0,0.0,0.0,0.0,0.0,0.0,0.0,0.0,0.0,0.0,0.0,0.0,0.0,0.0,0.0,0.0,0.0,0.0,0.0,0.0,0.0,0.0,0.0,0.0,0.0,0.0,0.0,0.0,0.0,0.0,0.0,0.0,0.0,0.0,0.0,0.0,0.0,0.0,0.0,0.0,0.0,0.0,0.0,0.0,0.0,0.0,0.0,0.0,0.0,0.0,0.0,0.0,0.0,0.0,0.0,0.0,0.0,0.0,0.0,0.0,0.0,-0.4291,-0.4148,-0.4169,-0.2984,-0.2172,-0.1988,-0.1875,-0.1756,-0.1629,-0.129,0.0,0.0,0.0,0.0,0.0,0.0,0.0,0.0,0.0,0.0,0.0,0.0,0.0,0.0,0.0,0.0,0.0,0.0,0.0,0.0,0.0,0.0,0.0,0.0,0.0,0.0,0.0,0.0,0.0,0.0,0.0,0.0,0.0,0.0,0.0,0.0,0.0,0.0,0.0,0.0,0.0,0.0,0.0,0.0,0.0,0.0,0.0,0.0,0.0,0.0,0.0,0.0,0.0,0.0,0.0,0.0,0.0,0.0,0.0,0.0,0.0,0.0,0.0,0.0,0.0,0.0,0.0,0.0,0.0,0.0,0.0,0.0,0.0,0.0,0.0,0.0,0.0,0.0,0.0,0.0,0.0,0.0,0.0,0.0,0.0,0.0,0.0,0.0,0.0,0.0,0.0,0.0,0.0,0.0,0.0,0.0,0.0,0.0,0.0,0.0,0.0,0.0,-0.4239,-0.4256,0.0,-0.3663,-0.2756,-0.266,-0.2173,-0.1807,-0.1574,0.0,0.0,0.0,0.0,0.0,0.0,0.0,0.0,0.0,0.0,0.0,0.0,0.0,0.0,0.0,0.0,0.0,0.0,0.0,0.0,0.0,0.0,0.0,0.0,0.0,0.0,0.0,0.0,0.0,0.0,0.0,0.0,0.0,0.0,0.0,0.0,0.0,0.0,0.0,0.0,0.0,0.0,0.0,0.0,0.0,0.0,0.0,0.0,0.0,0.0,0.0,0.0,0.0,0.0,0.0,0.0,0.0,0.0,0.0,0.0,0.0,0.0,0.0,0.0,0.0,0.0,0.0,0.0,0.0,0.0,0.0,0.0,0.0,0.0,0.0,0.0,0.0,0.0,0.0,0.0,0.0,0.0,0.0,0.0,0.0,0.0,0.0,0.0,0.0,0.0,0.0,0.0,0.0,0.0,0.0,0.0,0.0,0.0,0.0,0.0,0.0,0.0,-0.4334,-0.4343,-0.4552,0.0,-0.4273,-0.3472,-0.3276,-0.2841,-0.2308,-0.1828,0.0,0.0,0.0,0.0,0.0,0.0,0.0,0.0,0.0,0.0,0.0,0.0,0.0,0.0,0.0,0.0,0.0,0.0,0.0,0.0,0.0,0.0,0.0,0.0,0.0,0.0,0.0,0.0,0.0,0.0,0.0,0.0,0.0,0.0,0.0,0.0,0.0,0.0,0.0,0.0,0.0,0.0,0.0,0.0,0.0,0.0,0.0,0.0,0.0,0.0,0.0,0.0,0.0,0.0,0.0,0.0,0.0,0.0,0.0,0.0,0.0,0.0,0.0,0.0,0.0,0.0,0.0,0.0,0.0,0.0,0.0,0.0,0.0,0.0,0.0,0.0,0.0,0.0,0.0,0.0,0.0,0.0,0.0,0.0,0.0,0.0,0.0,0.0,0.0,0.0,0.0,0.0,0.0,0.0,0.0,0.0,0.0,0.0,0.0,0.0,0.0,0.0,-0.4278,-0.4703,-0.5085,-0.5297,-0.4736,-0.4191,-0.3955,-0.3773,-0.3316,0.0,0.0,0.0,0.0,0.0,0.0,0.0,0.0,0.0,0.0,0.0,0.0,0.0,0.0,0.0,0.0,0.0,0.0,0.0,0.0,0.0,0.0,0.0,0.0,0.0,0.0,0.0,0.0,0.0,0.0,0.0,0.0,0.0,0.0,0.0,0.0,0.0,0.0,0.0,0.0,0.0,0.0,0.0,0.0,0.0,0.0,0.0,0.0,0.0,0.0,0.0,0.0,0.0,0.0,0.0,0.0,0.0,0.0,0.0,0.0,0.0,0.0,0.0,0.0,0.0,0.0,0.0,0.0,0.0,0.0,0.0,0.0,0.0,0.0,0.0,0.0,0.0,0.0,0.0,0.0,0.0,0.0,0.0,0.0,0.0,0.0,0.0,0.0,0.0,0.0,0.0,0.0,0.0,0.0,0.0,0.0,0.0,0.0,0.0,0.0,0.0,0.0,0.0,0.0,-0.5167,-0.5871,-0.6039,-0.5453,-0.5009,-0.4895,-0.4221,-0.3468,-0.2641,0.0,0.0,0.0,0.0,0.0,0.0,0.0,0.0,0.0,0.0,0.0,0.0,0.0,0.0,0.0,0.0,0.0,0.0,0.0,0.0,0.0,0.0,0.0,0.0,0.0,0.0,0.0,0.0,0.0,0.0,0.0,0.0,0.0,0.0,0.0,0.0,0.0,0.0,0.0,0.0,0.0,0.0,0.0,0.0,0.0,0.0,0.0,0.0,0.0,0.0,0.0,0.0,0.0,0.0,0.0,0.0,0.0,0.0,0.0,0.0,0.0,0.0,0.0,0.0,0.0,0.0,0.0,0.0,0.0,0.0,0.0,0.0,0.0,0.0,0.0,0.0,0.0,0.0,0.0,0.0,0.0,0.0,0.0,0.0,0.0,0.0,0.0,0.0,0.0,0.0,0.0,0.0,0.0,0.0,0.0,0.0,0.0,0.0,0.0,0.0,0.0,0.0,-0.4442,-0.5362,-0.6142,-0.6379,-0.6017,-0.5748,-0.5653,-0.5058,-0.4304,-0.3391,0.0,0.0,0.0,0.0,0.0,0.0,0.0,0.0,0.0,0.0,0.0,0.0,0.0,0.0,0.0,0.0,0.0,0.0,0.0,0.0,0.0,0.0,0.0,0.0,0.0,0.0,0.0,0.0,0.0,0.0,0.0,0.0,0.0,0.0,0.0,0.0,0.0,0.0,0.0,0.0,0.0,0.0,0.0,0.0,0.0,0.0,0.0,0.0,0.0,0.0,0.0,0.0,0.0,0.0,0.0,0.0,0.0,0.0,0.0,0.0,0.0,0.0,0.0,0.0,0.0,0.0,0.0,0.0,0.0,0.0,0.0,0.0,0.0,0.0,0.0,0.0,0.0,0.0,0.0,0.0,0.0,0.0,0.0,0.0,0.0,0.0,0.0,0.0,0.0,0.0,0.0,0.0,0.0,0.0,0.0,0.0,0.0,0.0,0.0,0.0,0.0,0.0,-0.4534,-0.5385,-0.6042,-0.6384,-0.642,-0.6351,-0.6248,-0.6014,-0.5501,-0.4415,0.0,0.0,0.0,0.0,0.0,0.0,0.0,0.0,0.0,0.0,0.0,0.0,0.0,0.0,0.0,0.0,0.0,0.0,0.0,0.0,0.0,0.0,0.0,0.0,0.0,0.0,0.0,0.0,0.0,0.0,0.0,0.0,0.0,0.0,0.0,0.0,0.0,0.0,0.0,0.0,0.0,0.0,0.0,0.0,0.0,0.0,0.0,0.0,0.0,0.0,0.0,0.0,0.0,0.0,0.0,0.0,0.0,0.0,0.0,0.0,-0.3879,0.0,0.0,0.0,0.0,0.0,0.0,0.0,0.0,0.0,0.0,0.0,0.0,0.0,0.0,0.0,0.0,0.0,0.0,0.0,0.0,0.0,0.0,0.0,0.0,0.0,0.0,0.0,0.0,0.0,0.0,0.0,0.0,0.0,0.0,0.0,0.0,0.0,0.0,0.0,0.0,0.0,-0.4548,-0.5485,-0.6172,-0.6396,-0.642,-0.64,-0.6363,-0.6197,-0.5718,-0.484,0.0,0.0,0.0,0.0,0.0,0.0,0.0,0.0,0.0,0.0,0.0,0.0,0.0,0.0,0.0,0.0,0.0,0.0,0.0,0.0,0.0,0.0,0.0,0.0,0.0,0.0,0.0,0.0,0.0,0.0,0.0,0.0,0.0,0.0,0.0,0.0,0.0,0.0,0.0,0.0,0.0,0.0,0.0,0.0,0.0,0.0,0.0,0.0,0.0,0.0,0.0,0.0,0.0,0.0,0.0,0.0,0.0,0.0,0.0,0.0,0.0,-0.4395,0.0,0.0,0.0,0.0,0.0,0.0,0.0,0.0,0.0,0.0,0.0,0.0,0.0,0.0,0.0,0.0,0.0,0.0,0.0,0.0,0.0,0.0,0.0,0.0,0.0,0.0,0.0,0.0,0.0,0.0,0.0,0.0,0.0,0.0,0.0,0.0,0.0,0.0,0.0,0.0,-0.5174,-0.5875,-0.6379,-0.6647,-0.6603,-0.655,-0.655,-0.6302,-0.5928,-0.5281,-0.4834,0.0,0.0,0.0,0.0,0.0,0.0,0.0,0.0,0.0,0.0,0.0,0.0,0.0,0.0,0.0,0.0,0.0,0.0,0.0,0.0,0.0,0.0,0.0,0.0,0.0,0.0,0.0,0.0,0.0,0.0,0.0,0.0,0.0,0.0,0.0,0.0,0.0,0.0,0.0,0.0,0.0,0.0,0.0,0.0,0.0,0.0,0.0,0.0,0.0,0.0,0.0,0.0,0.0,0.0,-0.5619,-0.5809,-0.566,-0.6034,-0.6682,-0.5916,-0.5913,-0.6356,0.0,0.0,0.0,0.0,0.0,0.0,0.0,0.0,0.0,0.0,0.0,0.0,0.0,0.0,0.0,0.0,0.0,0.0,0.0,0.0,0.0,0.0,0.0,0.0,0.0,-1.0737,-1.0296,0.0,0.0,0.0,0.0,0.0,0.0,0.0,0.0,0.0,0.0,0.0,0.0,-0.5803,-0.6229,-0.6591,-0.6991,-0.6826,-0.6729,-0.6696,-0.6416,-0.615,-0.5726,-0.5368,-0.5064,0.0,0.0,0.0,0.0,0.0,0.0,0.0,0.0,0.0,0.0,0.0,0.0,0.0,0.0,0.0,0.0,0.0,0.0,0.0,0.0,0.0,0.0,0.0,0.0,0.0,0.0,0.0,0.0,0.0,0.0,0.0,0.0,-0.3166,-0.3126,0.0,0.0,0.0,0.0,0.0,0.0,0.0,0.0,0.0,0.0,0.0,0.0,0.0,0.0,-0.509,-0.6074,-0.661,-0.6638,-0.6895,-0.7372,-0.8096,-0.739,-0.7561,-0.8516,-0.8442,0.0,-0.7007,-0.6857,0.0,0.0,0.0,0.0,0.0,0.0,0.0,0.0,0.0,0.0,0.0,0.0,0.0,0.0,0.0,0.0,0.0,0.0,0.0,0.0,0.0,0.0,-1.2402,-1.2567,-1.2742,-1.2515,0.0,-0.9051,-0.7005,-0.6393,0.0,0.0,0.0,0.0,0.0,0.0,0.0,0.0,-0.5835,-0.6339,-0.6733,-0.7003,-0.7003,-0.6859,-0.6708,-0.6652,-0.6469,-0.6162,-0.5738,-0.5497,-0.5432,-0.4824,0.0,0.0,0.0,0.0,0.0,0.0,0.0,0.0,0.0,0.0,0.0,0.0,0.0,0.0,0.0,0.0,0.0,0.0,0.0,0.0,0.0,0.0,0.0,0.0,0.0,0.0,0.0,0.0,0.0,-0.3363,-0.3589,-0.3789,-0.3609,-0.3311,0.0,0.0,0.0,0.0,0.0,0.0,0.0,0.0,0.0,-0.5758,-0.5928,-0.6273,-0.6904,-0.7628,-0.8006,-0.801,-0.8244,-0.8493,-0.8865,-0.8493,-0.8584,-0.9042,-0.9133,-0.8857,-0.8359,-0.7829,-0.735,-0.6792,0.0,0.0,0.0,0.0,0.0,-0.7204,-0.8324,0.0,0.0,0.0,0.0,0.0,0.0,0.0,0.0,0.0,0.0,0.0,0.0,0.0,0.0,-1.3503,-1.3622,-1.3535,-1.2859,-1.0844,-0.8714,0.0,-0.684,-0.6063,-0.5001,0.0,0.0,0.0,0.0,0.0,-0.6428,-0.6781,-0.7058,-0.7232,-0.7163,-0.7033,-0.6855,-0.6745,-0.653,-0.6232,-0.6059,-0.5905,-0.5901,-0.5414,-0.5092,0.0,0.0,0.0,0.0,0.0,0.0,0.0,0.0,0.0,0.0,0.0,0.0,0.0,0.0,0.0,0.0,0.0,0.0,0.0,0.0,0.0,0.0,0.0,0.0,0.0,0.0,0.0,0.0,-0.4232,-0.4338,-0.4513,-0.467,-0.4631,0.0,0.0,0.0,0.0,0.0,0.0,-0.5338,-0.545,-0.6023,-0.7155,-0.7293,-0.7754,-0.8495,-0.8804,-0.8958,-0.8958,-0.9145,-0.9234,-0.9234,-0.9234,-0.9234,-0.9234,-0.942,-0.9514,-0.9635,-0.8785,-0.841,-0.8286,-0.8023,-0.7786,-0.7611,-0.841,-0.8543,-0.8548,-1.0011,-1.1044,-1.171,-1.1898,0.0,-1.2081,-1.0929,0.0,0.0,0.0,0.0,-1.1827,-1.3016,-1.3327,-1.3543,-1.4321,-1.4398,-1.4181,-1.3932,-1.2412,-1.0588,0.0,-0.8088,-0.7283,-0.5822,0.0,0.0,0.0,0.0,-0.6444,-0.6966,-0.711,-0.7293,-0.7464,-0.7366,-0.722,-0.7037,-0.6851,-0.6615,-0.6371,-0.626,-0.6212,-0.623,-0.5932,-0.5703,0.0,0.0,0.0,0.0,0.0,0.0,0.0,0.0,0.0,0.0,0.0,0.0,0.0,0.0,0.0,0.0,0.0,0.0,0.0,0.0,0.0,0.0,0.0,0.0,0.0,0.0,0.0,0.0,0.0,0.0,-0.5546,-0.6307,0.0,0.0,0.0,0.0,-0.5883,-0.5617,-0.5854,-0.672,-0.7012,-0.7584,-0.8649,-0.8669,-0.8861,-0.9056,-0.9238,-0.9328,-0.9328,-0.9514,-0.96,-0.96,-0.96,-0.96,-0.96,-0.96,-0.9895,-1.0338,-0.9925,-0.938,-0.8831,-0.9315,-0.8774,-0.7808,-0.9081,-0.9233,-0.9078,-1.083,-1.1929,-1.2802,-1.4084,-1.4028,-1.3436,-1.3016,-1.2269,0.0,0.0,-1.3365,-1.3967,-1.5099,-1.5348,-1.534,-1.549,-1.5182,-1.4815,-1.4815,-1.3484,-1.1921,0.0,-0.8614,-0.7196,-0.697,0.0,-0.6566,-0.6392,-0.6538,-0.6737,-0.6999,-0.711,-0.7293,-0.7464,-0.7476,-0.7399,-0.7224,-0.7045,-0.6863,-0.668,-0.6404,-0.6325,-0.6554,-0.6256,-0.6018,-0.5977,-0.5339,0.0,0.0,0.0,0.0,0.0,0.0,0.0,0.0,0.0,0.0,0.0,0.0,0.0,0.0,0.0,0.0,0.0,0.0,0.0,0.0,0.0,0.0,0.0,0.0,0.0,0.0,0.0,0.0,-0.7963,-0.8814,0.0,0.0,-0.9005,-0.9239,-0.9295,-0.9262,-0.9504,-1.0113,-0.9589,-0.9499,-1.0175,-0.9537,-0.9254,-0.9437,-0.9498,-0.9531,-0.9531,-0.9596,-0.9628,-0.9628,-0.9628,-0.9628,-0.9628,-0.9628,-0.9727,-0.9903,-0.9904,-1.0085,-1.0168,-1.0234,-0.9924,-0.9598,-1.0121,-1.0592,-1.1033,-1.1652,-1.2922,-1.4333,-1.5224,-1.5326,-1.4996,-1.4681,-1.4483,-1.4405,-1.4778,-1.5183,-1.5562,-1.5798,-1.5855,-1.5708,-1.5466,-1.5239,-1.5076,-1.4987,-1.4007,-1.2958,-1.2251,-1.0172,-0.8334,-0.7493,-0.7338,-0.7309,-0.7131,-0.7261,-0.7403,-0.754,-0.7529,-0.7545,-0.7488,-0.7484,-0.7411,-0.724,-0.7058,-0.6879,-0.6708,-0.6481,-0.6349,-0.6411,-0.6276,-0.6215,-0.6123,-0.5752,-0.5353,0.0,0.0,0.0,0.0,0.0,0.0,0.0,0.0,0.0,0.0,0.0,0.0,0.0,0.0,0.0,0.0,0.0,0.0,0.0,0.0,0.0,0.0,0.0,0.0,0.0,0.0,-0.955,-0.9689,-1.072,-1.1292,-1.0935,-1.1359,-1.1706,-1.1781,-1.177,-1.1751,-1.1525,-1.0982,-1.0599,-1.0491,-0.9833,-0.9506,-0.9624,-0.9628,-0.9628,-0.9628,-0.9628,-0.9628,-0.9628,-0.9628,-0.9628,-0.9628,-0.9628,-0.9628,-0.9723,-0.992,-1.0338,-1.0885,-1.0744,-1.0688,-1.0783,-1.0783,-1.1244,-1.189,-1.2631,-1.3927,-1.5372,-1.6099,-1.6323,-1.6191,-1.5972,-1.606,-1.6235,-1.6235,-1.6455,-1.6606,-1.6252,-1.6161,-1.607,-1.5622,-1.5366,-1.5291,-1.5201,-1.4572,-1.3808,-1.2897,-1.1338,-0.9907,-0.8843,-0.8573,-0.8354,-0.8155,-0.8003,-0.7845,-0.7845,-0.7845,-0.7776,-0.7598,-0.7577,-0.7504,-0.733,-0.709,-0.6974,-0.679,-0.6639,-0.6476,-0.6411,-0.6342,-0.6319,-0.6281,-0.629,-0.6095,-0.5743,0.0,0.0,0.0,0.0,0.0,0.0,0.0,0.0,0.0,0.0,0.0,0.0,0.0,0.0,0.0,0.0,0.0,0.0,0.0,0.0,0.0,0.0,0.0,-1.0238,-1.0172,-1.0385,-1.0483,-1.2008,-1.2782,-1.2419,-1.2845,-1.3221,-1.3221,-1.286,-1.2099,-1.1072,-1.1163,-1.0788,-0.9723,-0.9624,-0.9628,-0.9636,-0.9632,-0.964,-0.9644,-0.9644,-0.9644,-0.9644,-0.9644,-0.9644,-0.9644,-0.9644,-0.9739,-1.0027,-1.0027,-1.0319,-1.0806,-1.0801,-1.0998,-1.1194,-1.1194,-1.1194,-1.158,-1.3596,-1.5032,-1.5988,-1.6951,-1.7121,-1.6872,-1.6872,-1.6872,-1.6872,-1.6872,-1.7091,-1.7138,-1.6676,-1.6581,-1.6494,-1.592,-1.5611,-1.5411,-1.5411,-1.519,-1.443,-1.2489,-1.2029,-1.1723,-1.1063,-1.0233,-0.9578,-0.9437,-0.8595,0.0,-0.802,-0.802,-0.7955,-0.7784,-0.7768,-0.7695,-0.7504,-0.7163,-0.7032,-0.7023,-0.6806,-0.6642,-0.6589,-0.6524,-0.6452,-0.6601,-0.6905,-0.7091,-0.7231,0.0,0.0,0.0,0.0,0.0,0.0,0.0,0.0,0.0,0.0,0.0,0.0,0.0,0.0,0.0,0.0,0.0,0.0,0.0,0.0,0.0,0.0,-1.4356,-1.2704,-1.3297,-1.3787,-1.3432,-1.4132,-1.4694,-1.4537,-1.4832,-1.5086,-1.5086,-1.4948,-1.4463,-1.3414,-1.2694,-1.1853,-1.0788,-1.0788,-1.0861,-1.1016,-1.0911,-1.0979,-1.1225,-1.042,-1.0014,-1.0014,-1.0014,-1.0014,-1.0014,-1.0014,-1.0039,-0.9911,-0.9911,-1.0037,-1.0216,-1.0609,-1.0998,-1.1194,-1.1194,-1.2155,-1.3596,-1.4937,-1.6082,-1.6943,-1.7232,-1.7267,-1.7201,-1.7201,-1.7201,-1.7201,-1.7201,-1.7181,-1.6972,-1.6683,-1.6494,-1.6218,-1.5927,-1.5765,-1.5712,-1.5712,-1.5651,-1.5338,-1.4654,-1.446,-1.3314,-0.9972,-0.9199,-0.8962,-0.8867,-0.8587,0.0,-0.8231,-0.8215,-0.8146,-0.7963,-0.7943,-0.7874,-0.7699,-0.7358,-0.7163,0.0,-0.6698,-0.6502,-0.6782,-0.7106,-0.7585,-0.8207,-0.8202,-0.8128,0.0,0.0,0.0,0.0,0.0,0.0,0.0,0.0,0.0,0.0,0.0,0.0,0.0,0.0,0.0,0.0,0.0,0.0,0.0,0.0,0.0,0.0,-1.6397,-1.7054,-1.6244,-1.6033,-1.5856,-1.5518,-1.5565,-1.5578,-1.5578,-1.5732,-1.5832,-1.5832,-1.5832,-1.535,-1.4394,-1.3808,-1.3073,-1.2092,-1.2178,-1.2294,-1.243,-1.2324,-1.2186,-1.1902,-1.1187,-1.0672,-1.016,-1.016,-1.0468,0.0,-1.0369,-1.0406,-1.0706,-1.0305,-1.0247,0.0,0.0,0.0,0.0,0.0,-1.2635,-1.3884,-1.5317,-1.6177,-1.6756,-1.7138,-1.7326,-1.7326,-1.7326,-1.7326,-1.7326,-1.7326,-1.7153,-1.6979,-1.6683,-1.6407,-1.613,-1.5832,-1.5832,-1.5832,-1.5832,-1.5832,-1.5589,-1.5042,0.0,0.0,-1.0837,-1.0615,-1.058,-1.0023,-0.9641,-0.9134,-0.8517,-0.8406,-0.8337,-0.815,-0.8455,-0.8626,-0.8519,-0.8453,0.0,0.0,0.0,-0.784,-0.798,-0.8071,0.0,0.0,0.0,0.0,0.0,0.0,0.0,0.0,-0.9085,-0.9032,0.0,0.0,0.0,0.0,0.0,0.0,0.0,0.0,0.0,0.0,0.0,0.0,0.0,0.0,0.0,0.0,-1.8893,-2.0098,-2.0075,-1.8514,-1.7247,-1.7024,-1.6406,-1.592,-1.5832,-1.5832,-1.5832,-1.5832,-1.5858,-1.5395,-1.4437,0.0,0.0,0.0,0.0,-1.3755,-1.3782,-1.3782,-1.328,-1.2383,-1.2181,-1.1666,-1.0636,-1.0636,-1.115,-1.2077,-1.1045,-1.1241,-1.2142,-1.1223,-1.101,-1.116,-1.0711,-1.0757,-1.1227,-1.2288,-1.2851,-1.3301,-1.5127,0.0,0.0,-1.7044,-1.7326,-1.7326,-1.7326,-1.7326,-1.7326,-1.7326,-1.7153,-1.6878,-1.6683,-1.6407,-1.6123,-1.5832,-1.5832,-1.5832,-1.5832,-1.5832,-1.554,-1.4682,-1.449,-1.4118,-1.3019,-1.324,-1.3085,-1.202,-1.1094,-1.022,-0.9143,-0.8945,-0.8869,-0.8679,0.0,0.0,-0.9606,-0.9922,-1.0268,-1.0432,-1.0165,-0.987,-0.9713,-0.9383,-0.956,-1.0247,-1.037,-1.1024,-1.208,-1.208,-1.2328,-1.2582,-1.0343,-1.008,0.0,0.0,0.0,0.0,0.0,0.0,0.0,0.0,0.0,0.0,0.0,0.0,0.0,0.0,0.0,-1.9807,-2.1308,-2.2332,-2.1787,-2.0974,-1.9749,-1.7764,-1.7188,-1.6669,-1.5927,-1.5832,-1.5832,-1.5832,-1.6052,-1.5693,-1.471,-1.4965,0.0,-1.3571,-1.4439,-1.4981,-1.519,-1.508,-1.507,-1.5065,0.0,0.0,-1.3362,-1.3362,-1.3464,-1.3683,-1.3464,-1.3572,-1.3712,-1.2685,-1.2377,-1.2622,-1.1825,-1.1996,-1.2631,-1.283,-1.3871,-1.5222,-1.5697,-1.6372,-1.7044,-1.7232,-1.7326,-1.7326,-1.7326,-1.7326,0.0,-1.7326,-1.6958,-1.6683,-1.6588,-1.6211,-1.5832,-1.5832,-1.5832,-1.5832,-1.5832,-1.5832,-1.573,-1.554,-1.554,-1.5425,-1.5171,-1.379,-1.2598,-1.2177,-1.1962,-1.1695,-1.1201,-1.117,-1.1082,-1.0763,-1.0914,-1.09,-1.0741,-1.0708,-1.0617,-1.0599,-1.0462,-1.0511,-1.0843,-1.0943,-1.1295,-1.1969,-1.2042,-1.2296,-1.2819,-1.2819,-1.3126,-1.3682,-1.2625,-1.2373,0.0,0.0,0.0,0.0,0.0,0.0,0.0,0.0,0.0,0.0,0.0,-1.9463,0.0,0.0,-2.2342,-2.2477,-2.3035,-2.3474,-2.3353,-2.263,-2.132,-1.9413,-1.8596,-1.7956,-1.7404,-1.7311,-1.7196,-1.6798,-1.6952,-1.6619,-1.578,-1.6055,-1.5998,-1.5372,-1.6028,-1.6484,-1.6625,-1.6514,-1.6262,-1.5861,-1.5429,-1.4894,-1.4352,-1.4454,-1.4883,-1.5417,-1.4776,-1.4915,-1.544,-1.4389,-1.4217,-1.4421,-1.4008,-1.399,-1.4165,-1.4666,-1.5474,-1.6343,-1.6836,-1.7423,-1.7786,-1.7625,-1.7574,-1.7545,-1.7377,-1.7326,-1.7326,-1.7326,-1.7052,-1.6784,-1.6784,-1.6494,-1.6211,-1.6021,-1.6028,-1.5927,-1.5832,-1.5832,-1.5832,-1.5832,-1.5832,-1.5832,-1.5832,-1.4842,-1.389,-1.3171,-1.313,-1.2854,-1.2068,-1.2035,-1.1852,-1.1614,-1.1936,-1.2095,-1.1843,-1.2246,-1.2479,-1.2376,-1.2325,-1.2384,-1.2586,-1.2572,-1.2721,-1.325,-1.325,-1.3411,-1.374,-1.374,-1.3901,-1.4223,-1.4055,-1.3975,0.0,0.0,0.0,0.0,0.0,0.0,0.0,0.0,-1.9324,-1.9477,-2.0965,-2.2194,-2.2184,-2.327,-2.4318,-2.4803,-2.4448,-2.4231,-2.4447,-2.356,-2.2422,-2.1141,-2.0042,-1.9231,-1.8872,-1.8788,-1.8474,-1.7882,-1.7874,-1.7652,-1.6874,-1.7177,-1.7338,-1.7338,-1.7566,-1.7687,-1.7793,-1.7793,-1.7252,-1.6393,-1.6611,-1.6187,-1.5322,-1.5524,-1.6162,-1.7022,-1.6162,-1.6168,-1.6704,-1.638,-1.6174,-1.6293,-1.6499,-1.6327,-1.6024,-1.6686,-1.6934,-1.7186,-1.7995,-1.8299,-1.8255,-1.7991,-1.7911,-1.7845,-1.7523,-1.7421,-1.7406,-1.7347,-1.7153,-1.6979,-1.6979,-1.6784,-1.6588,-1.6312,-1.6312,-1.6218,-1.6021,-1.592,-1.5927,-1.5927,-1.5927,-1.5927,-1.5927,-1.5927,-1.5556,-1.4472,-1.4341,-1.3963,-1.2957,-1.2831,-1.2734,-1.2483,-1.3081,-1.3417,-1.323,-1.3911,-1.4342,-1.4252,-1.4176,-1.4077,-1.4077,-1.3821,-1.3806,-1.407,-1.4077,-1.4238,-1.456,-1.456,-1.4626,-1.4757,-1.5013,-1.5094,-1.5249,-1.6033,-1.6785,-1.7533,-1.8208,-1.9305,0.0,0.0,-2.2727,-2.3634,-2.4761,-2.5529,-2.5577,-2.6447,-2.7014,-2.6324,-2.5847,-2.5346,-2.4573,-2.3647,-2.296,-2.2608,-2.1329,-2.0051,-1.9139,-1.8872,-1.8474,-1.7882,-1.8259,-1.8074,-1.7183,-1.759,-1.7864,-1.7864,-1.7891,-1.8115,-1.8318,-1.8318,-1.8213,-1.8101,-1.8101,-1.8101,-1.7996,-1.7996,-1.8101,-1.8206,-1.8429,-1.7898,-1.7134,-1.8311,-1.8318,-1.747,-1.8527,-1.8909,-1.8712,-1.7497,-1.7535,-1.8101,-1.8299,-1.8299,-1.8299,-1.8262,-1.8247,-1.8189,-1.786,-1.7765,-1.7699,-1.7406,-1.7153,-1.6979,-1.6979,-1.6784,-1.6581,-1.6588,-1.6588,-1.6588,-1.6487,-1.6487,-1.64,-1.6218,-1.613,-1.613,-1.613,-1.613,-1.6015,-1.569,-1.5589,-1.5483,-1.5101,-1.5068,-1.5041,-1.4917,-1.4972,-1.5035,-1.4916,-1.4698,-1.4596,-1.456,-1.451,-1.4414,-1.4414,-1.4377,-1.4377,-1.4414,-1.4414,-1.4567,-1.4889,-1.4889,-1.5189,-1.5752,-1.5789,-1.565,-1.7776,-1.8706,0.0,0.0,-2.0694,-2.1981,-2.2799,-2.3688,-2.4554,-2.5288,-2.6286,-2.7043,-2.7043,-2.7669,-2.8016,0.0,-2.6617,-2.5652,-2.5326,-2.3983,-2.3057,-2.2969,-2.2334,-2.1606,-2.106,-2.097,-2.0772,-2.0338,-2.052,-2.0353,-1.989,-1.9354,-1.9124,-1.9124,-1.852,-1.8325,-1.8422,-1.8422,-1.8422,-1.8422,-1.8646,-1.8646,-1.8653,-1.8855,-1.8959,-1.8952,-1.9071,-1.8855,-1.8422,-1.9063,-1.9063,-1.8639,-1.9063,-1.9279,-1.9257,-1.8594,-1.8568,-1.8869,-1.8869,-1.8869,-1.884,-1.865,-1.8584,-1.8525,-1.8196,-1.8101,-1.8028,-1.7706,-1.7523,-1.7384,-1.7203,-1.7052,-1.6958,-1.6878,-1.6784,-1.6784,-1.6588,-1.6588,-1.6588,-1.6494,-1.64,-1.64,-1.64,-1.64,-1.64,-1.6298,-1.6305,-1.6257,-1.6133,-1.6113,-1.5996,-1.5875,-1.568,-1.5609,-1.5658,-1.5333,-1.5252,-1.5336,-1.5122,-1.5028,-1.5028,-1.5028,-1.5028,-1.5028,-1.5028,-1.5182,-1.5511,-1.5511,-1.5738,-1.6177,-1.6177,-1.6206,-1.9454,0.0,0.0,-2.1187,-2.2739,-2.4133,-2.3893,-2.4951,-2.6045,-2.6274,-2.7067,-2.7669,-2.7536,-2.7933,0.0,-2.8294,-2.7082,-2.6163,-2.6163,-2.4659,-2.3474,-2.3474,-2.3135,-2.2794,-2.2608,-2.2441,-2.2323,-2.2097,-2.215,-2.2083,-2.1711,-2.0947,-2.0546,-2.0546,-1.9842,-1.9339,-1.9042,-1.9042,-1.8938,-1.8639,-1.8862,-1.8974,-1.8974,-1.9175,-1.9323,-1.9403,-1.9316,-1.933,-1.9403,-1.9316,-1.9279,-1.9279,-1.9279,-1.9279,-1.9279,-1.9279,-1.9279,-1.9279,-1.9279,-1.9279,-1.9235,-1.9001,-1.8921,-1.8862,-1.8533,-1.8438,-1.8364,-1.8043,-1.7947,-1.7874,-1.7545,-1.7465,-1.7348,-1.7174,-1.7066,-1.7066,-1.6871,-1.677,-1.677,-1.6683,-1.6683,-1.6683,-1.6683,-1.6683,-1.6777,-1.677,-1.677,-1.677,-1.6581,-1.6683,-1.6598,-1.6472,-1.6161,-1.6059,-1.6246,-1.5958,-1.5864,-1.6045,-1.5818,-1.5687,-1.5687,-1.5687,-1.5687,-1.5687,-1.5687,-1.5804,-1.6038,-1.6038,-1.6199,-1.6506,-1.6506,-1.6674,0.0,0.0,-2.1789,-2.2718,-2.4097,-2.5396,-2.5889,-2.6851,-2.7512,-2.7007,-2.7344,-2.756,-2.7055,-2.7392,-2.7741,-2.7741,-2.7437,-2.7185,-2.7185,-2.5589,-2.4498,-2.4498,-2.3647,-2.3057,0.0,-2.2706,-2.2323,-2.2097,-2.2339,-2.2276,-2.1711,-2.187,-2.2089,-2.2089,-2.1979,-2.1582,-2.0783,-2.0783,-2.0277,-1.9272,-1.9279,-1.9279,-1.9279,-1.9279,-1.9447,-1.9733,-1.9411,-1.9455,-1.9725,-1.9403,-1.9279,-1.9279,-1.9279,-1.9279,-1.9279,-1.9279,-1.9279,-1.9279,-1.9279,-1.9279,-1.9279,-1.9264,-1.9257,-1.9199,-1.8877,-1.8774,-1.8708,-1.8379,-1.8284,-1.8211,-1.7882,-1.7801,-1.7721,-1.7406,-1.7333,-1.7333,-1.7232,-1.7232,-1.7239,-1.7073,-1.6979,-1.6979,-1.6979,-1.6979,-1.7066,-1.7239,-1.7232,-1.7145,-1.6676,-1.6784,-1.6972,-1.6965,-1.6948,-1.6843,-1.6843,-1.6543,-1.6352,-1.6352,-1.6345,-1.6338,-1.6338,-1.6338,-1.6338,-1.6338,-1.6338,-1.6345,-1.6352,-1.6352,-1.6521,-1.6835,-1.6835,-1.7011,0.0,0.0,-2.3935,-2.4852,-2.5985,-2.6959,-2.7128,-2.7464,-2.7669,-2.7488,-2.6629,-2.6052,-2.6332,-2.6143,-2.6229,-2.7064,-2.6921,-2.6795,-2.7139,-2.5673,-2.4498,-2.4498,-2.3647,0.0,0.0,0.0,0.0,-2.3597,-2.3756,-2.3928,-2.4356,-2.3791,-2.3393,-2.3393,-2.2785,-2.2291,-2.1988,-2.1988,-2.191,-2.1832,-2.2094,-2.2322,-2.2322,-2.2322,-2.2388,-2.2503,-2.2379,-2.1731,-2.0876,-2.0759,-2.0172,-1.9279,-1.9279,-1.9279,-1.9279,-1.9279,-1.9279,-1.9279,-1.9279,-1.9279,-1.9279,-1.9279,-1.9279,-1.9257,-1.9147,-1.9111,-1.9045,-1.8716,-1.8628,-1.8547,-1.8225,-1.8138,-1.8057,-1.7728,-1.7655,-1.7589,-1.7377,-1.7326,-1.7232,-1.7239,-1.7246,-1.7246,-1.7246,-1.7246,-1.7239,-1.7333,-1.7326,-1.7232,-1.7044,-1.7145,-1.7246,-1.7246,-1.7145,-1.7172,-1.7172,-1.6879,-1.6689,-1.6689,-1.6491,-1.6367,-1.6367,-1.6367,-1.6367,-1.6367,-1.6367,-1.6477,-1.6689,-1.6689,-1.6857,-1.7172,-1.7172,-1.7223,-2.3276,-2.4414,-2.5247,-2.637,-2.72,-2.7717,-2.7717,-2.7717,-2.7483,-2.6669,-2.5616,-2.4884,-2.4921,-2.459,-2.4754,-2.591,-2.5977,-2.6186,-2.7059,-2.5673,-2.4584,-2.4914,-2.4038,0.0,0.0,0.0,0.0,-2.4375,-2.456,-2.4971,-2.5693,-2.502,-2.4707,-2.4707,-2.3998,-2.3573,-2.3314,-2.3314,-2.3295,-2.3358,-2.3625,-2.3745,-2.3745,-2.3745,-2.3814,-2.3934,-2.3805,-2.336,-2.2486,-2.2223,-2.1466,-2.0654,-2.0529,-2.0483,-2.038,-1.9975,-1.9879,-1.9776,-1.948,-1.9279,-1.9279,-1.9279,-1.9279,-1.9279,-1.9279,-1.9279,-1.9235,-1.9023,-1.8964,-1.8884,-1.8562,-1.8474,-1.8394,-1.8064,-1.7991,-1.7933,-1.7721,-1.7582,-1.7501,-1.7501,-1.7406,-1.7326,-1.7326,-1.7326,-1.7326,-1.7326,-1.7326,-1.7326,-1.7326,-1.7326,-1.7326,-1.7326,-1.7326,-1.7326,-1.7326,-1.7143,-1.7026,-1.7026,-1.6828,-1.6711,-1.6711,-1.6711,-1.6711,-1.6711,-1.6711,-1.6813,-1.7026,-1.7026,-1.7128,-1.7326,-1.7326,-1.7326,-2.4414,-2.5126,-2.5805,-2.7368,-2.7741,-2.7717,-2.7717,-2.7555,-2.6876,-2.4737,-2.4248,-2.3875,0.0,0.0,-2.3328,-2.4526,-2.4855,-2.5451,-2.7048,-2.5779,-2.4946,0.0,0.0,0.0,0.0,0.0,0.0,-2.4453,0.0,-2.5264,-2.5713,-2.5742,-2.5742,-2.5742,-2.5762,-2.5465,-2.484,-2.4886,-2.4678,-2.3991,-2.4008,-2.4017,-2.4017,-2.4017,-2.4199,-2.4511,-2.4164,-2.4199,-2.4334,-2.36,-2.3178,-2.31,-2.2655,-2.2501,-2.2391,-2.1387,-2.0987,-2.0885,-1.9776,-1.9376,-1.9279,-1.9279,-1.9279,-1.9279,-1.9279,-1.9279,-1.9272,-1.9383,-1.9376,-1.9206,-1.8993,-1.8912,-1.873,-1.8401,-1.8328,-1.8321,-1.8306,-1.8057,-1.7838,-1.7838,-1.7574,-1.7347,-1.7333,-1.7326,-1.7326,-1.7326,-1.7326,-1.7326,-1.7326,-1.7326,-1.7326,-1.7326,-1.7326,-1.7326,-1.7326,-1.7326,-1.7326,-1.7326,-1.7326,-1.7326,-1.7326,-1.7326,-1.7326,-1.7326,-1.7326,-1.7326,-1.7326,-1.7326,-1.7326,-1.7419,-1.7326,-1.7326,-2.5014,-2.6178,-2.7296,-2.8114,-2.8017,-2.7717,-2.7717,-2.6181,-2.4543,-2.4041,-2.1939,-2.025,0.0,0.0,0.0,-2.3795,-2.5385,0.0,-2.8012,-2.7589,0.0,0.0,0.0,-2.5048,-2.4349,-2.4648,0.0,0.0,-2.5,-2.5264,-2.5713,-2.5742,-2.5742,-2.5742,-2.6055,-2.617,-2.5977,-2.6602,-2.6864,-2.675,-2.7055,-2.7197,-2.7197,-2.7197,-2.7147,-2.7242,-2.7138,-2.6542,-2.5566,-2.5367,-2.4402,-2.3126,-2.3031,-2.2723,-2.2492,-2.2181,-2.2089,-2.2089,-2.1785,-2.0688,-1.9279,-1.9279,-1.9279,-1.9279,-1.9279,-1.9279,-1.948,-2.0285,-1.9879,-1.9457,-2.0177,-1.9751,-1.9067,-1.8745,-1.8664,-1.8599,-1.8357,-1.824,-1.8174,-1.8174,-1.7911,-1.7611,-1.7369,-1.7326,-1.7326,-1.7326,-1.7326,-1.7326,-1.7326,-1.7326,-1.7326,-1.7326,-1.7326,-1.7326,-1.7326,-1.7326,-1.7326,-1.7326,-1.7326,-1.7326,-1.7326,-1.7326,-1.7326,-1.7326,-1.7326,-1.7326,-1.7326,-1.7326,-1.7692,-1.8427,-1.7699,-1.8056,-2.6178,-2.7212,-2.8138,-2.8438,-2.8114,-2.7476,-2.6538,-2.4992,-2.3372,-2.193,-2.0157,0.0,0.0,0.0,0.0,0.0,0.0,0.0,-2.769,-2.761,-2.733,0.0,-2.6622,0.0,-2.542,-2.5372,-2.5361,0.0,-2.5361,-2.5469,-2.5723,-2.5742,-2.582,-2.6016,-2.626,-2.6572,-2.6943,-2.7607,-2.7939,-2.7949,-2.8174,-2.8291,-2.8291,-2.8291,-2.8291,-2.8291,0.0,-2.7825,-2.7043,-2.6863,-2.6076,-2.5085,-2.4738,-2.4363,-2.4145,-2.3456,-2.3185,-2.3085,-2.2685,-2.1684,-2.068,-2.068,-2.068,-2.068,-2.068,-2.068,-2.0783,-2.1387,-2.1191,-2.0885,-2.1489,-2.1183,-2.0633,-2.0436,-2.0389,-2.0334,-2.0137,-1.969,-1.9056,-1.8427,-1.8035,-1.7757,-1.7574,-1.7421,-1.7326,-1.7326,-1.7326,-1.7326,-1.7326,-1.7326,-1.7326,-1.7326,-1.7326,-1.7326,-1.7326,-1.7326,-1.7326,-1.7326,-1.7326,-1.7326,-1.7326,-1.7326,-1.7512,-1.7971,-1.7971,-1.8149,-1.8603,-1.8603,-1.8872,-1.9422,-1.8872,-1.9147,-2.7396,-2.8102,-2.8498,-2.8426,-2.7957,-2.6959,-2.4891,-2.3857,-2.2428,-1.939,0.0,0.0,-1.782,0.0,-1.9749,-2.2027,0.0,-2.4422,-2.7002,-2.7228,-2.7323,-2.8035,-2.7401,-2.6795,-2.6703,-2.6064,-2.5742,-2.5742,-2.5742,-2.5742,-2.5742,-2.5742,-2.5967,-2.6455,-2.6523,-2.6943,-2.7744,-2.8115,-2.8291,-2.8291,-2.8291,-2.8291,-2.8291,-2.8291,-2.8291,-2.8291,0.0,0.0,-2.8262,-2.79,-2.7715,-2.7588,-2.6846,-2.6484,-2.6238,-2.4923,-2.4341,-2.4196,-2.3294,-2.2894,-2.2894,-2.2593,-2.2484,-2.2484,-2.2484,-2.2484,-2.2492,-2.2685,-2.2593,-2.2484,-2.2685,-2.2593,-2.2484,-2.2484,-2.2484,-2.2484,-2.2484,-2.1537,-2.0321,-1.9003,-1.8514,-1.829,-1.8207,-1.7946,-1.7744,-1.7699,-1.7606,-1.7512,-1.7512,-1.7419,-1.7326,-1.7326,-1.7326,-1.7326,-1.7326,-1.7326,-1.7326,-1.7326,-1.7326,-1.7326,-1.7326,-1.7419,-1.7878,-1.8788,-1.888,-1.9422,-2.0232,-2.0232,-2.0232,-2.0421,-2.0232,-2.0322,-2.7806,-2.8312,-2.8615,-2.7957,-2.7115,-2.5937,-2.4345,-2.2261,0.0,0.0,0.0,-1.6539,-1.6392,-1.7908,0.0,-2.1892,0.0,0.0,0.0,0.0,-2.9244,0.0,0.0,0.0,0.0,0.0,0.0,0.0,0.0,0.0,-2.5742,-2.5742,-2.6094,-2.6885,-2.7256,-2.7685,-2.8174,-2.8262,-2.8291,-2.8291,-2.8291,-2.8291,-2.8291,-2.8291,-2.8291,-2.8291,0.0,0.0,-2.8281,-2.8213,-2.7978,-2.7646,-2.75,-2.7012,-2.6377,-2.609,-2.573,-2.543,-2.5226,-2.5128,-2.4824,-2.3094,-2.2484,-2.2484,-2.2484,-2.2484,-2.2685,-2.3583,-2.3185,-2.2685,-2.3583,-2.3185,-2.2484,-2.2484,-2.2484,-2.2484,-2.2484,-2.2332,-2.1979,-2.1509,-2.1285,-2.105,-2.0439,-2.028,-2.0138,-1.9737,-1.9055,-1.8519,-1.8519,-1.7785,-1.7326,-1.7326,-1.7326,-1.7326,-1.7326,-1.7326,-1.7326,-1.7326,-1.7326,-1.7326,-1.7326,-1.8064,-1.8603,-1.8788,-1.9604,-2.0051,-2.0232,-2.0232,-2.0602,-2.1418,-2.0602,-2.1051,-2.8439,-2.8687,-2.867,-2.7992,-2.6962,-2.5539,-2.3487,0.0,0.0,0.0,0.0,-1.6729,-1.6461,0.0,0.0,0.0,0.0,0.0,0.0,0.0,0.0,0.0,0.0,0.0,0.0,0.0,0.0,0.0,0.0,0.0,-2.5732,-2.6162,-2.6592,-2.7002,-2.7656,-2.8086,-2.8291,-2.8291,-2.8291,-2.8291,-2.8291,-2.8291,-2.8291,-2.8291,-2.8291,-2.8291,-2.8291,0.0,-2.8291,-2.8291,-2.8174,-2.7969,-2.7754,-2.7275,-2.6689,-2.6465,-2.6113,-2.5742,-2.5742,-2.5742,-2.5538,-2.452,-2.4214,-2.4214,-2.4214,-2.4214,-2.4313,-2.4815,-2.451,-2.4313,-2.4815,-2.451,-2.4214,-2.4214,-2.4214,-2.4007,-2.3493,-2.3285,-2.3132,-2.2352,-2.2154,-2.1905,-2.1535,-2.1311,-2.1053,-2.0675,-2.0163,-1.982,-1.972,-1.933,-1.8603,-1.7419,-1.7326,-1.7326,-1.7326,-1.7326,-1.7326,-1.7326,-1.7326,-1.7598,-1.8234,-1.8688,-1.9505,-2.0683,-2.1132,-2.1587,-2.2031,-2.2031,-2.2306,-2.2765,-2.2306,-2.258,-2.8741,-2.8954,-2.8712,-2.7989,-2.6868,-2.5305,-2.267,-2.1242,0.0,0.0,0.0,-1.7435,-1.6909,0.0,0.0,0.0,0.0,0.0,0.0,0.0,0.0,0.0,0.0,0.0,0.0,0.0,0.0,0.0,0.0,0.0,0.0,-2.6553,-2.7012,-2.7012,-2.7851,-2.8291,-2.8291,-2.8291,-2.8291,-2.8291,-2.8291,-2.8291,-2.8291,-2.8291,-2.8291,-2.8291,-2.8291,0.0,0.0,-2.8291,-2.8291,-2.8262,-2.793,-2.7529,-2.7109,-2.668,-2.625,-2.5859,-2.5762,-2.5742,-2.5742,-2.5742,-2.5742,-2.5742,-2.5742,-2.5742,-2.5742,-2.5742,-2.5742,-2.5742,-2.5742,-2.5742,-2.5742,-2.5742,-2.5732,-2.5528,-2.4599,-2.4492,-2.4393,-2.3493,-2.3135,-2.2895,-2.2814,-2.2634,-2.2294,-2.191,-2.1671,-2.1437,-2.113,-2.0987,-2.0135,-1.8241,-1.8048,-1.8048,-1.8048,-1.8048,-1.8048,-1.8048,-1.8048,-1.8503,-1.9405,-1.9679,-2.0584,-2.2394,-2.258,-2.3028,-2.3841,-2.3841,-2.3841,-2.3841,-2.3841,-2.3841,-2.8387,-2.8969,-2.9015,-2.7602,-2.6493,-2.4988,-2.2284,0.0,0.0,0.0,-1.7787,-1.7625,-1.7076,-1.7454,0.0,0.0,0.0,0.0,0.0,0.0,0.0,0.0,0.0,0.0,0.0,0.0,0.0,0.0,0.0,0.0,0.0,-2.6553,-2.7012,-2.7012,-2.7851,-2.8291,-2.8291,-2.8291,-2.8291,-2.8291,-2.8291,-2.8291,-2.8291,-2.8291,-2.8291,-2.8291,0.0,0.0,0.0,-2.8291,-2.8291,-2.8291,-2.8252,-2.7978,-2.7559,-2.7119,-2.6689,-2.6269,-2.5879,-2.5742,-2.5742,-2.5742,-2.5742,-2.5742,-2.5742,-2.5742,-2.5742,-2.5742,-2.5742,-2.5742,-2.5742,-2.5742,-2.5742,-2.5742,-2.5917,-2.6004,-2.5635,-2.5917,-2.6197,-2.58,-2.5964,-2.5912,-2.5506,-2.5407,-2.5228,-2.4904,-2.4069,-2.3353,-2.2928,-2.2026,-2.1243,-2.061,-2.0576,-2.0576,-2.0576,-2.0576,-2.0576,-2.0576,-2.0576,-2.0666,-2.0755,-2.1578,-2.2208,-2.2394,-2.3212,-2.3744,-2.3841,-2.3841,-2.3841,-2.3841,-2.3841,-2.3841,-2.8562,-2.9234,-2.9252,-2.7903,-2.6639,-2.5121,-2.279,0.0,-2.0165,-1.8936,-1.863,-1.8422,-1.7974,-1.7854,-1.8122,-1.9077,-1.9369,-2.0428,0.0,0.0,0.0,0.0,0.0,0.0,0.0,0.0,0.0,0.0,0.0,0.0,0.0,-2.7785,-2.7895,-2.7895,-2.8753,-2.89,-2.8291,-2.8291,-2.8601,-2.9207,-2.8601,-2.8601,-2.9207,-2.8601,-2.8291,-2.8291,0.0,0.0,0.0,-3.0037,-3.0245,-3.0245,-3.0245,-2.9663,-2.8614,-2.8158,-2.7332,-2.6418,-2.653,-2.6648,-2.6733,-2.7295,-2.7484,-2.7295,-2.611,-2.5742,-2.5742,-2.5742,-2.5742,-2.5732,-2.5917,-2.6014,-2.6217,-2.6217,-2.6304,-2.6304,-2.6207,-2.6304,-2.6496,-2.64,-2.64,-2.6446,-2.6265,-2.6235,-2.6084,-2.5641,-2.5272,-2.4927,-2.4594,-2.4251,-2.3884,-2.3535,-2.1983,-2.0935,-2.0935,-2.0935,-2.0935,-2.0935,-2.0935,-2.1203,-2.1924,-2.2385,-2.2921,-2.3647,-2.4003,-2.4196,-2.4196,-2.4196,-2.4196,-2.4196,-2.4196,-2.4339,-2.8157,-2.9044,-2.9249,-2.8196,-2.696,-2.5439,0.0,0.0,-2.0608,-1.9531,-1.9213,-1.9026,-1.8592,-1.8226,-1.8112,-1.8377,-1.8414,-1.9271,-2.1753,0.0,0.0,0.0,0.0,0.0,0.0,0.0,0.0,0.0,0.0,0.0,0.0,-2.9467,-2.92,-2.8476,-2.9054,-2.9112,-2.8291,-2.8591,-2.9102,-2.9922,-2.9523,-2.9523,-2.9922,-2.9418,-2.9112,-2.8804,0.0,0.0,0.0,-3.1268,-3.1575,-3.1575,-3.1575,-3.0885,-2.9726,-2.9389,-2.8411,-2.7296,-2.7712,-2.7778,-2.7746,-2.8484,-2.8773,-2.8495,-2.7125,-2.6658,-2.6658,-2.6658,-2.6754,-2.6839,-2.702,-2.721,-2.7315,-2.7315,-2.741,-2.741,-2.741,-2.7505,-2.7505,-2.7146,-2.7146,-2.7061,-2.6784,-2.6784,-2.6577,-2.6263,-2.6212,-2.6154,-2.59,-2.5941,-2.5756,-2.5471,-2.3553,-2.2274,-2.2031,-2.1924,-2.1924,-2.1924,-2.1924,-2.2375,-2.3183,-2.327,-2.3637,-2.4454,-2.454,-2.454,-2.454,-2.454,-2.454,-2.4464,-2.4674,-2.4985,-2.6964,-2.8312,-2.9066,-2.8277,-2.7283,-2.5855,0.0,-2.1913,-2.0825,-1.9569,-1.9302,-1.9139,-1.8592,-1.85,-1.8394,-1.8044,-1.8758,-2.0169,-2.2474,0.0,0.0,0.0,0.0,0.0,0.0,0.0,0.0,0.0,0.0,0.0,0.0,-3.1395,-3.0676,-2.8566,-2.8346,-2.8291,-2.8291,-2.9313,-2.9922,-2.9922,-3.1062,-3.0959,-2.9922,-3.1062,-3.0959,0.0,0.0,0.0,0.0,-3.1575,-3.1575,-3.1575,-3.1575,-3.128,-3.0765,-3.0843,-3.0242,-2.9328,-2.9434,-2.9095,-2.868,-2.868,-2.8866,-2.8958,-2.8958,-2.8958,-2.8958,-2.8958,-2.9131,-2.9315,-2.9407,-2.9407,-2.9407,-2.9407,-2.9579,-2.967,-2.9407,-2.9784,-2.9795,-2.8505,-2.8527,-2.8362,-2.7441,-2.7262,-2.7262,-2.7251,-2.7251,-2.7086,-2.662,-2.6558,-2.6382,-2.5916,-2.5865,-2.5502,-2.4526,-2.4454,-2.4454,-2.4454,-2.4454,-2.4454,-2.4454,-2.4454,-2.4454,-2.454,-2.454,-2.454,-2.454,-2.454,-2.454,-2.4464,-2.5016,-2.5461,-2.4964,-2.6008,-2.6641,-2.553,-2.4654,-2.3705,-2.2152,-2.1383,-2.0715,-1.9708,-1.9603,-1.9573,-1.9124,-1.8784,-1.8918,-1.9967,-2.0149,0.0,0.0,0.0,0.0,0.0,0.0,0.0,0.0,0.0,0.0,0.0,0.0,0.0,0.0,0.0,-3.1134,-3.0111,-3.102,-3.1102,-2.9901,-3.1019,-3.1949,-3.2666,-3.2252,-3.2252,-3.2666,-3.2252,0.0,0.0,0.0,0.0,0.0,-3.361,-3.3819,-3.3819,-3.3819,-3.3208,-3.2417,-3.2188,-3.1359,-3.0406,-3.0687,-3.0627,-3.0526,-3.1019,-3.127,-3.1282,-3.1282,-3.0339,-2.9315,-2.9315,-2.9498,-2.967,-2.967,-2.9784,-2.9977,-2.9977,-2.9977,-3.0068,-2.9977,-3.0068,-3.0079,-2.9704,-2.9715,-2.9624,-2.9349,-2.8713,-2.8269,-2.8269,-2.7715,-2.721,-2.7055,-2.7044,-2.6868,-2.6403,-2.6351,-2.5989,-2.5088,-2.5016,-2.5016,-2.5016,-2.5016,-2.515,-2.544,-2.5461,-2.5461,-2.5461,-2.5461,-2.5461,-2.5461,-2.5461,-2.5461,-2.5461,-2.5927,-2.6216,0.0,-2.4873,-2.5444,-2.4626,-2.3961,-2.3243,-2.193,-2.1317,-2.0786,-1.9984,-1.9782,-1.9717,-1.9551,-1.9184,-1.9126,-1.9871,-2.0267,0.0,0.0,0.0,0.0,0.0,0.0,0.0,0.0,0.0,0.0,0.0,0.0,0.0,0.0,0.0,-3.1881,-3.1375,-3.1857,-3.1852,-3.1045,-3.2062,-3.307,-3.3993,-3.3674,-3.3674,-3.3993,-3.3674,0.0,0.0,0.0,0.0,0.0,-3.492,-3.5126,-3.5102,-3.4908,-3.4426,-3.3773,-3.3563,-3.2812,-3.216,-3.2512,-3.2388,-3.2189,-3.2933,-3.3293,-3.353,-3.3602,-3.219,-3.0687,-3.0777,-3.1122,-3.1464,-3.1134,-3.14,-3.1665,-3.1347,-3.1258,-3.1258,-3.1258,-3.1258,-3.1169,-3.08,-3.0711,-3.0621,-3.026,-2.9715,-2.9268,-2.9268,-2.8806,-2.8269,-2.7904,-2.7809,-2.761,-2.6952,-2.6827,-2.6537,-2.5802,-2.5575,-2.5471,-2.5471,-2.5471,-2.5595,-2.5865,-2.5875,-2.5875,-2.5875,-2.5875,-2.5875,-2.5875,-2.5875,-2.5968,-2.6144,-2.6434,-2.6662,0.0,-2.4477,0.0,0.0,-2.455,-2.3832,-2.2279,-2.1535,0.0,-2.0308,-1.9904,-1.9756,-2.0,-1.9728,-1.9269,-1.8625,0.0,0.0,0.0,0.0,0.0,0.0,0.0,0.0,0.0,0.0,0.0,0.0,0.0,0.0,0.0,0.0,-3.286,-3.2358,-3.1389,-3.1117,-3.1645,-3.2642,-3.3478,-3.4083,-3.5089,-3.5017,-3.413,-3.515,0.0,0.0,0.0,0.0,0.0,-3.562,-3.562,-3.5571,-3.5067,-3.4871,-3.4871,-3.4871,-3.4595,-3.4267,-3.4669,-3.4243,-3.3531,-3.4295,-3.4918,-3.5386,-3.5534,-3.4332,-3.2957,-3.3227,-3.3894,-3.4314,-3.3484,-3.3894,-3.4314,-3.3484,-3.3326,-3.3326,-3.3326,-3.324,-3.2884,-3.1977,-3.1713,-3.1448,-3.0531,-3.0351,-3.026,-3.026,-3.026,-2.9897,-2.8899,-2.8817,-2.8445,-2.762,-2.7536,-2.7359,-2.693,-2.6277,-2.5927,-2.5927,-2.5927,-2.5937,-2.5978,-2.5978,-2.5978,-2.5978,-2.5978,-2.5978,-2.5978,-2.5978,-2.6196,-2.662,-2.662,-2.6848,-2.1587,0.0,-2.2431,-2.1929,-2.1729,-2.1576,0.0,-2.1175,-2.1133,-2.0726,0.0,0.0,-2.143,-2.0828,0.0,0.0,0.0,0.0,0.0,0.0,0.0,0.0,0.0,0.0,0.0,0.0,0.0,0.0,0.0,0.0,0.0,0.0,-3.3045,-3.291,-3.2658,-3.2611,-3.2759,-3.3752,-3.4403,-3.4539,-3.4828,-3.4947,-3.5157,-3.545,0.0,0.0,0.0,0.0,-3.5908,-3.5716,-3.562,-3.5608,-3.5485,-3.5424,-3.5424,-3.5424,-3.5513,-3.5593,-3.5468,-3.5435,-3.5442,-3.5325,-3.5413,-3.5534,-3.5615,-3.5292,-3.4897,-3.4979,-3.5142,-3.5224,-3.5074,-3.5142,-3.5224,-3.5061,-3.4979,-3.4979,-3.4979,-3.4524,-3.4063,-3.3797,-3.3215,-3.2711,-3.2438,-3.1801,-3.1258,-3.1258,-3.0621,-3.0079,-2.9897,-2.9806,-2.9715,-2.9532,-2.9532,-2.9487,-2.9364,-2.7565,-2.6403,-2.6403,-2.6403,-2.6568,-2.692,-2.6931,-2.6931,-2.6931,-2.6931,-2.6931,-2.6931,-2.6931,-2.6993,-2.7096,-2.7096,-2.7148,-2.0826,-2.1628,-2.2313,-2.1908,-2.181,-2.1778,-2.1584,0.0,0.0,0.0,0.0,0.0,0.0,0.0,0.0,0.0,0.0,0.0,0.0,0.0,0.0,0.0,0.0,0.0,0.0,0.0,0.0,0.0,0.0,0.0,0.0,0.0,-3.3081,-3.3081,-3.3081,-3.3208,-3.3465,-3.4055,-3.4474,-3.4726,-3.4726,-3.4876,-3.5165,-3.5165,0.0,0.0,0.0,0.0,-3.5363,-3.5518,-3.5375,-3.5152,-3.5152,-3.5313,-3.5593,-3.576,-3.6067,-3.6509,-3.6717,-3.6833,-3.677,-3.6314,-3.6517,-3.6908,-3.6908,-3.6972,-3.688,-3.5855,-3.5869,-3.6108,-3.5695,-3.5869,-3.6108,-3.5695,-3.5615,-3.5615,-3.5615,-3.5237,-3.4924,-3.4924,-3.4607,-3.4121,-3.3738,-3.3288,-3.276,-3.2351,-3.1889,-3.1347,-3.0902,-3.08,-3.0711,-3.026,-3.017,-3.017,-3.017,-2.9012,-2.8055,-2.7604,-2.716,-2.7003,-2.7251,-2.7262,-2.7262,-2.7262,-2.7262,-2.7262,-2.7262,-2.7262,-2.7262,-2.7262,-2.7262,-2.7262,-2.082,-2.2242,-2.3392,-2.2959,-2.2962,-2.2903,-2.2425,0.0,0.0,0.0,0.0,0.0,0.0,0.0,0.0,0.0,0.0,0.0,0.0,0.0,0.0,0.0,0.0,0.0,0.0,0.0,0.0,0.0,0.0,0.0,0.0,0.0,0.0,-3.3081,-3.3081,-3.3294,-3.3859,-3.3771,-3.401,-3.4474,-3.4474,-3.4512,-3.46,-3.46,-3.4638,0.0,0.0,0.0,-3.4763,-3.5228,-3.5231,-3.4893,-3.4981,-3.5388,-3.6004,-3.6371,-3.6775,-3.7268,-3.8133,-3.8171,-3.789,-3.7479,-3.7933,-3.8723,-3.8855,-3.8987,-3.8723,-3.6901,-3.6788,-3.7,-3.6253,-3.6674,-3.7,-3.6267,-3.6015,-3.6015,-3.6015,-3.5855,-3.5789,-3.5789,-3.5695,-3.5386,-3.4703,-3.4564,-3.423,-3.3484,-3.324,-3.2797,-3.1901,-3.1813,-3.1536,-3.0711,-3.0621,-3.0621,-3.0621,-3.0531,-3.0079,-2.9176,-2.8269,-2.7715,-2.7715,-2.7715,-2.7715,-2.7715,-2.7715,-2.7715,-2.7715,-2.7715,-2.7715,-2.7715,-2.7715,-2.762,-2.1301,-2.3267,-2.4385,-2.2601,-2.2685,-2.2956,-2.2228,0.0,0.0,0.0,0.0,0.0,0.0,0.0,0.0,0.0,0.0,0.0,0.0,0.0,0.0,0.0,0.0,0.0,0.0,0.0,0.0,0.0,0.0,0.0,0.0,0.0,0.0,-3.3081,-3.3081,-3.3192,-3.3439,-3.328,-3.3244,-3.3332,-3.3332,-3.3571,-3.4022,-3.4022,-3.4274,0.0,0.0,-3.4726,-3.4726,-3.4813,-3.5213,-3.5859,-3.6454,-3.721,-3.8128,-3.8206,-3.8489,-3.8869,-3.8804,-3.8704,-3.8752,-3.9277,-3.9535,-3.9819,-4.037,-4.056,-4.0476,-4.0155,-3.9316,-3.8472,-3.8308,-3.8397,-3.8412,-3.8113,-3.8037,-3.8037,-3.7796,-3.7246,-3.6688,-3.6688,-3.6108,-3.5615,-3.5615,-3.5087,-3.462,-3.4428,-3.3797,-3.3227,-3.2896,-3.2896,-3.2797,-3.2711,-3.2624,-3.2624,-3.2624,-3.1889,-3.1347,-3.1169,-3.026,-2.9715,-2.9715,-2.9715,-2.9715,-2.9715,-2.9715,-2.9715,-2.9715,-2.9715,-2.9715,-2.9715,-2.9715,-2.9268,-2.0833,-2.231,-2.3458,-2.3767,-2.504,-2.5932,-2.4887,0.0,0.0,0.0,0.0,0.0,0.0,0.0,0.0,0.0,0.0,0.0,0.0,0.0,0.0,0.0,0.0,0.0,0.0,0.0,0.0,0.0,0.0,0.0,0.0,0.0,0.0,0.0,-3.3398,-3.3471,-3.3556,-3.3471,-3.3398,-3.3398,-3.3313,-3.3452,-3.3779,-3.3779,-3.3918,-3.4159,0.0,-3.4159,-3.4185,-3.4976,-3.5331,-3.5606,-3.6601,-3.7338,-3.7841,-3.8351,-3.8913,-3.9513,-3.8958,-3.906,-3.9478,-3.9763,-4.0224,-4.0675,-4.0997,-4.1131,-4.1213,-4.1213,-4.0591,-3.9899,-3.9899,-3.9899,-3.9899,-3.9844,-3.9773,-3.9632,-3.919,-3.8796,-3.8413,-3.8008,-3.7601,-3.7204,-3.6802,-3.6425,-3.6029,-3.5588,-3.5047,-3.4581,-3.4191,-3.405,-3.381,-3.3484,-3.3398,-3.3398,-3.3398,-3.3031,-3.2227,-3.089,-3.0441,-3.017,-3.017,-3.017,-3.017,-3.017,-3.017,-3.017,-3.017,-3.017,-3.0249,-3.0328,-3.0249,-3.0217,-2.1033,-2.1887,-2.2811,-2.5037,0.0,-2.7604,-2.7417,-2.7188,0.0,0.0,0.0,0.0,0.0,0.0,0.0,0.0,0.0,0.0,0.0,0.0,0.0,0.0,0.0,0.0,0.0,0.0,0.0,0.0,0.0,0.0,0.0,0.0,0.0,0.0,-3.3713,-3.3725,-3.381,-3.3725,-3.3713,-3.3713,-3.3556,-3.3556,-3.3713,-3.3713,-3.3713,-3.3713,-3.3953,-3.4037,-3.4063,-3.5375,-3.5777,-3.5669,-3.693,-3.7568,-3.7901,-3.856,-3.9335,-3.9921,-3.9399,-3.9692,-4.0293,-4.05,-4.0961,-4.1559,-4.1739,-4.1901,-4.2013,-4.2173,-4.2043,-4.1702,-4.1147,-4.1049,-4.1049,-4.0966,-4.0966,-4.0847,-4.0278,-4.0015,-3.9748,-3.9205,-3.8929,-3.862,-3.7994,-3.7753,-3.7357,-3.6696,-3.6304,-3.5775,-3.5061,-3.4855,-3.4538,-3.3797,-3.3713,-3.3713,-3.3713,-3.3713,-3.292,-3.1146,-3.0968,-3.0979,-3.1057,-3.089,-3.089,-3.1057,-3.0968,-3.0968,-3.1057,-3.1057,-3.1205,-3.149,-3.1324,-3.1596,-2.2998,-2.3541,-2.3817,-2.5677,-2.5128,0.0,-2.8117,-2.7742,0.0,-2.9797,0.0,0.0,0.0,0.0,0.0,0.0,0.0,0.0,0.0,0.0,0.0,0.0,0.0,0.0,0.0,0.0,0.0,0.0,0.0,0.0,0.0,0.0,0.0,0.0,0.0,-3.381,-3.4076,-3.381,-3.3713,-3.3713,-3.3713,-3.3713,-3.3713,-3.3713,-3.3713,-3.3713,-3.4594,-3.491,-3.4979,-3.5789,-3.666,-3.7414,-3.8161,-3.8991,-3.9874,-4.0159,-4.0341,-4.0401,-4.0355,-4.0805,-4.1525,-4.2173,-4.2443,-4.2648,-4.3235,-4.3432,-4.3564,-4.4285,-4.4467,-4.3978,-4.1946,-4.1444,-4.1444,-4.1213,-4.1198,-4.1131,-4.0899,-4.0332,-3.9889,-3.9819,-3.9277,-3.8855,-3.8943,-3.8337,-3.7872,-3.7677,-3.7035,-3.6174,-3.5142,-3.4992,-3.4677,-3.3797,-3.3713,-3.3713,-3.3713,-3.3713,-3.3628,-3.3458,-3.3288,-3.3202,-3.3445,-3.3043,-3.3056,-3.3445,-3.3288,-3.3288,-3.3445,-3.3445,-3.3725,-3.4259,-3.4259,-3.4085,-2.2624,-2.3474,-2.432,-2.6421,-2.6605,0.0,0.0,-3.0574,-3.1202,-3.3488,0.0,0.0,0.0,0.0,0.0,0.0,0.0,0.0,0.0,0.0,0.0,0.0,0.0,0.0,0.0,0.0,0.0,0.0,0.0,0.0,0.0,0.0,0.0,0.0,0.0,-3.4147,-3.4314,-3.423,-3.4147,-3.4147,-3.3979,-3.3979,-3.4147,-3.4147,-3.4454,-3.4937,-3.5251,-3.5722,-3.6253,-3.7127,-3.7615,-3.8052,-3.8764,-3.9387,-3.9929,-4.0426,-4.0593,-4.0706,-4.1229,-4.1869,-4.2504,-4.2769,-4.3185,-4.3535,-4.3747,-4.4079,-4.4461,-4.4666,-4.5019,-4.5177,-4.4362,-4.4154,-4.4154,-4.4073,-4.4073,-4.3945,-4.3407,-4.3142,-4.2669,-4.1678,-4.1015,-4.0414,-4.0008,-3.9298,-3.8797,-3.8797,-3.8472,-3.7973,-3.7557,-3.747,-3.7306,-3.6948,-3.6421,-3.6098,-3.6098,-3.5516,-3.5198,-3.5198,-3.4195,-3.3641,-3.3713,-3.3556,-3.3556,-3.3713,-3.3641,-3.382,-3.4264,-3.4264,-3.4645,-3.5373,-3.5197,-3.5404,-2.2464,-2.3174,-2.4137,0.0,0.0,0.0,-3.2211,-3.302,-3.3797,-3.6439,0.0,0.0,0.0,0.0,0.0,0.0,0.0,0.0,0.0,0.0,0.0,0.0,0.0,0.0,0.0,0.0,0.0,0.0,0.0,0.0,0.0,0.0,0.0,0.0,0.0,0.0,-3.4397,-3.4397,-3.4397,-3.4494,-3.441,-3.4327,-3.4397,-3.4397,-3.4868,-3.5749,-3.6056,-3.666,-3.7434,-3.8397,-3.8797,-3.887,-3.9595,-4.0021,-4.0216,-4.0894,-4.1264,-4.1512,-4.2109,-4.2753,-4.3333,-4.3333,-4.368,-4.4039,-4.3956,-4.438,-4.492,-4.5108,-4.5645,-4.6195,-4.649,-4.6192,-4.5798,-4.5798,-4.5798,-4.5656,-4.5194,-4.4952,-4.4458,-4.3457,-4.2521,-4.173,-4.1182,-4.0469,-4.0038,-4.0038,-3.9876,-3.9713,-3.9426,-3.9329,-3.919,-3.8965,-3.8352,-3.7937,-3.7937,-3.7348,-3.685,-3.6518,-3.5509,-3.4673,-3.425,-3.4247,-3.426,-3.4165,-3.4332,-3.4628,-3.5102,-3.5102,-3.5486,-3.622,-3.6056,-3.6456,-2.2905,-2.2811,0.0,0.0,0.0,0.0,-3.4841,-3.4674,-3.4491,-3.8318,0.0,0.0,0.0,0.0,0.0,0.0,0.0,0.0,0.0,0.0,0.0,0.0,0.0,0.0,0.0,0.0,0.0,0.0,0.0,0.0,0.0,0.0,0.0,0.0,0.0,0.0,-3.4397,-3.4397,-3.4577,-3.4839,-3.4839,-3.4673,-3.4397,-3.4397,-3.4868,-3.5736,-3.6816,-3.7648,-3.8487,-3.9523,-3.9996,-4.0066,-4.0752,-4.1008,-4.106,-4.1755,-4.2425,-4.2982,-4.2982,-4.3469,-4.4097,-4.4097,-4.4097,-4.4114,-4.3956,-4.438,-4.5113,-4.5924,-4.6533,-4.7137,-4.798,-4.7018,-4.5814,-4.5814,-4.5814,-4.5814,-4.5814,-4.5291,-4.4837,-4.4837,-4.3611,-4.2535,-4.2535,-4.1923,-4.1384,-4.1384,-4.1369,-4.1126,-4.0217,-4.0139,-3.9823,-3.9035,-3.894,-3.894,-3.894,-3.894,-3.8531,-3.7615,-3.7531,-3.6865,-3.5411,-3.5412,-3.5437,-3.5312,-3.5661,-3.5934,-3.6109,-3.6109,-3.6423,-3.7011,-3.7011,-3.7338,-2.2905,0.0,0.0,0.0,0.0,0.0,0.0,-3.6148,0.0,0.0,0.0,0.0,0.0,0.0,0.0,0.0,0.0,0.0,0.0,0.0,0.0,0.0,0.0,0.0,0.0,0.0,0.0,0.0,0.0,0.0,0.0,0.0,0.0,0.0,0.0,0.0,-3.4397,-3.4397,-3.4799,-3.5602,-3.5602,-3.5372,-3.4908,-3.5521,-3.6215,-3.6972,-3.789,-3.8738,-3.9523,-3.9854,-4.0385,-4.0888,-4.1008,-4.1377,-4.2013,-4.2661,-4.3047,-4.329,-4.3914,-4.4253,-4.4497,-4.4818,-4.4947,-4.5001,-4.525,-4.6199,-4.7251,-4.7348,-4.7977,-4.8724,-4.9006,-4.8241,-4.745,-4.7338,-4.7355,-4.7355,-4.7355,-4.7209,-4.6865,-4.6348,-4.5436,-4.4671,-4.4126,-4.3004,-4.2187,-4.2187,-4.1715,-4.1458,-4.1674,-4.2119,-4.2243,-4.1989,-4.1424,-4.1083,-4.1083,-4.0489,-3.9971,-3.9702,-3.9702,-3.8577,-3.5987,-3.5931,-3.5856,-3.5861,-3.5944,-3.623,-3.6737,-3.6737,-3.705,-3.7639,-3.7639,-3.773,-2.3419,0.0,0.0,0.0,0.0,0.0,0.0,0.0,0.0,0.0,0.0,0.0,0.0,0.0,0.0,0.0,0.0,0.0,0.0,0.0,0.0,0.0,0.0,0.0,0.0,0.0,0.0,0.0,0.0,0.0,0.0,0.0,0.0,0.0,0.0,0.0,-3.4304,-3.4618,-3.5278,-3.6215,-3.6582,-3.6596,-3.6294,-3.6596,-3.7218,-3.8055,-3.8957,-3.9651,-4.0191,-4.0524,-4.0888,-4.1393,-4.182,-4.2316,-4.2831,-4.3545,-4.3814,-4.3873,-4.4384,-4.472,-4.4944,-4.5214,-4.5459,-4.5648,-4.585,-4.6984,-4.8173,-4.805,-4.8837,-4.9705,-4.9838,-4.9428,-4.8838,-4.8227,-4.8066,-4.8001,-4.8001,-4.8001,-4.7853,-4.7337,-4.6692,-4.6044,-4.5629,-4.4559,-4.363,-4.3337,-4.2637,-4.2297,-4.2701,-4.309,-4.3329,-4.3329,-4.2835,-4.2496,-4.2496,-4.1976,-4.1532,-4.1212,-4.1127,-4.0181,-3.7993,-3.7879,-3.7611,-3.7063,-3.7175,-3.7316,-3.7364,-3.7364,-3.7547,-3.79,-3.79,-3.79,0.0,0.0,0.0,0.0,0.0,0.0,0.0,0.0,0.0,0.0,0.0,0.0,0.0,0.0,0.0,0.0,0.0,0.0,0.0,0.0,0.0,0.0,0.0,0.0,0.0,0.0,0.0,0.0,0.0,0.0,0.0,0.0,0.0,0.0,0.0,0.0,-3.4193,-3.494,-3.5773,0.0,-3.7486,-3.7953,-3.8324,-3.789,-3.8115,-3.8957,-3.9879,-4.0401,-4.0646,-4.1276,-4.1575,-4.1771,-4.3015,-4.3571,-4.3706,-4.4423,-4.4665,-4.4682,-4.472,-4.4998,-4.5355,-4.5407,-4.5767,-4.6165,-4.6116,-4.7136,-4.8398,-4.8398,-4.9327,-5.039,-5.0552,-5.0407,-4.9884,-4.8606,-4.8227,-4.8115,-4.8066,-4.8001,-4.8001,-4.8001,-4.7404,-4.6896,-4.6896,-4.6253,-4.5463,-4.4662,-4.3849,-4.3329,-4.3329,-4.3329,-4.3329,-4.3329,-4.3329,-4.3329,-4.3329,-4.3329,-4.2996,-4.2155,-4.2155,-4.1728,-4.0859,-4.0689,-3.9995,-3.8624,-3.9114,-3.897,-3.8161,-3.8161,-3.8161,-3.8161,-3.8161,-3.8161,0.0,-2.6465,0.0,0.0,0.0,0.0,0.0,0.0,0.0,0.0,0.0,0.0,0.0,0.0,0.0,0.0,0.0,0.0,0.0,0.0,0.0,0.0,0.0,0.0,0.0,0.0,0.0,0.0,0.0,0.0,0.0,0.0,0.0,0.0,0.0,-3.3772,-3.4326,-3.4554,-3.5648,0.0,-3.787,-3.8653,-3.992,-3.9233,-3.932,-4.0161,-4.0385,-4.0768,-4.1276,-4.1459,-4.2141,-4.3075,-4.3393,-4.3839,-4.4423,-4.4981,-4.5178,-4.5214,-4.5614,-4.5868,-4.6017,-4.6406,-4.666,-4.6799,-4.7196,-4.8416,-4.9703,-4.9703,-5.0485,-5.1329,-5.1329,-5.0893,-5.0258,-4.947,-4.9222,-4.8995,-4.8467,-4.8292,-4.8179,-4.8179,-4.7902,-4.777,-4.777,-4.7118,-4.6095,-4.4737,-4.3849,-4.3329,-4.3329,-4.3329,-4.3329,-4.3329,-4.3329,-4.3329,-4.3329,-4.3329,-4.325,-4.2996,-4.2996,-4.2915,-4.2739,-4.1365,-4.0448,-4.015,-4.0276,-4.0173,-4.0014,-4.0014,-4.0014,-4.0014,-4.0014,-4.0014,0.0,0.0,0.0,0.0,0.0,0.0,0.0,0.0,0.0,0.0,0.0,0.0,0.0,0.0,0.0,0.0,0.0,0.0,0.0,0.0,0.0,0.0,0.0,0.0,0.0,0.0,0.0,0.0,0.0,0.0,0.0,0.0,0.0,0.0,-3.3677,-3.4186,-3.4764,-3.5196,-3.6139,-3.7645,-3.8075,-3.8865,-3.9994,-3.9923,-4.027,-4.0956,-4.0956,-4.1327,-4.2013,-4.2332,-4.2892,-4.3571,-4.3956,-4.4485,-4.5089,-4.5372,-4.563,-4.5865,-4.6098,-4.6358,-4.6595,-4.6817,-4.7062,-4.7363,-4.7615,-4.855,-4.9601,-4.9981,-5.0741,-5.1563,-5.1958,-5.1736,-5.1329,-5.0715,-4.9953,-4.9222,-4.8656,-4.842,-4.8292,-4.8227,-4.8163,-4.8066,-4.8001,-4.705,-4.5969,-4.5184,-4.4066,-4.3329,-4.3329,-4.3329,-4.3329,-4.3329,-4.3329,-4.3329,-4.3329,-4.3329,-4.3329,-4.3329,-4.3329,-4.3329,-4.3329,-4.2386,-4.1713,-4.1296,-4.1296,-4.1029,-4.0603,-4.0603,-4.0603,-4.0603,-4.0603,-4.0603,0.0,0.0,0.0,0.0,0.0,0.0,0.0,0.0,0.0,0.0,0.0,0.0,0.0,0.0,0.0,0.0,0.0,0.0,0.0,0.0,0.0,0.0,0.0,0.0,0.0,0.0,0.0,0.0,0.0,0.0,0.0,0.0,-3.3616,-3.4312,-3.4447,-3.4695,-3.5219,-3.5926,-3.6603,-3.7331,-3.8101,-3.8866,-3.9488,-4.0168,-4.0847,-4.1525,-4.1641,-4.2078,-4.2769,-4.3317,-4.363,-4.3823,-4.4669,-4.5196,-4.5563,-4.5833,-4.6209,-4.6524,-4.6578,-4.689,-4.724,-4.7133,-4.7389,-4.7741,-4.7759,-4.8369,-4.9238,-4.9908,-5.076,-5.1647,-5.2317,-5.2498,-5.234,-5.1719,-5.0607,-4.9445,-4.8889,-4.8656,-4.8483,-4.8373,-4.8292,-4.8227,-4.8131,-4.6896,-4.5897,-4.5753,-4.4495,-4.3551,-4.3329,-4.3329,-4.3329,-4.3329,-4.3329,-4.3329,-4.3329,-4.3329,-4.3329,-4.3329,-4.3329,-4.3329,-4.3329,-4.3329,-4.2996,-4.2237,-4.2237,-4.1811,-4.1029,-4.1029,-4.1029,-4.1029,-4.1029,-4.1029,0.0,0.0,0.0,0.0,0.0,0.0,0.0,0.0,0.0,0.0,0.0,0.0,0.0,0.0,0.0,0.0,0.0,0.0,0.0,0.0,0.0,0.0,0.0,0.0,0.0,0.0,0.0,0.0,0.0,0.0,0.0,-3.4714,-3.4846,-3.4312,-3.4912,-3.5299,-3.5389,-3.5454,-3.6205,-3.7502,-3.815,-3.88,-3.9456,-4.0196,-4.0891,-4.1525,-4.2141,-4.2831,-4.3647,-4.3722,-4.4186,-4.4835,-4.5372,-4.5614,-4.58,-4.6682,-4.7044,-4.715,-4.7591,-4.7811,-4.787,-4.7852,-4.7911,-4.797,-4.7884,-4.8877,-5.0039,-5.0097,-5.1176,-5.2353,-5.2462,-5.2498,-5.234,-5.1719,-5.1052,-5.0387,-4.9815,-4.9212,-4.8769,-4.8707,-4.8564,-4.8483,-4.842,-4.7688,-4.6815,-4.6008,-4.5342,-4.454,-4.3472,-4.3329,-4.3329,-4.3329,-4.3329,-4.3329,-4.3329,-4.3329,-4.3329,-4.3329,-4.3329,-4.3329,-4.3329,-4.3329,-4.325,-4.317,-4.317,-4.3076,-4.29,-4.29,-4.29,-4.29,-4.29,-4.29,0.0,0.0,0.0,0.0,0.0,0.0,0.0,0.0,0.0,0.0,0.0,0.0,0.0,0.0,0.0,0.0,0.0,0.0,0.0,0.0,0.0,0.0,0.0,0.0,0.0,0.0,0.0,0.0,0.0,0.0,-3.4912,-3.519,-3.5464,-3.5529,-3.5879,-3.6022,-3.6022,-3.6022,-3.6474,-3.7466,-3.8099,-3.8734,-3.9374,-4.0588,-4.1499,-4.2215,-4.2911,-4.3706,-4.4446,-4.4446,-4.4818,-4.5442,-4.5716,-4.6178,-4.6728,-4.7237,-4.7572,-4.7838,-4.8032,-4.809,-4.809,-4.8032,-4.7992,-4.7992,-4.797,-4.8421,-4.9149,-5.0034,-5.0773,-5.1518,-5.2345,-5.2536,-5.249,-5.2162,-5.1381,-5.0589,-5.0159,-4.9436,-4.8894,-4.8832,-4.8627,-4.8483,-4.8483,-4.7803,-4.7104,-4.6502,-4.5921,-4.5269,-4.4343,-4.4066,-4.3989,-4.3989,-4.3551,-4.3329,-4.3329,-4.3329,-4.3329,-4.3329,-4.3329,-4.3329,-4.3329,-4.3329,-4.3329,-4.3329,-4.3329,-4.3329,-4.3329,-4.3329,-4.3329,-4.3329,-4.3329,-4.3329,0.0,0.0,0.0,0.0,0.0,0.0,0.0,0.0,0.0,0.0,0.0,0.0,0.0,0.0,0.0,0.0,0.0,0.0,0.0,0.0,0.0,0.0,0.0,0.0,0.0,0.0,0.0,0.0,0.0,0.0,-3.5672,-3.5672,-3.5943,-3.6492,-3.6492,-3.6538,-3.6723,-3.6892,-3.7163,-3.7637,-3.8124,-3.8666,-3.9373,-4.0785,-4.1765,-4.2551,-4.3658,-4.4524,-4.5213,-4.5213,-4.5546,-4.6,-4.6244,-4.6791,-4.7488,-4.7715,-4.7995,-4.8306,-4.8247,-4.8226,-4.8226,-4.8111,-4.8072,-4.8072,-4.805,-4.8324,-4.8908,-5.007,-5.0709,-5.1249,-5.2326,-5.259,-5.2563,-5.2526,-5.1701,-5.0715,-5.0045,-4.9436,-4.894,-4.8894,-4.8753,-4.861,-4.861,-4.8161,-4.7671,-4.7422,-4.6984,-4.6346,-4.5342,-4.5211,-4.5005,-4.4662,-4.4143,-4.3708,-4.3488,-4.3503,-4.3503,-4.3503,-4.3503,-4.3503,-4.3503,-4.3503,-4.3423,-4.3423,-4.3423,-4.3344,-4.3329,-4.3329,-4.3329,-4.3329,-4.3329,-4.3329,0.0,0.0,0.0,0.0,0.0,0.0,0.0,0.0,0.0,0.0,0.0,0.0,0.0,0.0,0.0,0.0,0.0,0.0,0.0,0.0,0.0,0.0,0.0,0.0,0.0,0.0,0.0,0.0,0.0,0.0,-3.6414,-3.6414,-3.6492,-3.6492,-3.6492,-3.6769,-3.7358,-3.7895,-3.8222,-3.8238,-3.839,-3.8794,-3.9415,-4.0344,-4.1152,-4.1986,-4.4021,-4.5302,-4.585,-4.585,-4.6262,-4.689,-4.7335,-4.753,-4.7632,-4.8093,-4.8267,-4.8306,-4.8306,-4.8306,-4.8306,-4.8267,-4.8267,-4.8267,-4.8226,-4.9248,-5.0451,-5.0399,-5.1511,-5.2652,-5.2617,-5.259,-5.2563,-5.2526,-5.2,-5.1122,-4.9436,-4.9001,-4.9001,-4.9001,-4.9001,-4.9001,-4.9001,-4.894,-4.894,-4.8877,-4.8861,-4.8161,-4.64,-4.6592,-4.647,-4.5169,-4.5036,-4.4752,-4.405,-4.3988,-4.3988,-4.3988,-4.3988,-4.3988,-4.3988,-4.3988,-4.391,-4.369,-4.369,-4.3518,-4.3329,-4.3329,-4.3329,-4.3329,-4.3329,-4.3329,0.0,0.0,0.0,0.0,0.0,0.0,0.0,0.0,0.0,0.0,0.0,0.0,0.0,0.0,0.0,0.0,0.0,0.0,0.0,0.0,0.0,0.0,0.0,0.0,0.0,0.0,0.0,0.0,0.0,0.0,-3.7074,-3.7074,-3.7238,-3.7605,-3.7679,-3.778,-3.7953,-3.8574,-3.8865,-3.8865,-3.9418,-3.9782,-4.0037,-4.0968,-4.1694,-4.2315,-4.3635,-4.4666,-4.5365,-4.6194,-4.6873,-4.7378,-4.7548,-4.7775,-4.8075,-4.8229,-4.8306,-4.8306,-4.8306,-4.8306,-4.8306,-4.8306,-4.8306,-4.8306,-4.8286,-4.8689,-4.9218,-4.9728,-5.0662,-5.159,-5.1999,-5.2466,-5.2698,-5.2173,-5.1799,-5.1209,-4.9873,-4.9273,-4.9001,-4.9001,-4.9001,-4.9001,-4.9001,-4.9001,-4.9001,-4.9001,-4.9001,-4.8736,-4.7918,-4.7456,-4.702,-4.6539,-4.6048,-4.5706,-4.5431,-4.5431,-4.5431,-4.5431,-4.5431,-4.5431,-4.5431,-4.5431,-4.5358,-4.5285,-4.5285,-4.4631,-4.3329,-4.3329,-4.3329,-4.3329,-4.3329,-4.3551,-1.828,0.0,0.0,0.0,0.0,0.0,0.0,0.0,0.0,0.0,0.0,0.0,0.0,0.0,0.0,0.0,0.0,0.0,0.0,0.0,0.0,0.0,0.0,0.0,0.0,0.0,0.0,0.0,0.0,0.0,-3.7679,-3.7679,-3.7911,-3.8294,-3.8518,-3.8629,-3.8629,-3.9189,-3.947,-3.9523,-4.007,-4.0419,-4.0597,-4.1354,-4.194,-4.2476,-4.3474,-4.4485,-4.5524,-4.6373,-4.7186,-4.7856,-4.7856,-4.8035,-4.8306,-4.8306,-4.8306,-4.8306,-4.8306,-4.8306,-4.8306,-4.8306,-4.8306,-4.8306,-4.8306,-4.8508,-4.8857,-4.9426,-5.0178,-5.0872,-5.1302,-5.195,-5.2386,-5.1852,-5.17,-5.1465,-5.0678,-4.9873,-4.9229,-4.9063,-4.9001,-4.9001,-4.9001,-4.9001,-4.9001,-4.9001,-4.9001,-4.8956,-4.8832,-4.8242,-4.7786,-4.7506,-4.7088,-4.6678,-4.6416,-4.6416,-4.6416,-4.6416,-4.6416,-4.6416,-4.6416,-4.6416,-4.6346,-4.626,-4.626,-4.5618,-4.4251,-4.4251,-4.4251,-4.4251,-4.419,-4.4419,0.0,0.0,0.0,0.0,0.0,0.0,0.0,0.0,0.0,0.0,0.0,0.0,0.0,0.0,0.0,0.0,0.0,0.0,0.0,0.0,0.0,0.0,0.0,0.0,0.0,0.0,0.0,0.0,0.0,-3.8294,-3.8351,-3.8334,-3.8334,-3.8334,-3.892,-3.9206,-3.9206,-3.9799,-4.0121,-4.0121,-4.037,-4.0724,-4.1122,-4.1428,-4.1778,-4.2292,-4.3541,-4.4928,-4.6359,-4.6395,-4.7128,-4.8269,-4.8306,-4.8306,-4.8306,-4.8306,-4.8306,-4.8306,-4.8306,-4.8306,-4.8306,-4.8306,-4.8306,-4.8306,-4.8306,-4.8893,-4.9536,-4.9536,-5.0141,-5.0725,-5.0643,-5.1085,-5.1566,-5.1566,-5.1682,-5.1795,-5.1746,-5.0822,-4.9774,-4.9168,-4.9001,-4.9001,-4.9001,-4.9001,-4.9001,-4.9001,-4.9001,-4.9001,-4.9001,-4.9001,-4.8736,-4.8032,-4.795,-4.7622,-4.6949,-4.688,-4.688,-4.688,-4.688,-4.688,-4.688,-4.688,-4.6742,-4.6588,-4.6588,-4.6502,-4.6314,-4.6244,-4.6173,-4.6189,-4.5992,-4.5881,-1.8739,0.0,0.0,0.0,0.0,0.0,0.0,0.0,0.0,0.0,0.0,0.0,0.0,0.0,0.0,0.0,0.0,0.0,0.0,0.0,0.0,0.0,0.0,0.0,0.0,0.0,0.0,0.0,-3.8278,-3.8518,-3.892,-3.9348,-3.9627,-3.9627,-3.9747,-3.985,-3.985,-4.0138,-4.0402,-4.0703,-4.0955,-4.1303,-4.1768,-4.1931,-4.2239,-4.2729,-4.3079,-4.3958,-4.526,-4.643,-4.711,-4.7498,-4.8086,-4.8306,-4.8306,-4.8306,-4.8306,-4.8306,-4.8306,-4.8306,-4.8306,-4.8306,-4.8306,-4.8306,-4.8306,-4.8471,-4.8655,-4.8655,-4.926,-5.005,-5.0597,-5.0867,-5.0991,-5.089,-5.1347,-5.1629,-5.1142,-5.1204,-5.1052,-4.9873,-4.9273,-4.9001,-4.9001,-4.9001,-4.9001,-4.9001,-4.9001,-4.9001,-4.9001,-4.9001,-4.8923,-4.8719,-4.8719,-4.8593,-4.8386,-4.8386,-4.8386,-4.8386,-4.8386,-4.8386,-4.8386,-4.8386,-4.8386,-4.8306,-4.8306,-4.8306,-4.8225,-4.6884,-4.6173,-4.6244,-4.6678,-4.6884,-2.0023,-2.0776,0.0,0.0,0.0,0.0,0.0,0.0,0.0,0.0,0.0,0.0,0.0,0.0,0.0,0.0,0.0,0.0,0.0,0.0,0.0,0.0,0.0,0.0,0.0,0.0,0.0,0.0,-3.9065,-3.9172,-3.9575,-3.9918,-4.0171,-4.0402,-4.0402,-4.0531,-4.0754,-4.0866,-4.1019,-4.1268,-4.1508,-4.1828,-4.2302,-4.244,-4.275,-4.3142,-4.3142,-4.3542,-4.4305,-4.559,-4.6507,-4.713,-4.7627,-4.8012,-4.8306,-4.8306,-4.8306,-4.8306,-4.8306,-4.8306,-4.8306,-4.8306,-4.8306,-4.8306,-4.8306,-4.8306,-4.8306,-4.8306,-4.8673,-4.9169,-4.9646,-5.0031,-5.0288,-5.0189,-5.0753,-5.1195,-5.0758,-5.0803,-5.078,-5.0042,-4.9756,-4.9436,-4.9063,-4.9001,-4.9001,-4.9001,-4.9001,-4.9001,-4.9001,-4.9001,-4.9001,-4.9001,-4.9001,-4.9001,-4.9001,-4.9001,-4.9001,-4.9001,-4.9001,-4.9001,-4.9001,-4.9001,-4.9001,-4.9001,-4.9001,-4.9001,-4.9001,-4.7868,-4.7323,-4.7323,-4.7754,-4.7885,-2.1272,-2.1602,-2.2519,0.0,0.0,0.0,0.0,-2.5275,0.0,0.0,0.0,0.0,0.0,0.0,0.0,0.0,0.0,0.0,0.0,0.0,0.0,0.0,0.0,0.0,0.0,0.0,-4.0002,-4.0052,-4.017,-4.0254,-4.0254,-4.0254,-4.0483,-4.0896,-4.0896,-4.1157,-4.1692,-4.1753,-4.1803,-4.1895,-4.2038,-4.2342,-4.2788,-4.292,-4.316,-4.3497,-4.3497,-4.3479,-4.3587,-4.4268,-4.5461,-4.6856,-4.704,-4.7553,-4.8216,-4.8307,-4.8344,-4.8344,-4.8344,-4.8344,-4.8344,-4.8344,-4.8344,-4.8306,-4.8306,-4.8306,-4.8306,-4.8306,-4.8306,-4.8306,-4.8306,-4.8875,-4.9444,-4.9444,-4.997,-5.0497,-5.0497,-5.0014,-4.9681,-4.992,-5.0084,-4.9924,-4.9212,-4.9063,-4.9063,-4.9063,-4.9063,-4.9001,-4.9001,-4.9001,-4.9001,-4.9001,-4.9001,-4.9001,-4.9001,-4.9001,-4.9001,-4.9001,-4.9001,-4.9001,-4.9001,-4.9001,-4.9001,-4.9001,-4.9001,-4.9001,-4.9001,-4.9001,-4.8956,-4.8832,-4.8832,-4.8707,-2.4503,-2.4576,0.0,0.0,0.0,0.0,0.0,-2.4296,0.0,0.0,0.0,0.0,0.0,0.0,0.0,0.0,0.0,0.0,0.0,0.0,0.0,0.0,0.0,0.0,0.0,0.0,-3.9387,-3.9735,-4.0672,-4.123,-4.123,-4.1338,-4.1428,-4.1516,-4.1569,-4.1639,-4.1768,-4.1913,-4.2139,-4.2537,-4.2655,-4.2939,-4.3321,-4.3375,-4.3428,-4.3497,-4.3497,-4.3513,-4.36,-4.3766,-4.4391,-4.5385,-4.6728,-4.7408,-4.7665,-4.831,-4.855,-4.855,-4.855,-4.855,-4.855,-4.855,-4.8495,-4.8457,-4.8457,-4.8401,-4.8306,-4.8306,-4.8306,-4.8306,-4.8306,-4.8434,-4.8545,-4.8545,-4.9205,-4.9811,-4.9811,-5.0186,-5.0387,-4.9851,-4.9536,-4.9375,-4.9453,-4.9471,-4.9428,-4.9428,-4.929,-4.9168,-4.9001,-4.9001,-4.9001,-4.9001,-4.9001,-4.9001,-4.9001,-4.9001,-4.9001,-4.9001,-4.9001,-4.9001,-4.9001,-4.9001,-4.9001,-4.9001,-4.9001,-4.9001,-4.9001,-4.9001,-4.9001,-4.894,-4.894,-4.894,-2.6229,-2.5988,0.0,-2.5988,0.0,0.0,0.0,0.0,0.0,0.0,0.0,0.0,0.0,0.0,0.0,0.0,0.0,0.0,0.0,0.0,0.0,0.0,0.0,0.0,0.0,0.0,-3.8946,-3.9451,-4.0455,-4.1006,-4.0971,-4.1445,-4.1846,-4.2032,-4.2121,-4.2284,-4.2598,-4.2675,-4.2846,-4.3105,-4.3178,-4.3304,-4.3497,-4.3497,-4.3497,-4.3479,-4.3532,-4.3548,-4.3615,-4.3828,-4.4068,-4.4487,-4.569,-4.6668,-4.7442,-4.7848,-4.8379,-4.8834,-4.8834,-4.8834,-4.8834,-4.8834,-4.8731,-4.855,-4.855,-4.8476,-4.8401,-4.8401,-4.8363,-4.8306,-4.8306,-4.8306,-4.8306,-4.8306,-4.8636,-4.8948,-4.8948,-4.926,-4.9585,-4.9646,-4.9611,-4.9601,-4.9744,-5.0087,-5.0198,-4.959,-4.929,-4.9107,-4.9001,-4.9001,-4.9001,-4.9001,-4.9001,-4.9001,-4.9001,-4.9001,-4.9001,-4.9001,-4.9001,-4.9001,-4.9001,-4.9001,-4.9001,-4.9001,-4.9001,-4.9001,-4.9001,-4.9001,-4.9001,-4.9001,-4.9001,-4.9001,0.0,0.0,0.0,0.0,0.0,-2.5676,0.0,0.0,0.0,-2.5724,0.0,0.0,0.0,0.0,0.0,0.0,0.0,0.0,0.0,0.0,0.0,0.0,0.0,0.0,0.0,0.0,-3.8049,-3.9123,-3.9615,-4.0068,-4.0476,-4.138,-4.2029,-4.2361,-4.2603,-4.2921,-4.3411,-4.3411,-4.3446,-4.3497,-4.3497,-4.3497,-4.3497,-4.3497,-4.3532,-4.3532,-4.3631,-4.3697,-4.3744,-4.4132,-4.421,-4.4141,-4.4896,-4.5945,-4.7098,-4.7315,-4.8054,-4.8971,-4.8971,-4.9096,-4.9246,-4.9246,-4.8986,-4.8713,-4.8623,-4.8569,-4.8532,-4.8494,-4.8419,-4.8344,-4.8306,-4.8306,-4.8306,-4.8306,-4.8306,-4.8306,-4.8306,-4.8306,-4.8508,-4.9205,-4.9674,-4.9983,-5.0093,-5.0812,-5.1017,-5.0159,-4.9774,-4.958,-4.9521,-4.9521,-4.9479,-4.9273,-4.9273,-4.9212,-4.9063,-4.9063,-4.9001,-4.9001,-4.9001,-4.9001,-4.9001,-4.9107,-4.9168,-4.9168,-4.9273,-4.9316,-4.9316,-4.9316,-4.9212,-4.9001,-4.9001,-4.9001,0.0,0.0,0.0,0.0,-2.92,0.0,0.0,0.0,-2.586,-2.4704,0.0,0.0,0.0,0.0,0.0,0.0,0.0,0.0,0.0,0.0,0.0,0.0,0.0,0.0,0.0,0.0,0.0,-3.8649,-3.8039,-3.8528,-4.0634,-4.1631,-4.2175,-4.2229,-4.2973,-4.341,-4.3497,-4.3497,-4.3497,-4.3497,-4.3497,-4.3497,-4.3497,-4.3497,-4.3513,-4.3615,-4.3868,-4.4065,-4.4231,-4.4538,-4.465,-4.477,-4.5504,-4.5801,-4.5921,-4.6948,-4.7851,-4.8559,-4.8559,-4.9078,-4.9702,-4.9702,-4.9442,-4.9052,-4.8713,-4.8587,-4.8569,-4.8532,-4.8513,-4.8457,-4.8306,-4.8306,-4.8306,-4.8306,-4.8306,-4.8306,-4.8306,-4.8306,-4.8343,-4.8434,-4.9093,-4.9958,-5.0896,-5.1329,-5.1651,-5.1782,-5.1764,-5.1697,-5.1512,-5.1494,-5.1155,-5.0237,-5.0124,-4.9855,-4.9212,-4.9168,-4.9124,-4.9001,-4.9001,-4.9001,-4.9001,-4.9496,-4.9774,-4.9774,-5.0276,-5.0535,-5.0535,-5.0535,-5.0011,-4.9001,-4.9001,-4.9001,0.0,0.0,0.0,0.0,0.0,0.0,0.0,0.0,-2.5273,0.0,0.0,0.0,0.0,0.0,0.0,0.0,0.0,0.0,0.0,0.0,0.0,0.0,0.0,0.0,0.0,0.0,0.0,0.0,0.0,-3.6699,-3.8684,-4.0115,-4.1302,-4.2168,-4.2601,-4.302,-4.3497,-4.3497,-4.3497,-4.3497,-4.3497,-4.3615,-4.3781,-4.3791,-4.3931,-4.4125,-4.4308,-4.4447,-4.4565,-4.4849,-4.4915,-4.4862,-4.5478,-4.5784,-4.5889,-4.6372,-4.7188,-4.809,-4.8604,-4.9047,-4.9384,-4.9705,-4.9674,-4.9531,-4.9352,-4.9132,-4.8937,-4.8903,-4.8731,-4.855,-4.8438,-4.8419,-4.8419,-4.8306,-4.8306,-4.8306,-4.8306,-4.8306,-4.8306,-4.8306,-4.9003,-4.99,-5.0811,-5.1435,-5.2018,-5.2644,-5.2743,-5.2527,-5.1874,-5.1808,-5.1512,-5.0841,-5.0734,-5.0626,-5.0314,-5.0314,-5.0276,-5.0107,-5.0011,-5.0011,-5.0011,-5.022,-5.0331,-5.0331,-5.0589,-5.0697,-5.0697,-5.0697,-5.048,-5.0011,-5.0011,-5.0011,-3.2508,0.0,0.0,0.0,0.0,0.0,0.0,0.0,0.0,0.0,0.0,0.0,0.0,0.0,0.0,0.0,0.0,0.0,0.0,0.0,0.0,0.0,0.0,0.0,0.0,0.0,0.0,0.0,0.0,0.0,-3.6893,-3.8438,-4.0052,-4.1837,-4.2161,-4.269,-4.3479,-4.3497,-4.3566,-4.3649,-4.3649,-4.3828,-4.4151,-4.4125,-4.428,-4.4572,-4.4726,-4.4825,-4.4849,-4.518,-4.5201,-4.5052,-4.5438,-4.5706,-4.5902,-4.5902,-4.6568,-4.758,-4.8211,-4.8728,-4.9201,-4.9746,-4.9891,-4.991,-4.9811,-4.9589,-4.9352,-4.9227,-4.8986,-4.8713,-4.8587,-4.8532,-4.8513,-4.842,-4.8382,-4.8363,-4.8363,-4.8324,-4.8306,-4.8306,-4.8802,-4.9572,-5.0618,-5.1463,-5.227,-5.3096,-5.3206,-5.2937,-5.2242,-5.2196,-5.1988,-5.153,-5.1479,-5.1361,-5.1138,-5.1138,-5.1104,-5.0947,-5.0841,-5.0787,-5.0787,-5.0964,-5.1069,-5.1069,-5.1155,-5.1207,-5.1207,-5.1191,-5.1191,-5.1191,-5.0858,-5.0697,0.0,0.0,0.0,-3.0304,0.0,0.0,0.0,0.0,-2.7255,0.0,0.0,0.0,0.0,0.0,-2.6282,-2.5531,-2.5403,0.0,0.0,0.0,0.0,0.0,0.0,0.0,0.0,0.0,0.0,0.0,0.0,0.0,-3.6083,-3.711,-3.867,-4.1042,-4.1901,-4.269,-4.3479,-4.3497,-4.3649,-4.3974,-4.3974,-4.4181,-4.4493,-4.4493,-4.4572,-4.4701,-4.4985,-4.5118,-4.5201,-4.5476,-4.5586,-4.5568,-4.5586,-4.5605,-4.5607,-4.5607,-4.6164,-4.6933,-4.6952,-4.8029,-4.949,-5.0007,-5.0183,-5.0135,-4.9884,-4.9784,-4.9702,-4.929,-4.9182,-4.9085,-4.8677,-4.8587,-4.8587,-4.8587,-4.855,-4.8494,-4.8494,-4.8401,-4.8306,-4.8306,-4.8324,-4.8875,-5.0527,-5.1463,-5.227,-5.3096,-5.3206,-5.3206,-5.3164,-5.3164,-5.2955,-5.2408,-5.2361,-5.2072,-5.1361,-5.131,-5.1258,-5.1086,-5.1086,-5.1086,-5.1086,-5.1665,-5.1964,-5.1964,-5.2343,-5.2545,-5.2545,-5.2462,-5.2434,-5.2434,-5.1243,-5.0697,0.0,0.0,-3.6485,-3.2453,0.0,0.0,0.0,0.0,0.0,0.0,0.0,0.0,0.0,-2.6612,-2.6337,-2.5531,-2.5403,-2.4924,0.0,0.0,0.0,0.0,0.0,0.0,0.0,0.0,0.0,0.0,0.0,0.0,0.0,-3.5661,-3.7569,-3.946,-4.0966,-4.2162,-4.2958,-4.3713,-4.4173,-4.4318,-4.4318,-4.4493,-4.4825,-4.4872,-4.503,-4.5243,-4.5362,-4.5438,-4.5476,-4.5568,-4.5586,-4.5586,-4.5586,-4.5586,-4.5586,-4.5586,-4.5778,-4.6201,-4.7317,-4.8432,-4.951,-5.0276,-5.0544,-5.0504,-5.0421,-5.0225,-5.0043,-4.9898,-4.9738,-4.9502,-4.9118,-4.8986,-4.8937,-4.8641,-4.8569,-4.8587,-4.8587,-4.8513,-4.8419,-4.8419,-4.8363,-4.8838,-5.0508,-5.1041,-5.1665,-5.3004,-5.3206,-5.3206,-5.3206,-5.3206,-5.3121,-5.2955,-5.2912,-5.285,-5.2572,-5.2481,-5.2417,-5.2353,-5.226,-5.2214,-5.2214,-5.2435,-5.2518,-5.2518,-5.2654,-5.2717,-5.2717,-5.2735,-5.269,-5.269,-5.2297,-5.2042,-3.7145,-3.7418,0.0,-3.3986,-3.2871,0.0,-2.8257,0.0,0.0,0.0,0.0,0.0,0.0,0.0,-2.6964,-2.6746,-2.5993,-2.4944,0.0,0.0,0.0,0.0,0.0,0.0,0.0,0.0,-2.5157,-2.675,0.0,0.0,0.0,0.0,-3.6602,-3.8876,-4.07,-4.2025,-4.2845,-4.3915,-4.4519,-4.465,-4.4676,-4.4849,-4.518,-4.5222,-4.5342,-4.555,-4.5586,-4.5586,-4.5586,-4.5586,-4.5586,-4.5586,-4.5586,-4.5586,-4.5586,-4.5586,-4.5586,-4.5797,-4.7182,-4.824,-4.9086,-4.9952,-5.0452,-5.0702,-5.0702,-5.0544,-5.0358,-5.023,-5.0087,-4.9865,-4.9502,-4.9412,-4.9321,-4.899,-4.8853,-4.8783,-4.8678,-4.8587,-4.8532,-4.8532,-4.8438,-4.8895,-5.0548,-5.0802,-5.1353,-5.2968,-5.3206,-5.3206,-5.3206,-5.3206,-5.3206,-5.3206,-5.3206,-5.3206,-5.3206,-5.3103,-5.306,-5.306,-5.2999,-5.2955,-5.2955,-5.2955,-5.2955,-5.2955,-5.2912,-5.285,-5.285,-5.2806,-5.2806,-5.2806,-5.2806,-5.2735]}]]